<?xml version="1.0" encoding="UTF-8" standalone="no" ?>
<gpx xmlns="http://www.topografix.com/GPX/1/1" xmlns:xsi="http://www.w3.org/2001/XMLSchema-instance" xsi:schemaLocation="http://www.topografix.com/GPX/1/1 http://www.topografix.com/GPX/1/1/gpx.xsd" version="1.1" creator="VisuGPX - https://www.visugpx.com">
  <metadata>
    <name>rando dans le beaujolais</name>
    <desc><![CDATA[23 févr. 2020 à 11:09:03

Metadata:
Nom: exp_23 févr. 2020 à 11-09-03.gpx
Auteur: Mobile User
Description: (null)

Type : [nouvelles]]]></desc>
  </metadata>
  <trk>
    <name><![CDATA[23 févr. 2020 à 11:09:03 (copie)]]></name>
    <cmt><![CDATA[23 févr. 2020 à 11:09:03]]></cmt>
    <desc><![CDATA[Metadata:
Nom: exp_23 févr. 2020 à 11-09-03.gpx
Auteur: Mobile User
Description: (null)

Type : [nouvelles]]]></desc>
    <trkseg>
      <trkpt lat="45.92631" lon="4.60479">
        <ele>433</ele>
        <time>2020-02-23T10:09:04Z</time>
      </trkpt>
      <trkpt lat="45.92631" lon="4.6048">
        <ele>433</ele>
        <time>2020-02-23T10:09:05Z</time>
      </trkpt>
      <trkpt lat="45.92636" lon="4.60488">
        <ele>435</ele>
        <time>2020-02-23T10:10:10Z</time>
      </trkpt>
      <trkpt lat="45.92646" lon="4.60489">
        <ele>434</ele>
        <time>2020-02-23T10:10:14Z</time>
      </trkpt>
      <trkpt lat="45.92666" lon="4.60466">
        <ele>437</ele>
        <time>2020-02-23T10:10:26Z</time>
      </trkpt>
      <trkpt lat="45.92673" lon="4.60462">
        <ele>438</ele>
        <time>2020-02-23T10:10:31Z</time>
      </trkpt>
      <trkpt lat="45.92696" lon="4.60469">
        <ele>439</ele>
        <time>2020-02-23T10:10:39Z</time>
      </trkpt>
      <trkpt lat="45.92713" lon="4.60489">
        <ele>439</ele>
        <time>2020-02-23T10:10:45Z</time>
      </trkpt>
      <trkpt lat="45.9272" lon="4.60494">
        <ele>438</ele>
        <time>2020-02-23T10:10:47Z</time>
      </trkpt>
      <trkpt lat="45.92761" lon="4.60555">
        <ele>435</ele>
        <time>2020-02-23T10:11:01Z</time>
      </trkpt>
      <trkpt lat="45.92772" lon="4.60565">
        <ele>434</ele>
        <time>2020-02-23T10:11:04Z</time>
      </trkpt>
      <trkpt lat="45.92824" lon="4.60635">
        <ele>438</ele>
        <time>2020-02-23T10:11:30Z</time>
      </trkpt>
      <trkpt lat="45.92862" lon="4.60677">
        <ele>447</ele>
        <time>2020-02-23T10:11:58Z</time>
      </trkpt>
      <trkpt lat="45.92866" lon="4.60701">
        <ele>449</ele>
        <time>2020-02-23T10:12:06Z</time>
      </trkpt>
      <trkpt lat="45.92829" lon="4.60857">
        <ele>441</ele>
        <time>2020-02-23T10:12:25Z</time>
      </trkpt>
      <trkpt lat="45.92821" lon="4.60873">
        <ele>441</ele>
        <time>2020-02-23T10:12:27Z</time>
      </trkpt>
      <trkpt lat="45.92801" lon="4.60949">
        <ele>438</ele>
        <time>2020-02-23T10:12:38Z</time>
      </trkpt>
      <trkpt lat="45.92777" lon="4.60943">
        <ele>437</ele>
        <time>2020-02-23T10:12:44Z</time>
      </trkpt>
      <trkpt lat="45.92764" lon="4.60938">
        <ele>433</ele>
        <time>2020-02-23T10:12:47Z</time>
      </trkpt>
      <trkpt lat="45.92754" lon="4.60953">
        <ele>429</ele>
        <time>2020-02-23T10:12:53Z</time>
      </trkpt>
      <trkpt lat="45.92749" lon="4.60974">
        <ele>429</ele>
        <time>2020-02-23T10:12:59Z</time>
      </trkpt>
      <trkpt lat="45.92734" lon="4.60979">
        <ele>429</ele>
        <time>2020-02-23T10:13:03Z</time>
      </trkpt>
      <trkpt lat="45.92717" lon="4.6097">
        <ele>427</ele>
        <time>2020-02-23T10:13:06Z</time>
      </trkpt>
      <trkpt lat="45.92706" lon="4.60975">
        <ele>424</ele>
        <time>2020-02-23T10:13:09Z</time>
      </trkpt>
      <trkpt lat="45.92659" lon="4.61105">
        <ele>420</ele>
        <time>2020-02-23T10:13:30Z</time>
      </trkpt>
      <trkpt lat="45.92665" lon="4.61121">
        <ele>419</ele>
        <time>2020-02-23T10:13:34Z</time>
      </trkpt>
      <trkpt lat="45.92714" lon="4.61171">
        <ele>423</ele>
        <time>2020-02-23T10:13:59Z</time>
      </trkpt>
      <trkpt lat="45.92734" lon="4.61171">
        <ele>425</ele>
        <time>2020-02-23T10:14:09Z</time>
      </trkpt>
      <trkpt lat="45.9274" lon="4.61164">
        <ele>426</ele>
        <time>2020-02-23T10:14:14Z</time>
      </trkpt>
      <trkpt lat="45.92746" lon="4.61152">
        <ele>427</ele>
        <time>2020-02-23T10:14:20Z</time>
      </trkpt>
      <trkpt lat="45.92749" lon="4.61136">
        <ele>430</ele>
        <time>2020-02-23T10:14:28Z</time>
      </trkpt>
      <trkpt lat="45.92752" lon="4.61121">
        <ele>431</ele>
        <time>2020-02-23T10:14:34Z</time>
      </trkpt>
      <trkpt lat="45.92762" lon="4.61112">
        <ele>433</ele>
        <time>2020-02-23T10:14:41Z</time>
      </trkpt>
      <trkpt lat="45.9283" lon="4.61095">
        <ele>444</ele>
        <time>2020-02-23T10:15:24Z</time>
      </trkpt>
      <trkpt lat="45.92846" lon="4.61089">
        <ele>446</ele>
        <time>2020-02-23T10:15:35Z</time>
      </trkpt>
      <trkpt lat="45.9289" lon="4.61029">
        <ele>455</ele>
        <time>2020-02-23T10:16:11Z</time>
      </trkpt>
      <trkpt lat="45.92917" lon="4.6097">
        <ele>463</ele>
        <time>2020-02-23T10:16:40Z</time>
      </trkpt>
      <trkpt lat="45.92921" lon="4.60956">
        <ele>465</ele>
        <time>2020-02-23T10:16:47Z</time>
      </trkpt>
      <trkpt lat="45.92937" lon="4.6093">
        <ele>468</ele>
        <time>2020-02-23T10:17:01Z</time>
      </trkpt>
      <trkpt lat="45.9296" lon="4.60912">
        <ele>472</ele>
        <time>2020-02-23T10:17:16Z</time>
      </trkpt>
      <trkpt lat="45.9297" lon="4.60901">
        <ele>474</ele>
        <time>2020-02-23T10:17:24Z</time>
      </trkpt>
      <trkpt lat="45.92976" lon="4.60889">
        <ele>476</ele>
        <time>2020-02-23T10:17:30Z</time>
      </trkpt>
      <trkpt lat="45.92983" lon="4.60883">
        <ele>478</ele>
        <time>2020-02-23T10:17:36Z</time>
      </trkpt>
      <trkpt lat="45.93006" lon="4.60821">
        <ele>487</ele>
        <time>2020-02-23T10:18:07Z</time>
      </trkpt>
      <trkpt lat="45.93036" lon="4.60752">
        <ele>496</ele>
        <time>2020-02-23T10:18:41Z</time>
      </trkpt>
      <trkpt lat="45.93072" lon="4.60657">
        <ele>504</ele>
        <time>2020-02-23T10:19:12Z</time>
      </trkpt>
      <trkpt lat="45.93108" lon="4.60555">
        <ele>504</ele>
        <time>2020-02-23T10:19:34Z</time>
      </trkpt>
      <trkpt lat="45.93123" lon="4.60516">
        <ele>508</ele>
        <time>2020-02-23T10:19:50Z</time>
      </trkpt>
      <trkpt lat="45.93131" lon="4.60504">
        <ele>509</ele>
        <time>2020-02-23T10:19:56Z</time>
      </trkpt>
      <trkpt lat="45.93155" lon="4.60432">
        <ele>514</ele>
        <time>2020-02-23T10:20:28Z</time>
      </trkpt>
      <trkpt lat="45.93198" lon="4.60387">
        <ele>518</ele>
        <time>2020-02-23T10:20:58Z</time>
      </trkpt>
      <trkpt lat="45.93208" lon="4.60371">
        <ele>519</ele>
        <time>2020-02-23T10:21:07Z</time>
      </trkpt>
      <trkpt lat="45.93217" lon="4.60364">
        <ele>520</ele>
        <time>2020-02-23T10:21:13Z</time>
      </trkpt>
      <trkpt lat="45.93225" lon="4.60353">
        <ele>520</ele>
        <time>2020-02-23T10:21:17Z</time>
      </trkpt>
      <trkpt lat="45.93245" lon="4.60341">
        <ele>519</ele>
        <time>2020-02-23T10:21:22Z</time>
      </trkpt>
      <trkpt lat="45.93442" lon="4.6028">
        <ele>513</ele>
        <time>2020-02-23T10:21:53Z</time>
      </trkpt>
      <trkpt lat="45.93518" lon="4.60263">
        <ele>515</ele>
        <time>2020-02-23T10:22:11Z</time>
      </trkpt>
      <trkpt lat="45.93666" lon="4.60256">
        <ele>515</ele>
        <time>2020-02-23T10:22:42Z</time>
      </trkpt>
      <trkpt lat="45.93724" lon="4.60247">
        <ele>512</ele>
        <time>2020-02-23T10:22:53Z</time>
      </trkpt>
      <trkpt lat="45.9397" lon="4.60146">
        <ele>506</ele>
        <time>2020-02-23T10:23:39Z</time>
      </trkpt>
      <trkpt lat="45.94031" lon="4.60124">
        <ele>503</ele>
        <time>2020-02-23T10:23:48Z</time>
      </trkpt>
      <trkpt lat="45.94141" lon="4.60031">
        <ele>507</ele>
        <time>2020-02-23T10:24:14Z</time>
      </trkpt>
      <trkpt lat="45.94184" lon="4.59993">
        <ele>514</ele>
        <time>2020-02-23T10:24:36Z</time>
      </trkpt>
      <trkpt lat="45.94233" lon="4.599">
        <ele>524</ele>
        <time>2020-02-23T10:25:08Z</time>
      </trkpt>
      <trkpt lat="45.94238" lon="4.59886">
        <ele>524</ele>
        <time>2020-02-23T10:25:12Z</time>
      </trkpt>
      <trkpt lat="45.94279" lon="4.59833">
        <ele>527</ele>
        <time>2020-02-23T10:25:33Z</time>
      </trkpt>
      <trkpt lat="45.94294" lon="4.59801">
        <ele>529</ele>
        <time>2020-02-23T10:25:44Z</time>
      </trkpt>
      <trkpt lat="45.94297" lon="4.59788">
        <ele>529</ele>
        <time>2020-02-23T10:25:48Z</time>
      </trkpt>
      <trkpt lat="45.94324" lon="4.59694">
        <ele>528</ele>
        <time>2020-02-23T10:26:15Z</time>
      </trkpt>
      <trkpt lat="45.94357" lon="4.59631">
        <ele>528</ele>
        <time>2020-02-23T10:26:31Z</time>
      </trkpt>
      <trkpt lat="45.94423" lon="4.59557">
        <ele>526</ele>
        <time>2020-02-23T10:26:49Z</time>
      </trkpt>
      <trkpt lat="45.94536" lon="4.59477">
        <ele>525</ele>
        <time>2020-02-23T10:27:17Z</time>
      </trkpt>
      <trkpt lat="45.94618" lon="4.59418">
        <ele>530</ele>
        <time>2020-02-23T10:27:53Z</time>
      </trkpt>
      <trkpt lat="45.94635" lon="4.59406">
        <ele>530</ele>
        <time>2020-02-23T10:27:59Z</time>
      </trkpt>
      <trkpt lat="45.94699" lon="4.59377">
        <ele>531</ele>
        <time>2020-02-23T10:28:23Z</time>
      </trkpt>
      <trkpt lat="45.94724" lon="4.59381">
        <ele>532</ele>
        <time>2020-02-23T10:28:31Z</time>
      </trkpt>
      <trkpt lat="45.94736" lon="4.59391">
        <ele>532</ele>
        <time>2020-02-23T10:28:35Z</time>
      </trkpt>
      <trkpt lat="45.94748" lon="4.5939">
        <ele>532</ele>
        <time>2020-02-23T10:28:39Z</time>
      </trkpt>
      <trkpt lat="45.94755" lon="4.5937">
        <ele>535</ele>
        <time>2020-02-23T10:28:45Z</time>
      </trkpt>
      <trkpt lat="45.94805" lon="4.59342">
        <ele>547</ele>
        <time>2020-02-23T10:29:11Z</time>
      </trkpt>
      <trkpt lat="45.94815" lon="4.59347">
        <ele>549</ele>
        <time>2020-02-23T10:29:16Z</time>
      </trkpt>
      <trkpt lat="45.94862" lon="4.59352">
        <ele>556</ele>
        <time>2020-02-23T10:29:36Z</time>
      </trkpt>
      <trkpt lat="45.94918" lon="4.59365">
        <ele>563</ele>
        <time>2020-02-23T10:30:03Z</time>
      </trkpt>
      <trkpt lat="45.94934" lon="4.59364">
        <ele>566</ele>
        <time>2020-02-23T10:30:11Z</time>
      </trkpt>
      <trkpt lat="45.94949" lon="4.59377">
        <ele>567</ele>
        <time>2020-02-23T10:30:18Z</time>
      </trkpt>
      <trkpt lat="45.94963" lon="4.59408">
        <ele>567</ele>
        <time>2020-02-23T10:30:24Z</time>
      </trkpt>
      <trkpt lat="45.9499" lon="4.59476">
        <ele>563</ele>
        <time>2020-02-23T10:30:32Z</time>
      </trkpt>
      <trkpt lat="45.94995" lon="4.59512">
        <ele>560</ele>
        <time>2020-02-23T10:30:35Z</time>
      </trkpt>
      <trkpt lat="45.94998" lon="4.59764">
        <ele>552</ele>
        <time>2020-02-23T10:30:59Z</time>
      </trkpt>
      <trkpt lat="45.95007" lon="4.59801">
        <ele>550</ele>
        <time>2020-02-23T10:31:03Z</time>
      </trkpt>
      <trkpt lat="45.9501" lon="4.59828">
        <ele>550</ele>
        <time>2020-02-23T10:31:06Z</time>
      </trkpt>
      <trkpt lat="45.95012" lon="4.60015">
        <ele>553</ele>
        <time>2020-02-23T10:31:38Z</time>
      </trkpt>
      <trkpt lat="45.95013" lon="4.60036">
        <ele>554</ele>
        <time>2020-02-23T10:31:47Z</time>
      </trkpt>
      <trkpt lat="45.94995" lon="4.60135">
        <ele>557</ele>
        <time>2020-02-23T10:32:12Z</time>
      </trkpt>
      <trkpt lat="45.95004" lon="4.60153">
        <ele>558</ele>
        <time>2020-02-23T10:32:19Z</time>
      </trkpt>
      <trkpt lat="45.95022" lon="4.60248">
        <ele>573</ele>
        <time>2020-02-23T10:32:52Z</time>
      </trkpt>
      <trkpt lat="45.95032" lon="4.60258">
        <ele>574</ele>
        <time>2020-02-23T10:32:56Z</time>
      </trkpt>
      <trkpt lat="45.95081" lon="4.60226">
        <ele>576</ele>
        <time>2020-02-23T10:33:14Z</time>
      </trkpt>
      <trkpt lat="45.95092" lon="4.60223">
        <ele>577</ele>
        <time>2020-02-23T10:33:18Z</time>
      </trkpt>
      <trkpt lat="45.95128" lon="4.60154">
        <ele>587</ele>
        <time>2020-02-23T10:33:48Z</time>
      </trkpt>
      <trkpt lat="45.95171" lon="4.60088">
        <ele>599</ele>
        <time>2020-02-23T10:34:20Z</time>
      </trkpt>
      <trkpt lat="45.95177" lon="4.60076">
        <ele>602</ele>
        <time>2020-02-23T10:34:38Z</time>
      </trkpt>
      <trkpt lat="45.9518" lon="4.60062">
        <ele>604</ele>
        <time>2020-02-23T10:35:00Z</time>
      </trkpt>
      <trkpt lat="45.9522" lon="4.59984">
        <ele>617</ele>
        <time>2020-02-23T10:35:29Z</time>
      </trkpt>
      <trkpt lat="45.95226" lon="4.59949">
        <ele>622</ele>
        <time>2020-02-23T10:35:43Z</time>
      </trkpt>
      <trkpt lat="45.95263" lon="4.59827">
        <ele>635</ele>
        <time>2020-02-23T10:36:29Z</time>
      </trkpt>
      <trkpt lat="45.95267" lon="4.59805">
        <ele>636</ele>
        <time>2020-02-23T10:36:35Z</time>
      </trkpt>
      <trkpt lat="45.95301" lon="4.59711">
        <ele>642</ele>
        <time>2020-02-23T10:37:05Z</time>
      </trkpt>
      <trkpt lat="45.95307" lon="4.59693">
        <ele>642</ele>
        <time>2020-02-23T10:37:11Z</time>
      </trkpt>
      <trkpt lat="45.95314" lon="4.59682">
        <ele>643</ele>
        <time>2020-02-23T10:37:15Z</time>
      </trkpt>
      <trkpt lat="45.9537" lon="4.59566">
        <ele>645</ele>
        <time>2020-02-23T10:37:49Z</time>
      </trkpt>
      <trkpt lat="45.95403" lon="4.59509">
        <ele>647</ele>
        <time>2020-02-23T10:38:02Z</time>
      </trkpt>
      <trkpt lat="45.95483" lon="4.59431">
        <ele>650</ele>
        <time>2020-02-23T10:38:27Z</time>
      </trkpt>
      <trkpt lat="45.95492" lon="4.59422">
        <ele>649</ele>
        <time>2020-02-23T10:38:33Z</time>
      </trkpt>
      <trkpt lat="45.95498" lon="4.59415">
        <ele>649</ele>
        <time>2020-02-23T10:38:45Z</time>
      </trkpt>
      <trkpt lat="45.95561" lon="4.59366">
        <ele>647</ele>
        <time>2020-02-23T10:39:00Z</time>
      </trkpt>
      <trkpt lat="45.95744" lon="4.59279">
        <ele>639</ele>
        <time>2020-02-23T10:39:30Z</time>
      </trkpt>
      <trkpt lat="45.95769" lon="4.59262">
        <ele>637</ele>
        <time>2020-02-23T10:39:34Z</time>
      </trkpt>
      <trkpt lat="45.9589" lon="4.5921">
        <ele>633</ele>
        <time>2020-02-23T10:39:55Z</time>
      </trkpt>
      <trkpt lat="45.95923" lon="4.59171">
        <ele>632</ele>
        <time>2020-02-23T10:40:01Z</time>
      </trkpt>
      <trkpt lat="45.95935" lon="4.59161">
        <ele>630</ele>
        <time>2020-02-23T10:40:03Z</time>
      </trkpt>
      <trkpt lat="45.9606" lon="4.59078">
        <ele>625</ele>
        <time>2020-02-23T10:40:23Z</time>
      </trkpt>
      <trkpt lat="45.9608" lon="4.59054">
        <ele>623</ele>
        <time>2020-02-23T10:40:28Z</time>
      </trkpt>
      <trkpt lat="45.96091" lon="4.59039">
        <ele>623</ele>
        <time>2020-02-23T10:40:30Z</time>
      </trkpt>
      <trkpt lat="45.961" lon="4.59025">
        <ele>621</ele>
        <time>2020-02-23T10:40:32Z</time>
      </trkpt>
      <trkpt lat="45.96133" lon="4.59007">
        <ele>616</ele>
        <time>2020-02-23T10:40:37Z</time>
      </trkpt>
      <trkpt lat="45.9614" lon="4.59002">
        <ele>615</ele>
        <time>2020-02-23T10:40:38Z</time>
      </trkpt>
      <trkpt lat="45.96148" lon="4.58987">
        <ele>612</ele>
        <time>2020-02-23T10:40:40Z</time>
      </trkpt>
      <trkpt lat="45.9615" lon="4.58971">
        <ele>610</ele>
        <time>2020-02-23T10:40:42Z</time>
      </trkpt>
      <trkpt lat="45.96153" lon="4.58961">
        <ele>610</ele>
        <time>2020-02-23T10:40:44Z</time>
      </trkpt>
      <trkpt lat="45.96173" lon="4.58961">
        <ele>606</ele>
        <time>2020-02-23T10:40:49Z</time>
      </trkpt>
      <trkpt lat="45.962" lon="4.58954">
        <ele>607</ele>
        <time>2020-02-23T10:40:56Z</time>
      </trkpt>
      <trkpt lat="45.96259" lon="4.58919">
        <ele>608</ele>
        <time>2020-02-23T10:41:12Z</time>
      </trkpt>
      <trkpt lat="45.96356" lon="4.58883">
        <ele>606</ele>
        <time>2020-02-23T10:41:29Z</time>
      </trkpt>
      <trkpt lat="45.9659" lon="4.58876">
        <ele>604</ele>
        <time>2020-02-23T10:42:11Z</time>
      </trkpt>
      <trkpt lat="45.96601" lon="4.58875">
        <ele>603</ele>
        <time>2020-02-23T10:42:13Z</time>
      </trkpt>
      <trkpt lat="45.96614" lon="4.58872">
        <ele>603</ele>
        <time>2020-02-23T10:42:15Z</time>
      </trkpt>
      <trkpt lat="45.96725" lon="4.5881">
        <ele>595</ele>
        <time>2020-02-23T10:42:31Z</time>
      </trkpt>
      <trkpt lat="45.9694" lon="4.58675">
        <ele>591</ele>
        <time>2020-02-23T10:43:09Z</time>
      </trkpt>
      <trkpt lat="45.96956" lon="4.58669">
        <ele>590</ele>
        <time>2020-02-23T10:43:13Z</time>
      </trkpt>
      <trkpt lat="45.97046" lon="4.58571">
        <ele>592</ele>
        <time>2020-02-23T10:43:46Z</time>
      </trkpt>
      <trkpt lat="45.97067" lon="4.58521">
        <ele>595</ele>
        <time>2020-02-23T10:44:00Z</time>
      </trkpt>
      <trkpt lat="45.97133" lon="4.58449">
        <ele>599</ele>
        <time>2020-02-23T10:44:30Z</time>
      </trkpt>
      <trkpt lat="45.97146" lon="4.58437">
        <ele>600</ele>
        <time>2020-02-23T10:44:36Z</time>
      </trkpt>
      <trkpt lat="45.97237" lon="4.58406">
        <ele>598</ele>
        <time>2020-02-23T10:44:59Z</time>
      </trkpt>
      <trkpt lat="45.97246" lon="4.58406">
        <ele>598</ele>
        <time>2020-02-23T10:45:01Z</time>
      </trkpt>
      <trkpt lat="45.97311" lon="4.58388">
        <ele>594</ele>
        <time>2020-02-23T10:45:14Z</time>
      </trkpt>
      <trkpt lat="45.97337" lon="4.58362">
        <ele>592</ele>
        <time>2020-02-23T10:45:19Z</time>
      </trkpt>
      <trkpt lat="45.97413" lon="4.58369">
        <ele>588</ele>
        <time>2020-02-23T10:45:29Z</time>
      </trkpt>
      <trkpt lat="45.97426" lon="4.58378">
        <ele>587</ele>
        <time>2020-02-23T10:45:31Z</time>
      </trkpt>
      <trkpt lat="45.97465" lon="4.58388">
        <ele>584</ele>
        <time>2020-02-23T10:45:36Z</time>
      </trkpt>
      <trkpt lat="45.97472" lon="4.58389">
        <ele>584</ele>
        <time>2020-02-23T10:45:37Z</time>
      </trkpt>
      <trkpt lat="45.97536" lon="4.58403">
        <ele>577</ele>
        <time>2020-02-23T10:45:45Z</time>
      </trkpt>
      <trkpt lat="45.97708" lon="4.58387">
        <ele>561</ele>
        <time>2020-02-23T10:46:09Z</time>
      </trkpt>
      <trkpt lat="45.97747" lon="4.58342">
        <ele>556</ele>
        <time>2020-02-23T10:46:16Z</time>
      </trkpt>
      <trkpt lat="45.9776" lon="4.58334">
        <ele>555</ele>
        <time>2020-02-23T10:46:18Z</time>
      </trkpt>
      <trkpt lat="45.97775" lon="4.58334">
        <ele>554</ele>
        <time>2020-02-23T10:46:20Z</time>
      </trkpt>
      <trkpt lat="45.97794" lon="4.58342">
        <ele>553</ele>
        <time>2020-02-23T10:46:23Z</time>
      </trkpt>
      <trkpt lat="45.97807" lon="4.58345">
        <ele>551</ele>
        <time>2020-02-23T10:47:46Z</time>
      </trkpt>
      <trkpt lat="45.97826" lon="4.58348">
        <ele>551</ele>
        <time>2020-02-23T10:47:52Z</time>
      </trkpt>
      <trkpt lat="45.9786" lon="4.58294">
        <ele>552</ele>
        <time>2020-02-23T10:48:04Z</time>
      </trkpt>
      <trkpt lat="45.97934" lon="4.58244">
        <ele>555</ele>
        <time>2020-02-23T10:48:34Z</time>
      </trkpt>
      <trkpt lat="45.98023" lon="4.58237">
        <ele>562</ele>
        <time>2020-02-23T10:49:04Z</time>
      </trkpt>
      <trkpt lat="45.98034" lon="4.58236">
        <ele>563</ele>
        <time>2020-02-23T10:49:08Z</time>
      </trkpt>
      <trkpt lat="45.98039" lon="4.58221">
        <ele>564</ele>
        <time>2020-02-23T10:49:13Z</time>
      </trkpt>
      <trkpt lat="45.98012" lon="4.58209">
        <ele>566</ele>
        <time>2020-02-23T10:49:24Z</time>
      </trkpt>
      <trkpt lat="45.98015" lon="4.58197">
        <ele>567</ele>
        <time>2020-02-23T10:49:28Z</time>
      </trkpt>
      <trkpt lat="45.98037" lon="4.58196">
        <ele>570</ele>
        <time>2020-02-23T10:49:36Z</time>
      </trkpt>
      <trkpt lat="45.98104" lon="4.58143">
        <ele>577</ele>
        <time>2020-02-23T10:50:13Z</time>
      </trkpt>
      <trkpt lat="45.98142" lon="4.58124">
        <ele>581</ele>
        <time>2020-02-23T10:50:33Z</time>
      </trkpt>
      <trkpt lat="45.98153" lon="4.58119">
        <ele>584</ele>
        <time>2020-02-23T10:50:40Z</time>
      </trkpt>
      <trkpt lat="45.98224" lon="4.58099">
        <ele>595</ele>
        <time>2020-02-23T10:51:25Z</time>
      </trkpt>
      <trkpt lat="45.9823" lon="4.58087">
        <ele>597</ele>
        <time>2020-02-23T10:51:33Z</time>
      </trkpt>
      <trkpt lat="45.9824" lon="4.58086">
        <ele>597</ele>
        <time>2020-02-23T10:52:19Z</time>
      </trkpt>
      <trkpt lat="45.98299" lon="4.58023">
        <ele>605</ele>
        <time>2020-02-23T10:52:54Z</time>
      </trkpt>
      <trkpt lat="45.98313" lon="4.58006">
        <ele>607</ele>
        <time>2020-02-23T10:53:02Z</time>
      </trkpt>
      <trkpt lat="45.98331" lon="4.57939">
        <ele>613</ele>
        <time>2020-02-23T10:53:21Z</time>
      </trkpt>
      <trkpt lat="45.98376" lon="4.57856">
        <ele>617</ele>
        <time>2020-02-23T10:53:49Z</time>
      </trkpt>
      <trkpt lat="45.9838" lon="4.57832">
        <ele>621</ele>
        <time>2020-02-23T10:54:01Z</time>
      </trkpt>
      <trkpt lat="45.98431" lon="4.57756">
        <ele>628</ele>
        <time>2020-02-23T10:54:39Z</time>
      </trkpt>
      <trkpt lat="45.98475" lon="4.57664">
        <ele>639</ele>
        <time>2020-02-23T10:55:13Z</time>
      </trkpt>
      <trkpt lat="45.9849" lon="4.5764">
        <ele>643</ele>
        <time>2020-02-23T10:55:25Z</time>
      </trkpt>
      <trkpt lat="45.98502" lon="4.57612">
        <ele>648</ele>
        <time>2020-02-23T10:55:38Z</time>
      </trkpt>
      <trkpt lat="45.98514" lon="4.576">
        <ele>650</ele>
        <time>2020-02-23T10:55:45Z</time>
      </trkpt>
      <trkpt lat="45.98515" lon="4.57585">
        <ele>651</ele>
        <time>2020-02-23T10:55:51Z</time>
      </trkpt>
      <trkpt lat="45.9852" lon="4.57567">
        <ele>653</ele>
        <time>2020-02-23T10:56:00Z</time>
      </trkpt>
      <trkpt lat="45.98517" lon="4.57552">
        <ele>653</ele>
        <time>2020-02-23T10:56:04Z</time>
      </trkpt>
      <trkpt lat="45.9852" lon="4.57491">
        <ele>650</ele>
        <time>2020-02-23T10:56:13Z</time>
      </trkpt>
      <trkpt lat="45.98518" lon="4.57481">
        <ele>650</ele>
        <time>2020-02-23T10:56:15Z</time>
      </trkpt>
      <trkpt lat="45.98513" lon="4.57469">
        <ele>650</ele>
        <time>2020-02-23T10:56:18Z</time>
      </trkpt>
      <trkpt lat="45.98532" lon="4.5738">
        <ele>648</ele>
        <time>2020-02-23T10:56:38Z</time>
      </trkpt>
      <trkpt lat="45.98542" lon="4.57348">
        <ele>650</ele>
        <time>2020-02-23T10:56:49Z</time>
      </trkpt>
      <trkpt lat="45.98559" lon="4.57331">
        <ele>650</ele>
        <time>2020-02-23T10:57:15Z</time>
      </trkpt>
      <trkpt lat="45.98562" lon="4.57318">
        <ele>649</ele>
        <time>2020-02-23T10:57:20Z</time>
      </trkpt>
      <trkpt lat="45.98585" lon="4.57283">
        <ele>651</ele>
        <time>2020-02-23T10:57:34Z</time>
      </trkpt>
      <trkpt lat="45.98597" lon="4.57275">
        <ele>652</ele>
        <time>2020-02-23T10:57:40Z</time>
      </trkpt>
      <trkpt lat="45.98639" lon="4.57275">
        <ele>655</ele>
        <time>2020-02-23T10:57:55Z</time>
      </trkpt>
      <trkpt lat="45.98674" lon="4.57261">
        <ele>658</ele>
        <time>2020-02-23T10:58:12Z</time>
      </trkpt>
      <trkpt lat="45.98683" lon="4.57252">
        <ele>660</ele>
        <time>2020-02-23T10:58:19Z</time>
      </trkpt>
      <trkpt lat="45.98729" lon="4.57254">
        <ele>664</ele>
        <time>2020-02-23T10:58:41Z</time>
      </trkpt>
      <trkpt lat="45.98753" lon="4.57242">
        <ele>666</ele>
        <time>2020-02-23T10:58:52Z</time>
      </trkpt>
      <trkpt lat="45.98756" lon="4.57232">
        <ele>667</ele>
        <time>2020-02-23T10:58:58Z</time>
      </trkpt>
      <trkpt lat="45.98754" lon="4.57216">
        <ele>668</ele>
        <time>2020-02-23T10:59:04Z</time>
      </trkpt>
      <trkpt lat="45.98747" lon="4.57195">
        <ele>671</ele>
        <time>2020-02-23T10:59:13Z</time>
      </trkpt>
      <trkpt lat="45.98698" lon="4.5708">
        <ele>678</ele>
        <time>2020-02-23T10:59:52Z</time>
      </trkpt>
      <trkpt lat="45.98678" lon="4.57">
        <ele>675</ele>
        <time>2020-02-23T11:00:08Z</time>
      </trkpt>
      <trkpt lat="45.98678" lon="4.56985">
        <ele>675</ele>
        <time>2020-02-23T11:00:12Z</time>
      </trkpt>
      <trkpt lat="45.98671" lon="4.5692">
        <ele>678</ele>
        <time>2020-02-23T11:00:26Z</time>
      </trkpt>
      <trkpt lat="45.98706" lon="4.5685">
        <ele>682</ele>
        <time>2020-02-23T11:00:45Z</time>
      </trkpt>
      <trkpt lat="45.98723" lon="4.56773">
        <ele>687</ele>
        <time>2020-02-23T11:01:01Z</time>
      </trkpt>
      <trkpt lat="45.98727" lon="4.56763">
        <ele>687</ele>
        <time>2020-02-23T11:01:03Z</time>
      </trkpt>
      <trkpt lat="45.98731" lon="4.56742">
        <ele>687</ele>
        <time>2020-02-23T11:01:06Z</time>
      </trkpt>
      <trkpt lat="45.9874" lon="4.56719">
        <ele>685</ele>
        <time>2020-02-23T11:01:10Z</time>
      </trkpt>
      <trkpt lat="45.98753" lon="4.56709">
        <ele>684</ele>
        <time>2020-02-23T11:01:13Z</time>
      </trkpt>
      <trkpt lat="45.98761" lon="4.56705">
        <ele>684</ele>
        <time>2020-02-23T11:01:15Z</time>
      </trkpt>
      <trkpt lat="45.98772" lon="4.567">
        <ele>685</ele>
        <time>2020-02-23T11:01:19Z</time>
      </trkpt>
      <trkpt lat="45.98812" lon="4.56672">
        <ele>688</ele>
        <time>2020-02-23T11:01:37Z</time>
      </trkpt>
      <trkpt lat="45.98851" lon="4.56603">
        <ele>694</ele>
        <time>2020-02-23T11:02:05Z</time>
      </trkpt>
      <trkpt lat="45.98863" lon="4.566">
        <ele>696</ele>
        <time>2020-02-23T11:02:12Z</time>
      </trkpt>
      <trkpt lat="45.98873" lon="4.56605">
        <ele>698</ele>
        <time>2020-02-23T11:02:23Z</time>
      </trkpt>
      <trkpt lat="45.98884" lon="4.56599">
        <ele>700</ele>
        <time>2020-02-23T11:02:29Z</time>
      </trkpt>
      <trkpt lat="45.98885" lon="4.56565">
        <ele>705</ele>
        <time>2020-02-23T11:02:50Z</time>
      </trkpt>
      <trkpt lat="45.98893" lon="4.56543">
        <ele>706</ele>
        <time>2020-02-23T11:03:00Z</time>
      </trkpt>
      <trkpt lat="45.98913" lon="4.56526">
        <ele>708</ele>
        <time>2020-02-23T11:03:10Z</time>
      </trkpt>
      <trkpt lat="45.98943" lon="4.56482">
        <ele>713</ele>
        <time>2020-02-23T11:03:34Z</time>
      </trkpt>
      <trkpt lat="45.98954" lon="4.56473">
        <ele>715</ele>
        <time>2020-02-23T11:03:40Z</time>
      </trkpt>
      <trkpt lat="45.98971" lon="4.56465">
        <ele>718</ele>
        <time>2020-02-23T11:03:50Z</time>
      </trkpt>
      <trkpt lat="45.98983" lon="4.56464">
        <ele>719</ele>
        <time>2020-02-23T11:03:56Z</time>
      </trkpt>
      <trkpt lat="45.99006" lon="4.56441">
        <ele>722</ele>
        <time>2020-02-23T11:04:11Z</time>
      </trkpt>
      <trkpt lat="45.99017" lon="4.56423">
        <ele>722</ele>
        <time>2020-02-23T11:04:17Z</time>
      </trkpt>
      <trkpt lat="45.99029" lon="4.56407">
        <ele>723</ele>
        <time>2020-02-23T11:04:24Z</time>
      </trkpt>
      <trkpt lat="45.99036" lon="4.56393">
        <ele>723</ele>
        <time>2020-02-23T11:04:28Z</time>
      </trkpt>
      <trkpt lat="45.99041" lon="4.56382">
        <ele>724</ele>
        <time>2020-02-23T11:04:33Z</time>
      </trkpt>
      <trkpt lat="45.99056" lon="4.56366">
        <ele>726</ele>
        <time>2020-02-23T11:04:42Z</time>
      </trkpt>
      <trkpt lat="45.99069" lon="4.56358">
        <ele>728</ele>
        <time>2020-02-23T11:04:49Z</time>
      </trkpt>
      <trkpt lat="45.99092" lon="4.56345">
        <ele>729</ele>
        <time>2020-02-23T11:04:57Z</time>
      </trkpt>
      <trkpt lat="45.99141" lon="4.5634">
        <ele>735</ele>
        <time>2020-02-23T11:05:19Z</time>
      </trkpt>
      <trkpt lat="45.99211" lon="4.56285">
        <ele>745</ele>
        <time>2020-02-23T11:05:54Z</time>
      </trkpt>
      <trkpt lat="45.99221" lon="4.56276">
        <ele>746</ele>
        <time>2020-02-23T11:05:59Z</time>
      </trkpt>
      <trkpt lat="45.99228" lon="4.56266">
        <ele>746</ele>
        <time>2020-02-23T11:06:03Z</time>
      </trkpt>
      <trkpt lat="45.99252" lon="4.56245">
        <ele>748</ele>
        <time>2020-02-23T11:06:16Z</time>
      </trkpt>
      <trkpt lat="45.99263" lon="4.56241">
        <ele>748</ele>
        <time>2020-02-23T11:06:20Z</time>
      </trkpt>
      <trkpt lat="45.9929" lon="4.56218">
        <ele>747</ele>
        <time>2020-02-23T11:06:28Z</time>
      </trkpt>
      <trkpt lat="45.993" lon="4.56216">
        <ele>747</ele>
        <time>2020-02-23T11:06:30Z</time>
      </trkpt>
      <trkpt lat="45.9931" lon="4.56212">
        <ele>746</ele>
        <time>2020-02-23T11:06:32Z</time>
      </trkpt>
      <trkpt lat="45.99383" lon="4.56203">
        <ele>745</ele>
        <time>2020-02-23T11:06:49Z</time>
      </trkpt>
      <trkpt lat="45.99481" lon="4.56225">
        <ele>748</ele>
        <time>2020-02-23T11:07:21Z</time>
      </trkpt>
      <trkpt lat="45.99494" lon="4.56222">
        <ele>749</ele>
        <time>2020-02-23T11:07:27Z</time>
      </trkpt>
      <trkpt lat="45.99499" lon="4.56215">
        <ele>749</ele>
        <time>2020-02-23T11:07:30Z</time>
      </trkpt>
      <trkpt lat="45.99508" lon="4.56206">
        <ele>750</ele>
        <time>2020-02-23T11:07:34Z</time>
      </trkpt>
      <trkpt lat="45.99562" lon="4.56172">
        <ele>759</ele>
        <time>2020-02-23T11:08:07Z</time>
      </trkpt>
      <trkpt lat="45.99604" lon="4.56145">
        <ele>765</ele>
        <time>2020-02-23T11:08:33Z</time>
      </trkpt>
      <trkpt lat="45.99653" lon="4.56088">
        <ele>771</ele>
        <time>2020-02-23T11:09:03Z</time>
      </trkpt>
      <trkpt lat="45.99692" lon="4.56038">
        <ele>778</ele>
        <time>2020-02-23T11:09:25Z</time>
      </trkpt>
      <trkpt lat="45.99723" lon="4.55978">
        <ele>781</ele>
        <time>2020-02-23T11:09:43Z</time>
      </trkpt>
      <trkpt lat="45.99732" lon="4.55939">
        <ele>784</ele>
        <time>2020-02-23T11:09:53Z</time>
      </trkpt>
      <trkpt lat="45.99742" lon="4.55918">
        <ele>784</ele>
        <time>2020-02-23T11:09:59Z</time>
      </trkpt>
      <trkpt lat="45.99747" lon="4.559">
        <ele>785</ele>
        <time>2020-02-23T11:10:03Z</time>
      </trkpt>
      <trkpt lat="45.99827" lon="4.55758">
        <ele>780</ele>
        <time>2020-02-23T11:10:31Z</time>
      </trkpt>
      <trkpt lat="45.99835" lon="4.55749">
        <ele>781</ele>
        <time>2020-02-23T11:10:35Z</time>
      </trkpt>
      <trkpt lat="45.99847" lon="4.55736">
        <ele>781</ele>
        <time>2020-02-23T11:10:42Z</time>
      </trkpt>
      <trkpt lat="45.9985" lon="4.55723">
        <ele>781</ele>
        <time>2020-02-23T11:10:47Z</time>
      </trkpt>
      <trkpt lat="45.99874" lon="4.55686">
        <ele>782</ele>
        <time>2020-02-23T11:11:03Z</time>
      </trkpt>
      <trkpt lat="45.99913" lon="4.55599">
        <ele>788</ele>
        <time>2020-02-23T11:11:37Z</time>
      </trkpt>
      <trkpt lat="45.99959" lon="4.55561">
        <ele>795</ele>
        <time>2020-02-23T11:12:15Z</time>
      </trkpt>
      <trkpt lat="45.99982" lon="4.55531">
        <ele>799</ele>
        <time>2020-02-23T11:12:50Z</time>
      </trkpt>
      <trkpt lat="45.99995" lon="4.55529">
        <ele>800</ele>
        <time>2020-02-23T11:12:57Z</time>
      </trkpt>
      <trkpt lat="46.00008" lon="4.55524">
        <ele>805</ele>
        <time>2020-02-23T11:13:07Z</time>
      </trkpt>
      <trkpt lat="46.00018" lon="4.55537">
        <ele>808</ele>
        <time>2020-02-23T11:13:14Z</time>
      </trkpt>
      <trkpt lat="46.00024" lon="4.55544">
        <ele>808</ele>
        <time>2020-02-23T11:13:18Z</time>
      </trkpt>
      <trkpt lat="46.00035" lon="4.55549">
        <ele>810</ele>
        <time>2020-02-23T11:13:23Z</time>
      </trkpt>
      <trkpt lat="46.00047" lon="4.5555">
        <ele>812</ele>
        <time>2020-02-23T11:13:36Z</time>
      </trkpt>
      <trkpt lat="46.00052" lon="4.55539">
        <ele>814</ele>
        <time>2020-02-23T11:13:43Z</time>
      </trkpt>
      <trkpt lat="46.00055" lon="4.55527">
        <ele>816</ele>
        <time>2020-02-23T11:13:55Z</time>
      </trkpt>
      <trkpt lat="46.00067" lon="4.55518">
        <ele>819</ele>
        <time>2020-02-23T11:14:02Z</time>
      </trkpt>
      <trkpt lat="46.00077" lon="4.55505">
        <ele>823</ele>
        <time>2020-02-23T11:14:17Z</time>
      </trkpt>
      <trkpt lat="46.00087" lon="4.55486">
        <ele>825</ele>
        <time>2020-02-23T11:14:23Z</time>
      </trkpt>
      <trkpt lat="46.00096" lon="4.55478">
        <ele>827</ele>
        <time>2020-02-23T11:14:30Z</time>
      </trkpt>
      <trkpt lat="46.001" lon="4.55468">
        <ele>829</ele>
        <time>2020-02-23T11:14:49Z</time>
      </trkpt>
      <trkpt lat="46.00114" lon="4.55464">
        <ele>832</ele>
        <time>2020-02-23T11:15:31Z</time>
      </trkpt>
      <trkpt lat="46.00128" lon="4.55458">
        <ele>835</ele>
        <time>2020-02-23T11:16:15Z</time>
      </trkpt>
      <trkpt lat="46.00136" lon="4.5545">
        <ele>837</ele>
        <time>2020-02-23T11:16:30Z</time>
      </trkpt>
      <trkpt lat="46.0015" lon="4.55444">
        <ele>841</ele>
        <time>2020-02-23T11:18:26Z</time>
      </trkpt>
      <trkpt lat="46.00161" lon="4.55416">
        <ele>846</ele>
        <time>2020-02-23T11:19:04Z</time>
      </trkpt>
      <trkpt lat="46.0018" lon="4.55394">
        <ele>849</ele>
        <time>2020-02-23T11:19:38Z</time>
      </trkpt>
      <trkpt lat="46.00185" lon="4.55381">
        <ele>852</ele>
        <time>2020-02-23T11:19:52Z</time>
      </trkpt>
      <trkpt lat="46.00202" lon="4.55353">
        <ele>855</ele>
        <time>2020-02-23T11:20:04Z</time>
      </trkpt>
      <trkpt lat="46.00212" lon="4.55325">
        <ele>857</ele>
        <time>2020-02-23T11:20:12Z</time>
      </trkpt>
      <trkpt lat="46.00211" lon="4.55315">
        <ele>857</ele>
        <time>2020-02-23T11:20:14Z</time>
      </trkpt>
      <trkpt lat="46.0021" lon="4.55304">
        <ele>856</ele>
        <time>2020-02-23T11:20:16Z</time>
      </trkpt>
      <trkpt lat="46.00217" lon="4.55279">
        <ele>855</ele>
        <time>2020-02-23T11:20:19Z</time>
      </trkpt>
      <trkpt lat="46.00239" lon="4.55235">
        <ele>853</ele>
        <time>2020-02-23T11:20:32Z</time>
      </trkpt>
      <trkpt lat="46.00265" lon="4.55148">
        <ele>853</ele>
        <time>2020-02-23T11:20:50Z</time>
      </trkpt>
      <trkpt lat="46.00274" lon="4.55112">
        <ele>850</ele>
        <time>2020-02-23T11:20:58Z</time>
      </trkpt>
      <trkpt lat="46.00277" lon="4.5507">
        <ele>849</ele>
        <time>2020-02-23T11:21:04Z</time>
      </trkpt>
      <trkpt lat="46.003" lon="4.55013">
        <ele>848</ele>
        <time>2020-02-23T11:21:16Z</time>
      </trkpt>
      <trkpt lat="46.00303" lon="4.54995">
        <ele>848</ele>
        <time>2020-02-23T11:21:20Z</time>
      </trkpt>
      <trkpt lat="46.00339" lon="4.54946">
        <ele>846</ele>
        <time>2020-02-23T11:21:30Z</time>
      </trkpt>
      <trkpt lat="46.00351" lon="4.54937">
        <ele>845</ele>
        <time>2020-02-23T11:21:34Z</time>
      </trkpt>
      <trkpt lat="46.00362" lon="4.54934">
        <ele>846</ele>
        <time>2020-02-23T11:21:38Z</time>
      </trkpt>
      <trkpt lat="46.00386" lon="4.5491">
        <ele>847</ele>
        <time>2020-02-23T11:21:48Z</time>
      </trkpt>
      <trkpt lat="46.00413" lon="4.54866">
        <ele>850</ele>
        <time>2020-02-23T11:22:06Z</time>
      </trkpt>
      <trkpt lat="46.00432" lon="4.5485">
        <ele>852</ele>
        <time>2020-02-23T11:22:15Z</time>
      </trkpt>
      <trkpt lat="46.00482" lon="4.54836">
        <ele>852</ele>
        <time>2020-02-23T11:22:31Z</time>
      </trkpt>
      <trkpt lat="46.00545" lon="4.54809">
        <ele>857</ele>
        <time>2020-02-23T11:22:55Z</time>
      </trkpt>
      <trkpt lat="46.0063" lon="4.54818">
        <ele>867</ele>
        <time>2020-02-23T11:23:32Z</time>
      </trkpt>
      <trkpt lat="46.00652" lon="4.54823">
        <ele>867</ele>
        <time>2020-02-23T11:23:40Z</time>
      </trkpt>
      <trkpt lat="46.00666" lon="4.5483">
        <ele>866</ele>
        <time>2020-02-23T11:23:43Z</time>
      </trkpt>
      <trkpt lat="46.00681" lon="4.54843">
        <ele>865</ele>
        <time>2020-02-23T11:23:46Z</time>
      </trkpt>
      <trkpt lat="46.00704" lon="4.54877">
        <ele>863</ele>
        <time>2020-02-23T11:23:51Z</time>
      </trkpt>
      <trkpt lat="46.0073" lon="4.54894">
        <ele>863</ele>
        <time>2020-02-23T11:23:57Z</time>
      </trkpt>
      <trkpt lat="46.00799" lon="4.54932">
        <ele>856</ele>
        <time>2020-02-23T11:24:15Z</time>
      </trkpt>
      <trkpt lat="46.00827" lon="4.54973">
        <ele>856</ele>
        <time>2020-02-23T11:24:24Z</time>
      </trkpt>
      <trkpt lat="46.00844" lon="4.54998">
        <ele>858</ele>
        <time>2020-02-23T11:24:33Z</time>
      </trkpt>
      <trkpt lat="46.00863" lon="4.55012">
        <ele>860</ele>
        <time>2020-02-23T11:24:43Z</time>
      </trkpt>
      <trkpt lat="46.00872" lon="4.55017">
        <ele>860</ele>
        <time>2020-02-23T11:24:47Z</time>
      </trkpt>
      <trkpt lat="46.00897" lon="4.55048">
        <ele>861</ele>
        <time>2020-02-23T11:24:57Z</time>
      </trkpt>
      <trkpt lat="46.00905" lon="4.55062">
        <ele>859</ele>
        <time>2020-02-23T11:25:00Z</time>
      </trkpt>
      <trkpt lat="46.00912" lon="4.55068">
        <ele>858</ele>
        <time>2020-02-23T11:25:02Z</time>
      </trkpt>
      <trkpt lat="46.00977" lon="4.55094">
        <ele>840</ele>
        <time>2020-02-23T11:25:23Z</time>
      </trkpt>
      <trkpt lat="46.00995" lon="4.55094">
        <ele>837</ele>
        <time>2020-02-23T11:25:26Z</time>
      </trkpt>
      <trkpt lat="46.01036" lon="4.55111">
        <ele>829</ele>
        <time>2020-02-23T11:25:32Z</time>
      </trkpt>
      <trkpt lat="46.01048" lon="4.55111">
        <ele>827</ele>
        <time>2020-02-23T11:25:34Z</time>
      </trkpt>
      <trkpt lat="46.01058" lon="4.55108">
        <ele>826</ele>
        <time>2020-02-23T11:25:38Z</time>
      </trkpt>
      <trkpt lat="46.01099" lon="4.55132">
        <ele>830</ele>
        <time>2020-02-23T11:25:59Z</time>
      </trkpt>
      <trkpt lat="46.01178" lon="4.55131">
        <ele>838</ele>
        <time>2020-02-23T11:26:35Z</time>
      </trkpt>
      <trkpt lat="46.01306" lon="4.55116">
        <ele>832</ele>
        <time>2020-02-23T11:27:05Z</time>
      </trkpt>
      <trkpt lat="46.01359" lon="4.55103">
        <ele>829</ele>
        <time>2020-02-23T11:27:21Z</time>
      </trkpt>
      <trkpt lat="46.01406" lon="4.55065">
        <ele>825</ele>
        <time>2020-02-23T11:27:33Z</time>
      </trkpt>
      <trkpt lat="46.01436" lon="4.55057">
        <ele>822</ele>
        <time>2020-02-23T11:27:38Z</time>
      </trkpt>
      <trkpt lat="46.01445" lon="4.55064">
        <ele>820</ele>
        <time>2020-02-23T11:27:40Z</time>
      </trkpt>
      <trkpt lat="46.01471" lon="4.55096">
        <ele>817</ele>
        <time>2020-02-23T11:27:46Z</time>
      </trkpt>
      <trkpt lat="46.01504" lon="4.55107">
        <ele>813</ele>
        <time>2020-02-23T11:27:52Z</time>
      </trkpt>
      <trkpt lat="46.01545" lon="4.55106">
        <ele>810</ele>
        <time>2020-02-23T11:27:58Z</time>
      </trkpt>
      <trkpt lat="46.01562" lon="4.55111">
        <ele>808</ele>
        <time>2020-02-23T11:28:00Z</time>
      </trkpt>
      <trkpt lat="46.01575" lon="4.55111">
        <ele>806</ele>
        <time>2020-02-23T11:28:03Z</time>
      </trkpt>
      <trkpt lat="46.01586" lon="4.55111">
        <ele>806</ele>
        <time>2020-02-23T11:28:05Z</time>
      </trkpt>
      <trkpt lat="46.016" lon="4.5511">
        <ele>805</ele>
        <time>2020-02-23T11:28:08Z</time>
      </trkpt>
      <trkpt lat="46.0166" lon="4.55096">
        <ele>805</ele>
        <time>2020-02-23T11:28:24Z</time>
      </trkpt>
      <trkpt lat="46.01673" lon="4.55088">
        <ele>805</ele>
        <time>2020-02-23T11:28:28Z</time>
      </trkpt>
      <trkpt lat="46.01729" lon="4.55078">
        <ele>803</ele>
        <time>2020-02-23T11:28:38Z</time>
      </trkpt>
      <trkpt lat="46.01745" lon="4.55065">
        <ele>801</ele>
        <time>2020-02-23T11:28:41Z</time>
      </trkpt>
      <trkpt lat="46.01766" lon="4.55058">
        <ele>800</ele>
        <time>2020-02-23T11:28:45Z</time>
      </trkpt>
      <trkpt lat="46.01775" lon="4.55049">
        <ele>798</ele>
        <time>2020-02-23T11:28:47Z</time>
      </trkpt>
      <trkpt lat="46.01802" lon="4.55046">
        <ele>794</ele>
        <time>2020-02-23T11:28:52Z</time>
      </trkpt>
      <trkpt lat="46.01823" lon="4.55056">
        <ele>790</ele>
        <time>2020-02-23T11:28:56Z</time>
      </trkpt>
      <trkpt lat="46.01835" lon="4.55067">
        <ele>787</ele>
        <time>2020-02-23T11:28:59Z</time>
      </trkpt>
      <trkpt lat="46.01883" lon="4.55076">
        <ele>778</ele>
        <time>2020-02-23T11:29:08Z</time>
      </trkpt>
      <trkpt lat="46.01912" lon="4.55092">
        <ele>772</ele>
        <time>2020-02-23T11:29:13Z</time>
      </trkpt>
      <trkpt lat="46.01927" lon="4.55108">
        <ele>769</ele>
        <time>2020-02-23T11:29:16Z</time>
      </trkpt>
      <trkpt lat="46.02062" lon="4.55206">
        <ele>753</ele>
        <time>2020-02-23T11:29:33Z</time>
      </trkpt>
      <trkpt lat="46.02107" lon="4.55274">
        <ele>752</ele>
        <time>2020-02-23T11:29:41Z</time>
      </trkpt>
      <trkpt lat="46.02259" lon="4.55496">
        <ele>732</ele>
        <time>2020-02-23T11:30:06Z</time>
      </trkpt>
      <trkpt lat="46.02326" lon="4.55544">
        <ele>716</ele>
        <time>2020-02-23T11:30:21Z</time>
      </trkpt>
      <trkpt lat="46.02341" lon="4.55561">
        <ele>711</ele>
        <time>2020-02-23T11:30:28Z</time>
      </trkpt>
      <trkpt lat="46.02373" lon="4.55597">
        <ele>707</ele>
        <time>2020-02-23T11:30:34Z</time>
      </trkpt>
      <trkpt lat="46.02398" lon="4.55612">
        <ele>704</ele>
        <time>2020-02-23T11:30:37Z</time>
      </trkpt>
      <trkpt lat="46.02556" lon="4.5567">
        <ele>698</ele>
        <time>2020-02-23T11:30:59Z</time>
      </trkpt>
      <trkpt lat="46.02639" lon="4.55661">
        <ele>692</ele>
        <time>2020-02-23T11:31:11Z</time>
      </trkpt>
      <trkpt lat="46.02657" lon="4.55667">
        <ele>688</ele>
        <time>2020-02-23T11:31:18Z</time>
      </trkpt>
      <trkpt lat="46.02668" lon="4.55666">
        <ele>688</ele>
        <time>2020-02-23T11:31:23Z</time>
      </trkpt>
      <trkpt lat="46.02678" lon="4.55653">
        <ele>688</ele>
        <time>2020-02-23T11:31:27Z</time>
      </trkpt>
      <trkpt lat="46.02694" lon="4.55638">
        <ele>686</ele>
        <time>2020-02-23T11:31:31Z</time>
      </trkpt>
      <trkpt lat="46.02716" lon="4.55631">
        <ele>685</ele>
        <time>2020-02-23T11:31:37Z</time>
      </trkpt>
      <trkpt lat="46.02735" lon="4.5563">
        <ele>684</ele>
        <time>2020-02-23T11:31:42Z</time>
      </trkpt>
      <trkpt lat="46.02746" lon="4.55626">
        <ele>684</ele>
        <time>2020-02-23T11:32:24Z</time>
      </trkpt>
      <trkpt lat="46.02773" lon="4.55615">
        <ele>683</ele>
        <time>2020-02-23T11:32:31Z</time>
      </trkpt>
      <trkpt lat="46.02947" lon="4.55504">
        <ele>674</ele>
        <time>2020-02-23T11:32:58Z</time>
      </trkpt>
      <trkpt lat="46.0296" lon="4.55488">
        <ele>673</ele>
        <time>2020-02-23T11:33:00Z</time>
      </trkpt>
      <trkpt lat="46.03023" lon="4.55388">
        <ele>668</ele>
        <time>2020-02-23T11:33:11Z</time>
      </trkpt>
      <trkpt lat="46.03157" lon="4.55312">
        <ele>660</ele>
        <time>2020-02-23T11:34:06Z</time>
      </trkpt>
      <trkpt lat="46.03189" lon="4.55295">
        <ele>660</ele>
        <time>2020-02-23T11:34:21Z</time>
      </trkpt>
      <trkpt lat="46.03232" lon="4.55201">
        <ele>667</ele>
        <time>2020-02-23T11:34:54Z</time>
      </trkpt>
      <trkpt lat="46.03263" lon="4.55127">
        <ele>675</ele>
        <time>2020-02-23T11:35:26Z</time>
      </trkpt>
      <trkpt lat="46.03287" lon="4.55082">
        <ele>679</ele>
        <time>2020-02-23T11:35:44Z</time>
      </trkpt>
      <trkpt lat="46.03321" lon="4.5505">
        <ele>681</ele>
        <time>2020-02-23T11:36:12Z</time>
      </trkpt>
      <trkpt lat="46.033" lon="4.55067">
        <ele>681</ele>
        <time>2020-02-23T11:36:26Z</time>
      </trkpt>
      <trkpt lat="46.03286" lon="4.55082">
        <ele>679</ele>
        <time>2020-02-23T11:36:33Z</time>
      </trkpt>
      <trkpt lat="46.0329" lon="4.55092">
        <ele>679</ele>
        <time>2020-02-23T11:37:44Z</time>
      </trkpt>
      <trkpt lat="46.03288" lon="4.55105">
        <ele>680</ele>
        <time>2020-02-23T11:38:04Z</time>
      </trkpt>
      <trkpt lat="46.0329" lon="4.55118">
        <ele>679</ele>
        <time>2020-02-23T11:38:11Z</time>
      </trkpt>
      <trkpt lat="46.03291" lon="4.55136">
        <ele>680</ele>
        <time>2020-02-23T11:38:17Z</time>
      </trkpt>
      <trkpt lat="46.03299" lon="4.55162">
        <ele>681</ele>
        <time>2020-02-23T11:38:25Z</time>
      </trkpt>
      <trkpt lat="46.03313" lon="4.55173">
        <ele>682</ele>
        <time>2020-02-23T11:38:33Z</time>
      </trkpt>
      <trkpt lat="46.03344" lon="4.55155">
        <ele>689</ele>
        <time>2020-02-23T11:38:51Z</time>
      </trkpt>
      <trkpt lat="46.0339" lon="4.55142">
        <ele>700</ele>
        <time>2020-02-23T11:39:19Z</time>
      </trkpt>
      <trkpt lat="46.03385" lon="4.55152">
        <ele>699</ele>
        <time>2020-02-23T11:40:58Z</time>
      </trkpt>
      <trkpt lat="46.03391" lon="4.55158">
        <ele>699</ele>
        <time>2020-02-23T11:41:05Z</time>
      </trkpt>
      <trkpt lat="46.03397" lon="4.55169">
        <ele>699</ele>
        <time>2020-02-23T11:41:14Z</time>
      </trkpt>
      <trkpt lat="46.03401" lon="4.55186">
        <ele>699</ele>
        <time>2020-02-23T11:41:31Z</time>
      </trkpt>
      <trkpt lat="46.03406" lon="4.55202">
        <ele>698</ele>
        <time>2020-02-23T11:41:39Z</time>
      </trkpt>
      <trkpt lat="46.03414" lon="4.55212">
        <ele>696</ele>
        <time>2020-02-23T11:41:47Z</time>
      </trkpt>
      <trkpt lat="46.0343" lon="4.55223">
        <ele>696</ele>
        <time>2020-02-23T11:42:11Z</time>
      </trkpt>
      <trkpt lat="46.03425" lon="4.5521">
        <ele>699</ele>
        <time>2020-02-23T11:46:56Z</time>
      </trkpt>
      <trkpt lat="46.03417" lon="4.55202">
        <ele>700</ele>
        <time>2020-02-23T11:47:00Z</time>
      </trkpt>
      <trkpt lat="46.03411" lon="4.55189">
        <ele>700</ele>
        <time>2020-02-23T11:47:05Z</time>
      </trkpt>
      <trkpt lat="46.03404" lon="4.55174">
        <ele>702</ele>
        <time>2020-02-23T11:47:10Z</time>
      </trkpt>
      <trkpt lat="46.03401" lon="4.55161">
        <ele>703</ele>
        <time>2020-02-23T11:47:14Z</time>
      </trkpt>
      <trkpt lat="46.03459" lon="4.55158">
        <ele>712</ele>
        <time>2020-02-23T11:47:59Z</time>
      </trkpt>
      <trkpt lat="46.03477" lon="4.55161">
        <ele>714</ele>
        <time>2020-02-23T11:48:08Z</time>
      </trkpt>
      <trkpt lat="46.03492" lon="4.5516">
        <ele>716</ele>
        <time>2020-02-23T11:48:16Z</time>
      </trkpt>
      <trkpt lat="46.03502" lon="4.55162">
        <ele>717</ele>
        <time>2020-02-23T11:48:21Z</time>
      </trkpt>
      <trkpt lat="46.03513" lon="4.55158">
        <ele>720</ele>
        <time>2020-02-23T11:48:27Z</time>
      </trkpt>
      <trkpt lat="46.03528" lon="4.55159">
        <ele>722</ele>
        <time>2020-02-23T11:48:34Z</time>
      </trkpt>
      <trkpt lat="46.03625" lon="4.55149">
        <ele>724</ele>
        <time>2020-02-23T11:49:09Z</time>
      </trkpt>
      <trkpt lat="46.03651" lon="4.55139">
        <ele>724</ele>
        <time>2020-02-23T11:49:20Z</time>
      </trkpt>
      <trkpt lat="46.03662" lon="4.55134">
        <ele>725</ele>
        <time>2020-02-23T11:49:24Z</time>
      </trkpt>
      <trkpt lat="46.0369" lon="4.55117">
        <ele>724</ele>
        <time>2020-02-23T11:49:34Z</time>
      </trkpt>
      <trkpt lat="46.0371" lon="4.55107">
        <ele>725</ele>
        <time>2020-02-23T11:49:42Z</time>
      </trkpt>
      <trkpt lat="46.03751" lon="4.55065">
        <ele>723</ele>
        <time>2020-02-23T11:49:52Z</time>
      </trkpt>
      <trkpt lat="46.03767" lon="4.55032">
        <ele>722</ele>
        <time>2020-02-23T11:50:00Z</time>
      </trkpt>
      <trkpt lat="46.03774" lon="4.55023">
        <ele>722</ele>
        <time>2020-02-23T11:50:04Z</time>
      </trkpt>
      <trkpt lat="46.03806" lon="4.54986">
        <ele>726</ele>
        <time>2020-02-23T11:50:24Z</time>
      </trkpt>
      <trkpt lat="46.03844" lon="4.54926">
        <ele>733</ele>
        <time>2020-02-23T11:50:58Z</time>
      </trkpt>
      <trkpt lat="46.03852" lon="4.54916">
        <ele>733</ele>
        <time>2020-02-23T11:51:02Z</time>
      </trkpt>
      <trkpt lat="46.03869" lon="4.54901">
        <ele>734</ele>
        <time>2020-02-23T11:51:13Z</time>
      </trkpt>
      <trkpt lat="46.03878" lon="4.54896">
        <ele>735</ele>
        <time>2020-02-23T11:51:19Z</time>
      </trkpt>
      <trkpt lat="46.03894" lon="4.54886">
        <ele>735</ele>
        <time>2020-02-23T11:51:25Z</time>
      </trkpt>
      <trkpt lat="46.0398" lon="4.54859">
        <ele>732</ele>
        <time>2020-02-23T11:51:51Z</time>
      </trkpt>
      <trkpt lat="46.03997" lon="4.5485">
        <ele>733</ele>
        <time>2020-02-23T11:51:58Z</time>
      </trkpt>
      <trkpt lat="46.04112" lon="4.54773">
        <ele>729</ele>
        <time>2020-02-23T11:52:26Z</time>
      </trkpt>
      <trkpt lat="46.04118" lon="4.54766">
        <ele>729</ele>
        <time>2020-02-23T11:52:27Z</time>
      </trkpt>
      <trkpt lat="46.04141" lon="4.54719">
        <ele>728</ele>
        <time>2020-02-23T11:52:35Z</time>
      </trkpt>
      <trkpt lat="46.04144" lon="4.54708">
        <ele>729</ele>
        <time>2020-02-23T11:52:42Z</time>
      </trkpt>
      <trkpt lat="46.04148" lon="4.54691">
        <ele>726</ele>
        <time>2020-02-23T11:56:55Z</time>
      </trkpt>
      <trkpt lat="46.04179" lon="4.54621">
        <ele>736</ele>
        <time>2020-02-23T11:57:24Z</time>
      </trkpt>
      <trkpt lat="46.04182" lon="4.54599">
        <ele>741</ele>
        <time>2020-02-23T11:57:46Z</time>
      </trkpt>
      <trkpt lat="46.04187" lon="4.54581">
        <ele>744</ele>
        <time>2020-02-23T11:58:16Z</time>
      </trkpt>
      <trkpt lat="46.04192" lon="4.54564">
        <ele>747</ele>
        <time>2020-02-23T11:59:28Z</time>
      </trkpt>
      <trkpt lat="46.0419" lon="4.54551">
        <ele>750</ele>
        <time>2020-02-23T11:59:52Z</time>
      </trkpt>
      <trkpt lat="46.04197" lon="4.54536">
        <ele>752</ele>
        <time>2020-02-23T12:00:16Z</time>
      </trkpt>
      <trkpt lat="46.04195" lon="4.54522">
        <ele>757</ele>
        <time>2020-02-23T12:00:55Z</time>
      </trkpt>
      <trkpt lat="46.04203" lon="4.54507">
        <ele>761</ele>
        <time>2020-02-23T12:01:36Z</time>
      </trkpt>
      <trkpt lat="46.04198" lon="4.54493">
        <ele>762</ele>
        <time>2020-02-23T12:02:12Z</time>
      </trkpt>
      <trkpt lat="46.04204" lon="4.54476">
        <ele>766</ele>
        <time>2020-02-23T12:03:00Z</time>
      </trkpt>
      <trkpt lat="46.04204" lon="4.54459">
        <ele>769</ele>
        <time>2020-02-23T12:03:38Z</time>
      </trkpt>
      <trkpt lat="46.04201" lon="4.5445">
        <ele>770</ele>
        <time>2020-02-23T12:03:57Z</time>
      </trkpt>
      <trkpt lat="46.0421" lon="4.54434">
        <ele>773</ele>
        <time>2020-02-23T12:04:29Z</time>
      </trkpt>
      <trkpt lat="46.04213" lon="4.54418">
        <ele>775</ele>
        <time>2020-02-23T12:04:36Z</time>
      </trkpt>
      <trkpt lat="46.04221" lon="4.54408">
        <ele>777</ele>
        <time>2020-02-23T12:04:47Z</time>
      </trkpt>
      <trkpt lat="46.04224" lon="4.54395">
        <ele>779</ele>
        <time>2020-02-23T12:04:56Z</time>
      </trkpt>
      <trkpt lat="46.04224" lon="4.54379">
        <ele>781</ele>
        <time>2020-02-23T12:05:33Z</time>
      </trkpt>
      <trkpt lat="46.04231" lon="4.54358">
        <ele>784</ele>
        <time>2020-02-23T12:05:42Z</time>
      </trkpt>
      <trkpt lat="46.04234" lon="4.5431">
        <ele>790</ele>
        <time>2020-02-23T12:06:01Z</time>
      </trkpt>
      <trkpt lat="46.04239" lon="4.54302">
        <ele>793</ele>
        <time>2020-02-23T12:06:11Z</time>
      </trkpt>
      <trkpt lat="46.04245" lon="4.54292">
        <ele>794</ele>
        <time>2020-02-23T12:06:27Z</time>
      </trkpt>
      <trkpt lat="46.04252" lon="4.54288">
        <ele>794</ele>
        <time>2020-02-23T12:06:31Z</time>
      </trkpt>
      <trkpt lat="46.04272" lon="4.54266">
        <ele>791</ele>
        <time>2020-02-23T12:06:40Z</time>
      </trkpt>
      <trkpt lat="46.04278" lon="4.54249">
        <ele>791</ele>
        <time>2020-02-23T12:06:46Z</time>
      </trkpt>
      <trkpt lat="46.04286" lon="4.5424">
        <ele>792</ele>
        <time>2020-02-23T12:06:51Z</time>
      </trkpt>
      <trkpt lat="46.04293" lon="4.54202">
        <ele>793</ele>
        <time>2020-02-23T12:07:06Z</time>
      </trkpt>
      <trkpt lat="46.04294" lon="4.54187">
        <ele>795</ele>
        <time>2020-02-23T12:07:14Z</time>
      </trkpt>
      <trkpt lat="46.04311" lon="4.54135">
        <ele>799</ele>
        <time>2020-02-23T12:07:34Z</time>
      </trkpt>
      <trkpt lat="46.04321" lon="4.5412">
        <ele>799</ele>
        <time>2020-02-23T12:07:40Z</time>
      </trkpt>
      <trkpt lat="46.04344" lon="4.54086">
        <ele>797</ele>
        <time>2020-02-23T12:07:50Z</time>
      </trkpt>
      <trkpt lat="46.04353" lon="4.54077">
        <ele>798</ele>
        <time>2020-02-23T12:07:55Z</time>
      </trkpt>
      <trkpt lat="46.04359" lon="4.54056">
        <ele>801</ele>
        <time>2020-02-23T12:08:04Z</time>
      </trkpt>
      <trkpt lat="46.04385" lon="4.54026">
        <ele>806</ele>
        <time>2020-02-23T12:08:26Z</time>
      </trkpt>
      <trkpt lat="46.04396" lon="4.54021">
        <ele>806</ele>
        <time>2020-02-23T12:08:30Z</time>
      </trkpt>
      <trkpt lat="46.04403" lon="4.54018">
        <ele>805</ele>
        <time>2020-02-23T12:08:32Z</time>
      </trkpt>
      <trkpt lat="46.04412" lon="4.54013">
        <ele>805</ele>
        <time>2020-02-23T12:08:33Z</time>
      </trkpt>
      <trkpt lat="46.04424" lon="4.54002">
        <ele>804</ele>
        <time>2020-02-23T12:08:37Z</time>
      </trkpt>
      <trkpt lat="46.04441" lon="4.53984">
        <ele>804</ele>
        <time>2020-02-23T12:08:45Z</time>
      </trkpt>
      <trkpt lat="46.04459" lon="4.53986">
        <ele>804</ele>
        <time>2020-02-23T12:08:53Z</time>
      </trkpt>
      <trkpt lat="46.04478" lon="4.53981">
        <ele>803</ele>
        <time>2020-02-23T12:08:56Z</time>
      </trkpt>
      <trkpt lat="46.04507" lon="4.53959">
        <ele>800</ele>
        <time>2020-02-23T12:09:02Z</time>
      </trkpt>
      <trkpt lat="46.04552" lon="4.53934">
        <ele>803</ele>
        <time>2020-02-23T12:09:24Z</time>
      </trkpt>
      <trkpt lat="46.04594" lon="4.53923">
        <ele>804</ele>
        <time>2020-02-23T12:09:37Z</time>
      </trkpt>
      <trkpt lat="46.04612" lon="4.53909">
        <ele>802</ele>
        <time>2020-02-23T12:09:40Z</time>
      </trkpt>
      <trkpt lat="46.04697" lon="4.53824">
        <ele>796</ele>
        <time>2020-02-23T12:09:57Z</time>
      </trkpt>
      <trkpt lat="46.04704" lon="4.53816">
        <ele>798</ele>
        <time>2020-02-23T12:10:02Z</time>
      </trkpt>
      <trkpt lat="46.04718" lon="4.53801">
        <ele>798</ele>
        <time>2020-02-23T12:10:09Z</time>
      </trkpt>
      <trkpt lat="46.04779" lon="4.53695">
        <ele>796</ele>
        <time>2020-02-23T12:10:34Z</time>
      </trkpt>
      <trkpt lat="46.048" lon="4.53671">
        <ele>793</ele>
        <time>2020-02-23T12:10:40Z</time>
      </trkpt>
      <trkpt lat="46.04834" lon="4.53638">
        <ele>796</ele>
        <time>2020-02-23T12:11:01Z</time>
      </trkpt>
      <trkpt lat="46.0484" lon="4.53627">
        <ele>797</ele>
        <time>2020-02-23T12:11:06Z</time>
      </trkpt>
      <trkpt lat="46.04848" lon="4.53619">
        <ele>798</ele>
        <time>2020-02-23T12:11:26Z</time>
      </trkpt>
      <trkpt lat="46.04891" lon="4.5362">
        <ele>802</ele>
        <time>2020-02-23T12:11:46Z</time>
      </trkpt>
      <trkpt lat="46.04927" lon="4.53632">
        <ele>802</ele>
        <time>2020-02-23T12:11:57Z</time>
      </trkpt>
      <trkpt lat="46.04946" lon="4.53621">
        <ele>801</ele>
        <time>2020-02-23T12:12:01Z</time>
      </trkpt>
      <trkpt lat="46.04962" lon="4.53614">
        <ele>801</ele>
        <time>2020-02-23T12:12:06Z</time>
      </trkpt>
      <trkpt lat="46.04972" lon="4.5361">
        <ele>803</ele>
        <time>2020-02-23T12:12:13Z</time>
      </trkpt>
      <trkpt lat="46.05002" lon="4.5362">
        <ele>803</ele>
        <time>2020-02-23T12:12:26Z</time>
      </trkpt>
      <trkpt lat="46.0508" lon="4.53617">
        <ele>800</ele>
        <time>2020-02-23T12:12:43Z</time>
      </trkpt>
      <trkpt lat="46.05094" lon="4.53626">
        <ele>802</ele>
        <time>2020-02-23T12:12:49Z</time>
      </trkpt>
      <trkpt lat="46.05104" lon="4.53624">
        <ele>804</ele>
        <time>2020-02-23T12:12:54Z</time>
      </trkpt>
      <trkpt lat="46.05132" lon="4.53637">
        <ele>808</ele>
        <time>2020-02-23T12:13:05Z</time>
      </trkpt>
      <trkpt lat="46.05155" lon="4.53642">
        <ele>808</ele>
        <time>2020-02-23T12:13:13Z</time>
      </trkpt>
      <trkpt lat="46.05162" lon="4.53647">
        <ele>808</ele>
        <time>2020-02-23T12:13:15Z</time>
      </trkpt>
      <trkpt lat="46.05204" lon="4.53671">
        <ele>806</ele>
        <time>2020-02-23T12:13:37Z</time>
      </trkpt>
      <trkpt lat="46.05212" lon="4.53673">
        <ele>806</ele>
        <time>2020-02-23T12:13:38Z</time>
      </trkpt>
      <trkpt lat="46.05219" lon="4.53678">
        <ele>805</ele>
        <time>2020-02-23T12:13:39Z</time>
      </trkpt>
      <trkpt lat="46.05308" lon="4.53668">
        <ele>795</ele>
        <time>2020-02-23T12:14:01Z</time>
      </trkpt>
      <trkpt lat="46.05338" lon="4.53657">
        <ele>795</ele>
        <time>2020-02-23T12:14:23Z</time>
      </trkpt>
      <trkpt lat="46.05462" lon="4.53572">
        <ele>792</ele>
        <time>2020-02-23T12:14:53Z</time>
      </trkpt>
      <trkpt lat="46.05507" lon="4.53543">
        <ele>791</ele>
        <time>2020-02-23T12:15:02Z</time>
      </trkpt>
      <trkpt lat="46.05542" lon="4.53534">
        <ele>791</ele>
        <time>2020-02-23T12:15:09Z</time>
      </trkpt>
      <trkpt lat="46.05581" lon="4.53539">
        <ele>792</ele>
        <time>2020-02-23T12:15:20Z</time>
      </trkpt>
      <trkpt lat="46.05596" lon="4.53547">
        <ele>791</ele>
        <time>2020-02-23T12:15:23Z</time>
      </trkpt>
      <trkpt lat="46.05601" lon="4.53559">
        <ele>790</ele>
        <time>2020-02-23T12:15:24Z</time>
      </trkpt>
      <trkpt lat="46.05617" lon="4.53575">
        <ele>788</ele>
        <time>2020-02-23T12:15:27Z</time>
      </trkpt>
      <trkpt lat="46.05623" lon="4.53585">
        <ele>787</ele>
        <time>2020-02-23T12:15:28Z</time>
      </trkpt>
      <trkpt lat="46.05669" lon="4.53747">
        <ele>766</ele>
        <time>2020-02-23T12:15:47Z</time>
      </trkpt>
      <trkpt lat="46.05679" lon="4.53755">
        <ele>762</ele>
        <time>2020-02-23T12:15:50Z</time>
      </trkpt>
      <trkpt lat="46.05694" lon="4.53753">
        <ele>761</ele>
        <time>2020-02-23T12:15:51Z</time>
      </trkpt>
      <trkpt lat="46.05725" lon="4.53727">
        <ele>753</ele>
        <time>2020-02-23T12:15:57Z</time>
      </trkpt>
      <trkpt lat="46.05734" lon="4.53724">
        <ele>752</ele>
        <time>2020-02-23T12:15:58Z</time>
      </trkpt>
      <trkpt lat="46.0574" lon="4.53716">
        <ele>751</ele>
        <time>2020-02-23T12:15:59Z</time>
      </trkpt>
      <trkpt lat="46.05762" lon="4.53722">
        <ele>748</ele>
        <time>2020-02-23T12:16:02Z</time>
      </trkpt>
      <trkpt lat="46.05786" lon="4.53721">
        <ele>744</ele>
        <time>2020-02-23T12:16:05Z</time>
      </trkpt>
      <trkpt lat="46.05794" lon="4.5372">
        <ele>744</ele>
        <time>2020-02-23T12:16:06Z</time>
      </trkpt>
      <trkpt lat="46.05867" lon="4.53744">
        <ele>737</ele>
        <time>2020-02-23T12:16:15Z</time>
      </trkpt>
      <trkpt lat="46.05876" lon="4.53752">
        <ele>736</ele>
        <time>2020-02-23T12:16:18Z</time>
      </trkpt>
      <trkpt lat="46.05891" lon="4.53761">
        <ele>736</ele>
        <time>2020-02-23T12:16:25Z</time>
      </trkpt>
      <trkpt lat="46.05907" lon="4.53758">
        <ele>735</ele>
        <time>2020-02-23T12:16:31Z</time>
      </trkpt>
      <trkpt lat="46.05918" lon="4.5376">
        <ele>736</ele>
        <time>2020-02-23T12:16:54Z</time>
      </trkpt>
      <trkpt lat="46.05927" lon="4.53769">
        <ele>735</ele>
        <time>2020-02-23T12:18:12Z</time>
      </trkpt>
      <trkpt lat="46.05936" lon="4.53762">
        <ele>735</ele>
        <time>2020-02-23T12:18:16Z</time>
      </trkpt>
      <trkpt lat="46.05988" lon="4.53784">
        <ele>740</ele>
        <time>2020-02-23T12:18:51Z</time>
      </trkpt>
      <trkpt lat="46.06047" lon="4.53818">
        <ele>747</ele>
        <time>2020-02-23T12:19:24Z</time>
      </trkpt>
      <trkpt lat="46.06097" lon="4.5385">
        <ele>755</ele>
        <time>2020-02-23T12:19:56Z</time>
      </trkpt>
      <trkpt lat="46.06139" lon="4.53876">
        <ele>761</ele>
        <time>2020-02-23T12:20:28Z</time>
      </trkpt>
      <trkpt lat="46.06181" lon="4.53896">
        <ele>767</ele>
        <time>2020-02-23T12:20:54Z</time>
      </trkpt>
      <trkpt lat="46.06241" lon="4.53905">
        <ele>772</ele>
        <time>2020-02-23T12:21:22Z</time>
      </trkpt>
      <trkpt lat="46.06325" lon="4.53915">
        <ele>771</ele>
        <time>2020-02-23T12:21:54Z</time>
      </trkpt>
      <trkpt lat="46.06519" lon="4.53982">
        <ele>756</ele>
        <time>2020-02-23T12:22:25Z</time>
      </trkpt>
      <trkpt lat="46.06602" lon="4.54033">
        <ele>744</ele>
        <time>2020-02-23T12:22:36Z</time>
      </trkpt>
      <trkpt lat="46.06672" lon="4.54089">
        <ele>743</ele>
        <time>2020-02-23T12:22:50Z</time>
      </trkpt>
      <trkpt lat="46.06758" lon="4.54159">
        <ele>739</ele>
        <time>2020-02-23T12:23:13Z</time>
      </trkpt>
      <trkpt lat="46.06769" lon="4.54177">
        <ele>738</ele>
        <time>2020-02-23T12:23:21Z</time>
      </trkpt>
      <trkpt lat="46.06797" lon="4.5423">
        <ele>739</ele>
        <time>2020-02-23T12:23:53Z</time>
      </trkpt>
      <trkpt lat="46.06806" lon="4.54243">
        <ele>739</ele>
        <time>2020-02-23T12:23:56Z</time>
      </trkpt>
      <trkpt lat="46.06866" lon="4.54292">
        <ele>741</ele>
        <time>2020-02-23T12:24:27Z</time>
      </trkpt>
      <trkpt lat="46.06912" lon="4.54324">
        <ele>744</ele>
        <time>2020-02-23T12:24:54Z</time>
      </trkpt>
      <trkpt lat="46.07036" lon="4.54422">
        <ele>742</ele>
        <time>2020-02-23T12:25:51Z</time>
      </trkpt>
      <trkpt lat="46.07075" lon="4.54448">
        <ele>745</ele>
        <time>2020-02-23T12:26:09Z</time>
      </trkpt>
      <trkpt lat="46.07093" lon="4.54453">
        <ele>745</ele>
        <time>2020-02-23T12:26:15Z</time>
      </trkpt>
      <trkpt lat="46.07219" lon="4.54447">
        <ele>743</ele>
        <time>2020-02-23T12:26:39Z</time>
      </trkpt>
      <trkpt lat="46.07226" lon="4.54442">
        <ele>745</ele>
        <time>2020-02-23T12:26:50Z</time>
      </trkpt>
      <trkpt lat="46.07237" lon="4.54431">
        <ele>745</ele>
        <time>2020-02-23T12:26:54Z</time>
      </trkpt>
      <trkpt lat="46.07255" lon="4.54412">
        <ele>747</ele>
        <time>2020-02-23T12:27:04Z</time>
      </trkpt>
      <trkpt lat="46.07262" lon="4.544">
        <ele>747</ele>
        <time>2020-02-23T12:27:10Z</time>
      </trkpt>
      <trkpt lat="46.07274" lon="4.54392">
        <ele>746</ele>
        <time>2020-02-23T12:27:25Z</time>
      </trkpt>
      <trkpt lat="46.0736" lon="4.54422">
        <ele>743</ele>
        <time>2020-02-23T12:27:48Z</time>
      </trkpt>
      <trkpt lat="46.0739" lon="4.54444">
        <ele>745</ele>
        <time>2020-02-23T12:28:03Z</time>
      </trkpt>
      <trkpt lat="46.07412" lon="4.54462">
        <ele>745</ele>
        <time>2020-02-23T12:28:10Z</time>
      </trkpt>
      <trkpt lat="46.07516" lon="4.54575">
        <ele>741</ele>
        <time>2020-02-23T12:28:42Z</time>
      </trkpt>
      <trkpt lat="46.07578" lon="4.54643">
        <ele>744</ele>
        <time>2020-02-23T12:29:14Z</time>
      </trkpt>
      <trkpt lat="46.07631" lon="4.54723">
        <ele>746</ele>
        <time>2020-02-23T12:29:45Z</time>
      </trkpt>
      <trkpt lat="46.07766" lon="4.54807">
        <ele>741</ele>
        <time>2020-02-23T12:30:16Z</time>
      </trkpt>
      <trkpt lat="46.07779" lon="4.54813">
        <ele>740</ele>
        <time>2020-02-23T12:30:18Z</time>
      </trkpt>
      <trkpt lat="46.07986" lon="4.54878">
        <ele>723</ele>
        <time>2020-02-23T12:30:49Z</time>
      </trkpt>
      <trkpt lat="46.08002" lon="4.54885">
        <ele>722</ele>
        <time>2020-02-23T12:30:56Z</time>
      </trkpt>
      <trkpt lat="46.08014" lon="4.54884">
        <ele>722</ele>
        <time>2020-02-23T12:31:01Z</time>
      </trkpt>
      <trkpt lat="46.0797" lon="4.54867">
        <ele>723</ele>
        <time>2020-02-23T12:35:44Z</time>
      </trkpt>
      <trkpt lat="46.0796" lon="4.54869">
        <ele>724</ele>
        <time>2020-02-23T12:35:48Z</time>
      </trkpt>
      <trkpt lat="46.07943" lon="4.5488">
        <ele>724</ele>
        <time>2020-02-23T12:35:54Z</time>
      </trkpt>
      <trkpt lat="46.07913" lon="4.54869">
        <ele>727</ele>
        <time>2020-02-23T12:36:08Z</time>
      </trkpt>
      <trkpt lat="46.0789" lon="4.54853">
        <ele>730</ele>
        <time>2020-02-23T12:36:19Z</time>
      </trkpt>
      <trkpt lat="46.0786" lon="4.54843">
        <ele>732</ele>
        <time>2020-02-23T12:36:32Z</time>
      </trkpt>
      <trkpt lat="46.07853" lon="4.54833">
        <ele>732</ele>
        <time>2020-02-23T12:36:36Z</time>
      </trkpt>
      <trkpt lat="46.07819" lon="4.54824">
        <ele>734</ele>
        <time>2020-02-23T12:36:50Z</time>
      </trkpt>
      <trkpt lat="46.07725" lon="4.5478">
        <ele>740</ele>
        <time>2020-02-23T12:37:22Z</time>
      </trkpt>
      <trkpt lat="46.07682" lon="4.54763">
        <ele>742</ele>
        <time>2020-02-23T12:37:36Z</time>
      </trkpt>
      <trkpt lat="46.07632" lon="4.54723">
        <ele>744</ele>
        <time>2020-02-23T12:37:54Z</time>
      </trkpt>
      <trkpt lat="46.07588" lon="4.5466">
        <ele>743</ele>
        <time>2020-02-23T12:38:10Z</time>
      </trkpt>
      <trkpt lat="46.07579" lon="4.54631">
        <ele>743</ele>
        <time>2020-02-23T12:38:15Z</time>
      </trkpt>
      <trkpt lat="46.07447" lon="4.54499">
        <ele>738</ele>
        <time>2020-02-23T12:38:49Z</time>
      </trkpt>
      <trkpt lat="46.07436" lon="4.54487">
        <ele>740</ele>
        <time>2020-02-23T12:38:56Z</time>
      </trkpt>
      <trkpt lat="46.07427" lon="4.54469">
        <ele>741</ele>
        <time>2020-02-23T12:39:02Z</time>
      </trkpt>
      <trkpt lat="46.07387" lon="4.54448">
        <ele>743</ele>
        <time>2020-02-23T12:39:16Z</time>
      </trkpt>
      <trkpt lat="46.07363" lon="4.54424">
        <ele>742</ele>
        <time>2020-02-23T12:39:21Z</time>
      </trkpt>
      <trkpt lat="46.07338" lon="4.54416">
        <ele>740</ele>
        <time>2020-02-23T12:39:27Z</time>
      </trkpt>
      <trkpt lat="46.07278" lon="4.54388">
        <ele>742</ele>
        <time>2020-02-23T12:39:45Z</time>
      </trkpt>
      <trkpt lat="46.07267" lon="4.5439">
        <ele>743</ele>
        <time>2020-02-23T12:39:49Z</time>
      </trkpt>
      <trkpt lat="46.07252" lon="4.54417">
        <ele>744</ele>
        <time>2020-02-23T12:39:57Z</time>
      </trkpt>
      <trkpt lat="46.0724" lon="4.54435">
        <ele>743</ele>
        <time>2020-02-23T12:40:03Z</time>
      </trkpt>
      <trkpt lat="46.07226" lon="4.5444">
        <ele>743</ele>
        <time>2020-02-23T12:40:06Z</time>
      </trkpt>
      <trkpt lat="46.07199" lon="4.54457">
        <ele>741</ele>
        <time>2020-02-23T12:40:14Z</time>
      </trkpt>
      <trkpt lat="46.07092" lon="4.54454">
        <ele>741</ele>
        <time>2020-02-23T12:40:47Z</time>
      </trkpt>
      <trkpt lat="46.07059" lon="4.54445">
        <ele>742</ele>
        <time>2020-02-23T12:40:57Z</time>
      </trkpt>
      <trkpt lat="46.0702" lon="4.54418">
        <ele>740</ele>
        <time>2020-02-23T12:41:06Z</time>
      </trkpt>
      <trkpt lat="46.06933" lon="4.5434">
        <ele>740</ele>
        <time>2020-02-23T12:41:34Z</time>
      </trkpt>
      <trkpt lat="46.06918" lon="4.54321">
        <ele>742</ele>
        <time>2020-02-23T12:41:43Z</time>
      </trkpt>
      <trkpt lat="46.06898" lon="4.54309">
        <ele>742</ele>
        <time>2020-02-23T12:41:49Z</time>
      </trkpt>
      <trkpt lat="46.06889" lon="4.54304">
        <ele>741</ele>
        <time>2020-02-23T12:41:51Z</time>
      </trkpt>
      <trkpt lat="46.06813" lon="4.5425">
        <ele>738</ele>
        <time>2020-02-23T12:42:08Z</time>
      </trkpt>
      <trkpt lat="46.06785" lon="4.54208">
        <ele>737</ele>
        <time>2020-02-23T12:42:18Z</time>
      </trkpt>
      <trkpt lat="46.06783" lon="4.54191">
        <ele>737</ele>
        <time>2020-02-23T12:42:24Z</time>
      </trkpt>
      <trkpt lat="46.06792" lon="4.54182">
        <ele>737</ele>
        <time>2020-02-23T12:42:31Z</time>
      </trkpt>
      <trkpt lat="46.06781" lon="4.5418">
        <ele>738</ele>
        <time>2020-02-23T12:42:49Z</time>
      </trkpt>
      <trkpt lat="46.06764" lon="4.54149">
        <ele>737</ele>
        <time>2020-02-23T12:43:25Z</time>
      </trkpt>
      <trkpt lat="46.06754" lon="4.54143">
        <ele>737</ele>
        <time>2020-02-23T12:43:31Z</time>
      </trkpt>
      <trkpt lat="46.06741" lon="4.5413">
        <ele>738</ele>
        <time>2020-02-23T12:43:43Z</time>
      </trkpt>
      <trkpt lat="46.06672" lon="4.54083">
        <ele>742</ele>
        <time>2020-02-23T12:44:09Z</time>
      </trkpt>
      <trkpt lat="46.06634" lon="4.54039">
        <ele>744</ele>
        <time>2020-02-23T12:44:21Z</time>
      </trkpt>
      <trkpt lat="46.06613" lon="4.54025">
        <ele>744</ele>
        <time>2020-02-23T12:44:28Z</time>
      </trkpt>
      <trkpt lat="46.06595" lon="4.54017">
        <ele>745</ele>
        <time>2020-02-23T12:44:34Z</time>
      </trkpt>
      <trkpt lat="46.06545" lon="4.53973">
        <ele>751</ele>
        <time>2020-02-23T12:44:59Z</time>
      </trkpt>
      <trkpt lat="46.06529" lon="4.53968">
        <ele>753</ele>
        <time>2020-02-23T12:45:07Z</time>
      </trkpt>
      <trkpt lat="46.06504" lon="4.53938">
        <ele>757</ele>
        <time>2020-02-23T12:45:26Z</time>
      </trkpt>
      <trkpt lat="46.06388" lon="4.53927">
        <ele>767</ele>
        <time>2020-02-23T12:46:17Z</time>
      </trkpt>
      <trkpt lat="46.06376" lon="4.5392">
        <ele>769</ele>
        <time>2020-02-23T12:46:23Z</time>
      </trkpt>
      <trkpt lat="46.06369" lon="4.53912">
        <ele>770</ele>
        <time>2020-02-23T12:46:27Z</time>
      </trkpt>
      <trkpt lat="46.06359" lon="4.53909">
        <ele>770</ele>
        <time>2020-02-23T12:46:31Z</time>
      </trkpt>
      <trkpt lat="46.06346" lon="4.53904">
        <ele>772</ele>
        <time>2020-02-23T12:46:37Z</time>
      </trkpt>
      <trkpt lat="46.0632" lon="4.53899">
        <ele>774</ele>
        <time>2020-02-23T12:46:48Z</time>
      </trkpt>
      <trkpt lat="46.06309" lon="4.53896">
        <ele>774</ele>
        <time>2020-02-23T12:46:53Z</time>
      </trkpt>
      <trkpt lat="46.06189" lon="4.53891">
        <ele>773</ele>
        <time>2020-02-23T12:47:24Z</time>
      </trkpt>
      <trkpt lat="46.06173" lon="4.53893">
        <ele>772</ele>
        <time>2020-02-23T12:47:26Z</time>
      </trkpt>
      <trkpt lat="46.05915" lon="4.53751">
        <ele>737</ele>
        <time>2020-02-23T12:48:23Z</time>
      </trkpt>
      <trkpt lat="46.05888" lon="4.53753">
        <ele>737</ele>
        <time>2020-02-23T12:48:42Z</time>
      </trkpt>
      <trkpt lat="46.05814" lon="4.53732">
        <ele>739</ele>
        <time>2020-02-23T12:49:07Z</time>
      </trkpt>
      <trkpt lat="46.05763" lon="4.53647">
        <ele>736</ele>
        <time>2020-02-23T12:49:24Z</time>
      </trkpt>
      <trkpt lat="46.05754" lon="4.53618">
        <ele>736</ele>
        <time>2020-02-23T12:49:27Z</time>
      </trkpt>
      <trkpt lat="46.0575" lon="4.53581">
        <ele>734</ele>
        <time>2020-02-23T12:49:31Z</time>
      </trkpt>
      <trkpt lat="46.05766" lon="4.5335">
        <ele>732</ele>
        <time>2020-02-23T12:50:01Z</time>
      </trkpt>
      <trkpt lat="46.0575" lon="4.5322">
        <ele>731</ele>
        <time>2020-02-23T12:50:21Z</time>
      </trkpt>
      <trkpt lat="46.05737" lon="4.53197">
        <ele>730</ele>
        <time>2020-02-23T12:50:28Z</time>
      </trkpt>
      <trkpt lat="46.05721" lon="4.53192">
        <ele>731</ele>
        <time>2020-02-23T12:50:32Z</time>
      </trkpt>
      <trkpt lat="46.05707" lon="4.53193">
        <ele>731</ele>
        <time>2020-02-23T12:50:56Z</time>
      </trkpt>
      <trkpt lat="46.05559" lon="4.53248">
        <ele>732</ele>
        <time>2020-02-23T12:51:27Z</time>
      </trkpt>
      <trkpt lat="46.05465" lon="4.53275">
        <ele>730</ele>
        <time>2020-02-23T12:51:42Z</time>
      </trkpt>
      <trkpt lat="46.05457" lon="4.53275">
        <ele>729</ele>
        <time>2020-02-23T12:51:43Z</time>
      </trkpt>
      <trkpt lat="46.05439" lon="4.53259">
        <ele>728</ele>
        <time>2020-02-23T12:51:46Z</time>
      </trkpt>
      <trkpt lat="46.05435" lon="4.53243">
        <ele>728</ele>
        <time>2020-02-23T12:51:48Z</time>
      </trkpt>
      <trkpt lat="46.05446" lon="4.5318">
        <ele>726</ele>
        <time>2020-02-23T12:51:54Z</time>
      </trkpt>
      <trkpt lat="46.05537" lon="4.52921">
        <ele>718</ele>
        <time>2020-02-23T12:52:25Z</time>
      </trkpt>
      <trkpt lat="46.056" lon="4.52662">
        <ele>709</ele>
        <time>2020-02-23T12:52:51Z</time>
      </trkpt>
      <trkpt lat="46.0561" lon="4.52646">
        <ele>709</ele>
        <time>2020-02-23T12:52:52Z</time>
      </trkpt>
      <trkpt lat="46.05623" lon="4.52608">
        <ele>708</ele>
        <time>2020-02-23T12:52:56Z</time>
      </trkpt>
      <trkpt lat="46.05723" lon="4.524">
        <ele>699</ele>
        <time>2020-02-23T12:53:21Z</time>
      </trkpt>
      <trkpt lat="46.0573" lon="4.52365">
        <ele>698</ele>
        <time>2020-02-23T12:53:24Z</time>
      </trkpt>
      <trkpt lat="46.05718" lon="4.52268">
        <ele>695</ele>
        <time>2020-02-23T12:53:34Z</time>
      </trkpt>
      <trkpt lat="46.05704" lon="4.52243">
        <ele>694</ele>
        <time>2020-02-23T12:53:37Z</time>
      </trkpt>
      <trkpt lat="46.05686" lon="4.52183">
        <ele>692</ele>
        <time>2020-02-23T12:53:44Z</time>
      </trkpt>
      <trkpt lat="46.05645" lon="4.52093">
        <ele>689</ele>
        <time>2020-02-23T12:53:56Z</time>
      </trkpt>
      <trkpt lat="46.05607" lon="4.52066">
        <ele>686</ele>
        <time>2020-02-23T12:54:04Z</time>
      </trkpt>
      <trkpt lat="46.05571" lon="4.5208">
        <ele>685</ele>
        <time>2020-02-23T12:54:17Z</time>
      </trkpt>
      <trkpt lat="46.05545" lon="4.52105">
        <ele>685</ele>
        <time>2020-02-23T12:54:26Z</time>
      </trkpt>
      <trkpt lat="46.05461" lon="4.52165">
        <ele>684</ele>
        <time>2020-02-23T12:54:43Z</time>
      </trkpt>
      <trkpt lat="46.05377" lon="4.52203">
        <ele>685</ele>
        <time>2020-02-23T12:55:07Z</time>
      </trkpt>
      <trkpt lat="46.05344" lon="4.52194">
        <ele>685</ele>
        <time>2020-02-23T12:55:19Z</time>
      </trkpt>
      <trkpt lat="46.05336" lon="4.52192">
        <ele>686</ele>
        <time>2020-02-23T12:55:22Z</time>
      </trkpt>
      <trkpt lat="46.05288" lon="4.52173">
        <ele>685</ele>
        <time>2020-02-23T12:55:36Z</time>
      </trkpt>
      <trkpt lat="46.05275" lon="4.52173">
        <ele>685</ele>
        <time>2020-02-23T12:55:39Z</time>
      </trkpt>
      <trkpt lat="46.05266" lon="4.52177">
        <ele>684</ele>
        <time>2020-02-23T12:55:41Z</time>
      </trkpt>
      <trkpt lat="46.05256" lon="4.52188">
        <ele>684</ele>
        <time>2020-02-23T12:55:44Z</time>
      </trkpt>
      <trkpt lat="46.05249" lon="4.52212">
        <ele>684</ele>
        <time>2020-02-23T12:55:50Z</time>
      </trkpt>
      <trkpt lat="46.05245" lon="4.52231">
        <ele>683</ele>
        <time>2020-02-23T12:55:54Z</time>
      </trkpt>
      <trkpt lat="46.05205" lon="4.52335">
        <ele>682</ele>
        <time>2020-02-23T12:56:13Z</time>
      </trkpt>
      <trkpt lat="46.05172" lon="4.52365">
        <ele>682</ele>
        <time>2020-02-23T12:56:21Z</time>
      </trkpt>
      <trkpt lat="46.05154" lon="4.52392">
        <ele>682</ele>
        <time>2020-02-23T12:56:28Z</time>
      </trkpt>
      <trkpt lat="46.0515" lon="4.52407">
        <ele>683</ele>
        <time>2020-02-23T12:56:32Z</time>
      </trkpt>
      <trkpt lat="46.05133" lon="4.52422">
        <ele>684</ele>
        <time>2020-02-23T12:56:39Z</time>
      </trkpt>
      <trkpt lat="46.05121" lon="4.52419">
        <ele>684</ele>
        <time>2020-02-23T12:56:43Z</time>
      </trkpt>
      <trkpt lat="46.05045" lon="4.52328">
        <ele>688</ele>
        <time>2020-02-23T12:57:15Z</time>
      </trkpt>
      <trkpt lat="46.0503" lon="4.52317">
        <ele>688</ele>
        <time>2020-02-23T12:57:19Z</time>
      </trkpt>
      <trkpt lat="46.05017" lon="4.52313">
        <ele>688</ele>
        <time>2020-02-23T12:57:22Z</time>
      </trkpt>
      <trkpt lat="46.05009" lon="4.52312">
        <ele>687</ele>
        <time>2020-02-23T12:57:24Z</time>
      </trkpt>
      <trkpt lat="46.04982" lon="4.52328">
        <ele>688</ele>
        <time>2020-02-23T12:57:34Z</time>
      </trkpt>
      <trkpt lat="46.04954" lon="4.52362">
        <ele>689</ele>
        <time>2020-02-23T12:58:24Z</time>
      </trkpt>
      <trkpt lat="46.04928" lon="4.52402">
        <ele>690</ele>
        <time>2020-02-23T12:58:34Z</time>
      </trkpt>
      <trkpt lat="46.04837" lon="4.52595">
        <ele>698</ele>
        <time>2020-02-23T12:59:19Z</time>
      </trkpt>
      <trkpt lat="46.04825" lon="4.52601">
        <ele>698</ele>
        <time>2020-02-23T12:59:24Z</time>
      </trkpt>
      <trkpt lat="46.04794" lon="4.52581">
        <ele>700</ele>
        <time>2020-02-23T12:59:39Z</time>
      </trkpt>
      <trkpt lat="46.04781" lon="4.52557">
        <ele>701</ele>
        <time>2020-02-23T12:59:48Z</time>
      </trkpt>
      <trkpt lat="46.04767" lon="4.52504">
        <ele>703</ele>
        <time>2020-02-23T13:00:01Z</time>
      </trkpt>
      <trkpt lat="46.04762" lon="4.52469">
        <ele>705</ele>
        <time>2020-02-23T13:00:08Z</time>
      </trkpt>
      <trkpt lat="46.04718" lon="4.52298">
        <ele>711</ele>
        <time>2020-02-23T13:00:46Z</time>
      </trkpt>
      <trkpt lat="46.04704" lon="4.52283">
        <ele>712</ele>
        <time>2020-02-23T13:00:52Z</time>
      </trkpt>
      <trkpt lat="46.04668" lon="4.52256">
        <ele>716</ele>
        <time>2020-02-23T13:01:08Z</time>
      </trkpt>
      <trkpt lat="46.04661" lon="4.52247">
        <ele>717</ele>
        <time>2020-02-23T13:01:11Z</time>
      </trkpt>
      <trkpt lat="46.04634" lon="4.52151">
        <ele>720</ele>
        <time>2020-02-23T13:01:32Z</time>
      </trkpt>
      <trkpt lat="46.04632" lon="4.52106">
        <ele>722</ele>
        <time>2020-02-23T13:01:42Z</time>
      </trkpt>
      <trkpt lat="46.04643" lon="4.52016">
        <ele>725</ele>
        <time>2020-02-23T13:02:02Z</time>
      </trkpt>
      <trkpt lat="46.04643" lon="4.51883">
        <ele>728</ele>
        <time>2020-02-23T13:02:26Z</time>
      </trkpt>
      <trkpt lat="46.04637" lon="4.51865">
        <ele>728</ele>
        <time>2020-02-23T13:02:30Z</time>
      </trkpt>
      <trkpt lat="46.0463" lon="4.51859">
        <ele>728</ele>
        <time>2020-02-23T13:02:32Z</time>
      </trkpt>
      <trkpt lat="46.04517" lon="4.51823">
        <ele>728</ele>
        <time>2020-02-23T13:03:02Z</time>
      </trkpt>
      <trkpt lat="46.04479" lon="4.51841">
        <ele>727</ele>
        <time>2020-02-23T13:03:09Z</time>
      </trkpt>
      <trkpt lat="46.0443" lon="4.51891">
        <ele>724</ele>
        <time>2020-02-23T13:03:18Z</time>
      </trkpt>
      <trkpt lat="46.04284" lon="4.52092">
        <ele>713</ele>
        <time>2020-02-23T13:03:42Z</time>
      </trkpt>
      <trkpt lat="46.04279" lon="4.52102">
        <ele>712</ele>
        <time>2020-02-23T13:03:43Z</time>
      </trkpt>
      <trkpt lat="46.04276" lon="4.52114">
        <ele>712</ele>
        <time>2020-02-23T13:03:44Z</time>
      </trkpt>
      <trkpt lat="46.04275" lon="4.52125">
        <ele>711</ele>
        <time>2020-02-23T13:03:45Z</time>
      </trkpt>
      <trkpt lat="46.04277" lon="4.52137">
        <ele>711</ele>
        <time>2020-02-23T13:03:46Z</time>
      </trkpt>
      <trkpt lat="46.04282" lon="4.52158">
        <ele>710</ele>
        <time>2020-02-23T13:03:48Z</time>
      </trkpt>
      <trkpt lat="46.04285" lon="4.52167">
        <ele>710</ele>
        <time>2020-02-23T13:03:49Z</time>
      </trkpt>
      <trkpt lat="46.04305" lon="4.52192">
        <ele>709</ele>
        <time>2020-02-23T13:03:53Z</time>
      </trkpt>
      <trkpt lat="46.04335" lon="4.52223">
        <ele>710</ele>
        <time>2020-02-23T13:04:00Z</time>
      </trkpt>
      <trkpt lat="46.04345" lon="4.5224">
        <ele>710</ele>
        <time>2020-02-23T13:04:04Z</time>
      </trkpt>
      <trkpt lat="46.04397" lon="4.52289">
        <ele>714</ele>
        <time>2020-02-23T13:04:24Z</time>
      </trkpt>
      <trkpt lat="46.0442" lon="4.52375">
        <ele>717</ele>
        <time>2020-02-23T13:04:44Z</time>
      </trkpt>
      <trkpt lat="46.04433" lon="4.52494">
        <ele>722</ele>
        <time>2020-02-23T13:05:15Z</time>
      </trkpt>
      <trkpt lat="46.04437" lon="4.52519">
        <ele>723</ele>
        <time>2020-02-23T13:05:21Z</time>
      </trkpt>
      <trkpt lat="46.04417" lon="4.52644">
        <ele>724</ele>
        <time>2020-02-23T13:05:46Z</time>
      </trkpt>
      <trkpt lat="46.04436" lon="4.52753">
        <ele>725</ele>
        <time>2020-02-23T13:06:05Z</time>
      </trkpt>
      <trkpt lat="46.04476" lon="4.52832">
        <ele>724</ele>
        <time>2020-02-23T13:06:18Z</time>
      </trkpt>
      <trkpt lat="46.04508" lon="4.52933">
        <ele>724</ele>
        <time>2020-02-23T13:06:37Z</time>
      </trkpt>
      <trkpt lat="46.04511" lon="4.52956">
        <ele>725</ele>
        <time>2020-02-23T13:06:42Z</time>
      </trkpt>
      <trkpt lat="46.0438" lon="4.53112">
        <ele>718</ele>
        <time>2020-02-23T13:07:14Z</time>
      </trkpt>
      <trkpt lat="46.04359" lon="4.53153">
        <ele>717</ele>
        <time>2020-02-23T13:07:20Z</time>
      </trkpt>
      <trkpt lat="46.04352" lon="4.53181">
        <ele>717</ele>
        <time>2020-02-23T13:07:23Z</time>
      </trkpt>
      <trkpt lat="46.04349" lon="4.53201">
        <ele>715</ele>
        <time>2020-02-23T13:07:25Z</time>
      </trkpt>
      <trkpt lat="46.04351" lon="4.53238">
        <ele>716</ele>
        <time>2020-02-23T13:07:29Z</time>
      </trkpt>
      <trkpt lat="46.04391" lon="4.53377">
        <ele>717</ele>
        <time>2020-02-23T13:07:48Z</time>
      </trkpt>
      <trkpt lat="46.04462" lon="4.53537">
        <ele>722</ele>
        <time>2020-02-23T13:08:19Z</time>
      </trkpt>
      <trkpt lat="46.0448" lon="4.53565">
        <ele>724</ele>
        <time>2020-02-23T13:08:28Z</time>
      </trkpt>
      <trkpt lat="46.04552" lon="4.53608">
        <ele>727</ele>
        <time>2020-02-23T13:08:52Z</time>
      </trkpt>
      <trkpt lat="46.04559" lon="4.53624">
        <ele>726</ele>
        <time>2020-02-23T13:10:14Z</time>
      </trkpt>
      <trkpt lat="46.04549" lon="4.53639">
        <ele>725</ele>
        <time>2020-02-23T13:10:16Z</time>
      </trkpt>
      <trkpt lat="46.04518" lon="4.53657">
        <ele>724</ele>
        <time>2020-02-23T13:10:22Z</time>
      </trkpt>
      <trkpt lat="46.04457" lon="4.53666">
        <ele>721</ele>
        <time>2020-02-23T13:10:32Z</time>
      </trkpt>
      <trkpt lat="46.04408" lon="4.53632">
        <ele>722</ele>
        <time>2020-02-23T13:10:41Z</time>
      </trkpt>
      <trkpt lat="46.04294" lon="4.53528">
        <ele>717</ele>
        <time>2020-02-23T13:11:06Z</time>
      </trkpt>
      <trkpt lat="46.04148" lon="4.53374">
        <ele>713</ele>
        <time>2020-02-23T13:11:33Z</time>
      </trkpt>
      <trkpt lat="46.04113" lon="4.53356">
        <ele>713</ele>
        <time>2020-02-23T13:11:40Z</time>
      </trkpt>
      <trkpt lat="46.04102" lon="4.53357">
        <ele>714</ele>
        <time>2020-02-23T13:11:42Z</time>
      </trkpt>
      <trkpt lat="46.0408" lon="4.53403">
        <ele>715</ele>
        <time>2020-02-23T13:11:51Z</time>
      </trkpt>
      <trkpt lat="46.04052" lon="4.53508">
        <ele>718</ele>
        <time>2020-02-23T13:12:09Z</time>
      </trkpt>
      <trkpt lat="46.04038" lon="4.53644">
        <ele>724</ele>
        <time>2020-02-23T13:12:35Z</time>
      </trkpt>
      <trkpt lat="46.04027" lon="4.53674">
        <ele>726</ele>
        <time>2020-02-23T13:12:44Z</time>
      </trkpt>
      <trkpt lat="46.04013" lon="4.53699">
        <ele>728</ele>
        <time>2020-02-23T13:12:56Z</time>
      </trkpt>
      <trkpt lat="46.03999" lon="4.53711">
        <ele>729</ele>
        <time>2020-02-23T13:12:59Z</time>
      </trkpt>
      <trkpt lat="46.03929" lon="4.53729">
        <ele>734</ele>
        <time>2020-02-23T13:13:29Z</time>
      </trkpt>
      <trkpt lat="46.03918" lon="4.53734">
        <ele>735</ele>
        <time>2020-02-23T13:13:32Z</time>
      </trkpt>
      <trkpt lat="46.03844" lon="4.53808">
        <ele>743</ele>
        <time>2020-02-23T13:14:07Z</time>
      </trkpt>
      <trkpt lat="46.03761" lon="4.53885">
        <ele>751</ele>
        <time>2020-02-23T13:14:41Z</time>
      </trkpt>
      <trkpt lat="46.03753" lon="4.53901">
        <ele>751</ele>
        <time>2020-02-23T13:14:45Z</time>
      </trkpt>
      <trkpt lat="46.03749" lon="4.53925">
        <ele>751</ele>
        <time>2020-02-23T13:14:49Z</time>
      </trkpt>
      <trkpt lat="46.03746" lon="4.53955">
        <ele>750</ele>
        <time>2020-02-23T13:14:54Z</time>
      </trkpt>
      <trkpt lat="46.03754" lon="4.53986">
        <ele>749</ele>
        <time>2020-02-23T13:15:24Z</time>
      </trkpt>
      <trkpt lat="46.03761" lon="4.53997">
        <ele>748</ele>
        <time>2020-02-23T13:15:26Z</time>
      </trkpt>
      <trkpt lat="46.03933" lon="4.54214">
        <ele>721</ele>
        <time>2020-02-23T13:15:54Z</time>
      </trkpt>
      <trkpt lat="46.03964" lon="4.54303">
        <ele>714</ele>
        <time>2020-02-23T13:16:00Z</time>
      </trkpt>
      <trkpt lat="46.03967" lon="4.54436">
        <ele>705</ele>
        <time>2020-02-23T13:16:08Z</time>
      </trkpt>
      <trkpt lat="46.04006" lon="4.54523">
        <ele>704</ele>
        <time>2020-02-23T13:16:21Z</time>
      </trkpt>
      <trkpt lat="46.04039" lon="4.54552">
        <ele>707</ele>
        <time>2020-02-23T13:16:41Z</time>
      </trkpt>
      <trkpt lat="46.04048" lon="4.54558">
        <ele>709</ele>
        <time>2020-02-23T13:16:46Z</time>
      </trkpt>
      <trkpt lat="46.04106" lon="4.54633">
        <ele>723</ele>
        <time>2020-02-23T13:17:21Z</time>
      </trkpt>
      <trkpt lat="46.04113" lon="4.54644">
        <ele>725</ele>
        <time>2020-02-23T13:17:27Z</time>
      </trkpt>
      <trkpt lat="46.04136" lon="4.54667">
        <ele>728</ele>
        <time>2020-02-23T13:17:38Z</time>
      </trkpt>
      <trkpt lat="46.04145" lon="4.54686">
        <ele>729</ele>
        <time>2020-02-23T13:17:42Z</time>
      </trkpt>
      <trkpt lat="46.04146" lon="4.54699">
        <ele>729</ele>
        <time>2020-02-23T13:17:44Z</time>
      </trkpt>
      <trkpt lat="46.04132" lon="4.54736">
        <ele>728</ele>
        <time>2020-02-23T13:17:49Z</time>
      </trkpt>
      <trkpt lat="46.04112" lon="4.54769">
        <ele>726</ele>
        <time>2020-02-23T13:17:54Z</time>
      </trkpt>
      <trkpt lat="46.041" lon="4.54782">
        <ele>725</ele>
        <time>2020-02-23T13:17:57Z</time>
      </trkpt>
      <trkpt lat="46.04032" lon="4.54827">
        <ele>730</ele>
        <time>2020-02-23T13:18:30Z</time>
      </trkpt>
      <trkpt lat="46.03968" lon="4.54865">
        <ele>731</ele>
        <time>2020-02-23T13:18:52Z</time>
      </trkpt>
      <trkpt lat="46.03944" lon="4.54873">
        <ele>730</ele>
        <time>2020-02-23T13:18:58Z</time>
      </trkpt>
      <trkpt lat="46.03912" lon="4.54884">
        <ele>733</ele>
        <time>2020-02-23T13:19:15Z</time>
      </trkpt>
      <trkpt lat="46.0388" lon="4.54894">
        <ele>733</ele>
        <time>2020-02-23T13:19:28Z</time>
      </trkpt>
      <trkpt lat="46.03847" lon="4.54924">
        <ele>732</ele>
        <time>2020-02-23T13:19:40Z</time>
      </trkpt>
      <trkpt lat="46.03794" lon="4.55003">
        <ele>726</ele>
        <time>2020-02-23T13:19:57Z</time>
      </trkpt>
      <trkpt lat="46.03773" lon="4.55025">
        <ele>722</ele>
        <time>2020-02-23T13:20:01Z</time>
      </trkpt>
      <trkpt lat="46.03755" lon="4.55057">
        <ele>720</ele>
        <time>2020-02-23T13:20:06Z</time>
      </trkpt>
      <trkpt lat="46.03747" lon="4.55066">
        <ele>719</ele>
        <time>2020-02-23T13:20:08Z</time>
      </trkpt>
      <trkpt lat="46.0368" lon="4.55127">
        <ele>721</ele>
        <time>2020-02-23T13:20:33Z</time>
      </trkpt>
      <trkpt lat="46.03637" lon="4.55144">
        <ele>721</ele>
        <time>2020-02-23T13:20:42Z</time>
      </trkpt>
      <trkpt lat="46.03616" lon="4.55142">
        <ele>720</ele>
        <time>2020-02-23T13:20:48Z</time>
      </trkpt>
      <trkpt lat="46.03608" lon="4.55142">
        <ele>721</ele>
        <time>2020-02-23T13:20:52Z</time>
      </trkpt>
      <trkpt lat="46.03595" lon="4.55142">
        <ele>720</ele>
        <time>2020-02-23T13:20:55Z</time>
      </trkpt>
      <trkpt lat="46.03538" lon="4.55161">
        <ele>718</ele>
        <time>2020-02-23T13:21:05Z</time>
      </trkpt>
      <trkpt lat="46.03517" lon="4.55156">
        <ele>718</ele>
        <time>2020-02-23T13:21:10Z</time>
      </trkpt>
      <trkpt lat="46.03438" lon="4.5516">
        <ele>706</ele>
        <time>2020-02-23T13:21:33Z</time>
      </trkpt>
      <trkpt lat="46.03432" lon="4.55176">
        <ele>703</ele>
        <time>2020-02-23T13:21:42Z</time>
      </trkpt>
      <trkpt lat="46.03427" lon="4.55201">
        <ele>700</ele>
        <time>2020-02-23T13:21:48Z</time>
      </trkpt>
      <trkpt lat="46.0343" lon="4.55217">
        <ele>697</ele>
        <time>2020-02-23T13:21:52Z</time>
      </trkpt>
      <trkpt lat="46.03428" lon="4.5523">
        <ele>693</ele>
        <time>2020-02-23T13:21:58Z</time>
      </trkpt>
      <trkpt lat="46.03412" lon="4.55236">
        <ele>690</ele>
        <time>2020-02-23T13:22:04Z</time>
      </trkpt>
      <trkpt lat="46.03405" lon="4.55243">
        <ele>688</ele>
        <time>2020-02-23T13:22:09Z</time>
      </trkpt>
      <trkpt lat="46.03415" lon="4.5525">
        <ele>684</ele>
        <time>2020-02-23T13:22:34Z</time>
      </trkpt>
      <trkpt lat="46.0341" lon="4.55259">
        <ele>680</ele>
        <time>2020-02-23T13:23:13Z</time>
      </trkpt>
      <trkpt lat="46.03397" lon="4.55268">
        <ele>674</ele>
        <time>2020-02-23T13:23:31Z</time>
      </trkpt>
      <trkpt lat="46.03389" lon="4.55269">
        <ele>673</ele>
        <time>2020-02-23T13:23:39Z</time>
      </trkpt>
      <trkpt lat="46.03379" lon="4.55274">
        <ele>669</ele>
        <time>2020-02-23T13:24:12Z</time>
      </trkpt>
      <trkpt lat="46.03369" lon="4.55297">
        <ele>660</ele>
        <time>2020-02-23T13:24:44Z</time>
      </trkpt>
      <trkpt lat="46.03375" lon="4.55311">
        <ele>654</ele>
        <time>2020-02-23T13:25:30Z</time>
      </trkpt>
      <trkpt lat="46.0335" lon="4.55322">
        <ele>647</ele>
        <time>2020-02-23T13:25:49Z</time>
      </trkpt>
      <trkpt lat="46.03345" lon="4.55333">
        <ele>644</ele>
        <time>2020-02-23T13:26:00Z</time>
      </trkpt>
      <trkpt lat="46.03302" lon="4.55375">
        <ele>648</ele>
        <time>2020-02-23T13:26:21Z</time>
      </trkpt>
      <trkpt lat="46.03282" lon="4.55384">
        <ele>649</ele>
        <time>2020-02-23T13:26:27Z</time>
      </trkpt>
      <trkpt lat="46.03238" lon="4.55384">
        <ele>652</ele>
        <time>2020-02-23T13:26:39Z</time>
      </trkpt>
      <trkpt lat="46.03181" lon="4.55371">
        <ele>655</ele>
        <time>2020-02-23T13:26:57Z</time>
      </trkpt>
      <trkpt lat="46.03172" lon="4.55365">
        <ele>656</ele>
        <time>2020-02-23T13:27:51Z</time>
      </trkpt>
      <trkpt lat="46.03166" lon="4.55326">
        <ele>655</ele>
        <time>2020-02-23T13:27:59Z</time>
      </trkpt>
      <trkpt lat="46.03156" lon="4.55319">
        <ele>655</ele>
        <time>2020-02-23T13:28:03Z</time>
      </trkpt>
      <trkpt lat="46.03132" lon="4.55333">
        <ele>655</ele>
        <time>2020-02-23T13:28:14Z</time>
      </trkpt>
      <trkpt lat="46.03033" lon="4.55406">
        <ele>660</ele>
        <time>2020-02-23T13:28:49Z</time>
      </trkpt>
      <trkpt lat="46.02989" lon="4.55444">
        <ele>663</ele>
        <time>2020-02-23T13:29:00Z</time>
      </trkpt>
      <trkpt lat="46.02962" lon="4.55488">
        <ele>665</ele>
        <time>2020-02-23T13:29:10Z</time>
      </trkpt>
      <trkpt lat="46.02915" lon="4.55523">
        <ele>668</ele>
        <time>2020-02-23T13:29:22Z</time>
      </trkpt>
      <trkpt lat="46.02893" lon="4.55532">
        <ele>669</ele>
        <time>2020-02-23T13:29:27Z</time>
      </trkpt>
      <trkpt lat="46.02791" lon="4.55603">
        <ele>675</ele>
        <time>2020-02-23T13:29:59Z</time>
      </trkpt>
      <trkpt lat="46.02765" lon="4.55619">
        <ele>677</ele>
        <time>2020-02-23T13:30:07Z</time>
      </trkpt>
      <trkpt lat="46.02689" lon="4.55639">
        <ele>681</ele>
        <time>2020-02-23T13:30:29Z</time>
      </trkpt>
      <trkpt lat="46.02675" lon="4.55651">
        <ele>682</ele>
        <time>2020-02-23T13:31:45Z</time>
      </trkpt>
      <trkpt lat="46.02666" lon="4.55661">
        <ele>683</ele>
        <time>2020-02-23T13:31:49Z</time>
      </trkpt>
      <trkpt lat="46.0259" lon="4.55658">
        <ele>687</ele>
        <time>2020-02-23T13:32:09Z</time>
      </trkpt>
      <trkpt lat="46.02444" lon="4.55562">
        <ele>683</ele>
        <time>2020-02-23T13:32:34Z</time>
      </trkpt>
      <trkpt lat="46.02431" lon="4.55526">
        <ele>680</ele>
        <time>2020-02-23T13:32:37Z</time>
      </trkpt>
      <trkpt lat="46.02426" lon="4.55472">
        <ele>677</ele>
        <time>2020-02-23T13:32:41Z</time>
      </trkpt>
      <trkpt lat="46.02432" lon="4.55409">
        <ele>674</ele>
        <time>2020-02-23T13:32:45Z</time>
      </trkpt>
      <trkpt lat="46.02452" lon="4.55375">
        <ele>672</ele>
        <time>2020-02-23T13:32:48Z</time>
      </trkpt>
      <trkpt lat="46.02506" lon="4.55329">
        <ele>669</ele>
        <time>2020-02-23T13:32:54Z</time>
      </trkpt>
      <trkpt lat="46.02622" lon="4.55108">
        <ele>667</ele>
        <time>2020-02-23T13:33:24Z</time>
      </trkpt>
      <trkpt lat="46.02628" lon="4.55094">
        <ele>667</ele>
        <time>2020-02-23T13:33:26Z</time>
      </trkpt>
      <trkpt lat="46.02629" lon="4.55077">
        <ele>668</ele>
        <time>2020-02-23T13:33:32Z</time>
      </trkpt>
      <trkpt lat="46.0263" lon="4.55064">
        <ele>668</ele>
        <time>2020-02-23T13:33:34Z</time>
      </trkpt>
      <trkpt lat="46.0261" lon="4.54896">
        <ele>673</ele>
        <time>2020-02-23T13:34:08Z</time>
      </trkpt>
      <trkpt lat="46.02588" lon="4.54848">
        <ele>675</ele>
        <time>2020-02-23T13:34:18Z</time>
      </trkpt>
      <trkpt lat="46.02575" lon="4.54834">
        <ele>675</ele>
        <time>2020-02-23T13:34:22Z</time>
      </trkpt>
      <trkpt lat="46.02557" lon="4.54824">
        <ele>676</ele>
        <time>2020-02-23T13:34:27Z</time>
      </trkpt>
      <trkpt lat="46.02493" lon="4.54836">
        <ele>679</ele>
        <time>2020-02-23T13:34:47Z</time>
      </trkpt>
      <trkpt lat="46.02346" lon="4.54925">
        <ele>681</ele>
        <time>2020-02-23T13:35:24Z</time>
      </trkpt>
      <trkpt lat="46.02225" lon="4.54943">
        <ele>679</ele>
        <time>2020-02-23T13:35:43Z</time>
      </trkpt>
      <trkpt lat="46.02201" lon="4.54939">
        <ele>678</ele>
        <time>2020-02-23T13:35:46Z</time>
      </trkpt>
      <trkpt lat="46.02182" lon="4.54917">
        <ele>677</ele>
        <time>2020-02-23T13:35:49Z</time>
      </trkpt>
      <trkpt lat="46.02178" lon="4.54887">
        <ele>676</ele>
        <time>2020-02-23T13:35:52Z</time>
      </trkpt>
      <trkpt lat="46.02189" lon="4.54815">
        <ele>675</ele>
        <time>2020-02-23T13:35:57Z</time>
      </trkpt>
      <trkpt lat="46.02244" lon="4.54676">
        <ele>669</ele>
        <time>2020-02-23T13:36:11Z</time>
      </trkpt>
      <trkpt lat="46.02282" lon="4.54527">
        <ele>659</ele>
        <time>2020-02-23T13:36:22Z</time>
      </trkpt>
      <trkpt lat="46.02283" lon="4.54499">
        <ele>658</ele>
        <time>2020-02-23T13:36:24Z</time>
      </trkpt>
      <trkpt lat="46.02282" lon="4.54483">
        <ele>658</ele>
        <time>2020-02-23T13:36:25Z</time>
      </trkpt>
      <trkpt lat="46.0228" lon="4.54459">
        <ele>656</ele>
        <time>2020-02-23T13:36:27Z</time>
      </trkpt>
      <trkpt lat="46.0225" lon="4.54334">
        <ele>650</ele>
        <time>2020-02-23T13:36:35Z</time>
      </trkpt>
      <trkpt lat="46.02251" lon="4.54273">
        <ele>647</ele>
        <time>2020-02-23T13:36:39Z</time>
      </trkpt>
      <trkpt lat="46.02265" lon="4.54228">
        <ele>645</ele>
        <time>2020-02-23T13:36:42Z</time>
      </trkpt>
      <trkpt lat="46.02277" lon="4.54208">
        <ele>643</ele>
        <time>2020-02-23T13:36:44Z</time>
      </trkpt>
      <trkpt lat="46.02375" lon="4.54163">
        <ele>638</ele>
        <time>2020-02-23T13:36:53Z</time>
      </trkpt>
      <trkpt lat="46.0239" lon="4.54147">
        <ele>636</ele>
        <time>2020-02-23T13:36:55Z</time>
      </trkpt>
      <trkpt lat="46.02418" lon="4.54086">
        <ele>634</ele>
        <time>2020-02-23T13:36:59Z</time>
      </trkpt>
      <trkpt lat="46.02427" lon="4.54048">
        <ele>632</ele>
        <time>2020-02-23T13:37:02Z</time>
      </trkpt>
      <trkpt lat="46.02426" lon="4.54008">
        <ele>630</ele>
        <time>2020-02-23T13:37:05Z</time>
      </trkpt>
      <trkpt lat="46.02421" lon="4.53986">
        <ele>629</ele>
        <time>2020-02-23T13:37:07Z</time>
      </trkpt>
      <trkpt lat="46.02409" lon="4.5396">
        <ele>628</ele>
        <time>2020-02-23T13:37:09Z</time>
      </trkpt>
      <trkpt lat="46.02328" lon="4.53838">
        <ele>623</ele>
        <time>2020-02-23T13:37:25Z</time>
      </trkpt>
      <trkpt lat="46.02304" lon="4.53786">
        <ele>621</ele>
        <time>2020-02-23T13:37:31Z</time>
      </trkpt>
      <trkpt lat="46.02297" lon="4.53723">
        <ele>620</ele>
        <time>2020-02-23T13:37:37Z</time>
      </trkpt>
      <trkpt lat="46.02289" lon="4.53706">
        <ele>620</ele>
        <time>2020-02-23T13:37:39Z</time>
      </trkpt>
      <trkpt lat="46.02279" lon="4.53693">
        <ele>620</ele>
        <time>2020-02-23T13:37:41Z</time>
      </trkpt>
      <trkpt lat="46.02271" lon="4.53695">
        <ele>620</ele>
        <time>2020-02-23T13:37:43Z</time>
      </trkpt>
      <trkpt lat="46.02261" lon="4.53715">
        <ele>620</ele>
        <time>2020-02-23T13:37:47Z</time>
      </trkpt>
      <trkpt lat="46.02174" lon="4.53841">
        <ele>624</ele>
        <time>2020-02-23T13:38:11Z</time>
      </trkpt>
      <trkpt lat="46.02077" lon="4.53914">
        <ele>628</ele>
        <time>2020-02-23T13:38:31Z</time>
      </trkpt>
      <trkpt lat="46.02064" lon="4.53917">
        <ele>628</ele>
        <time>2020-02-23T13:38:34Z</time>
      </trkpt>
      <trkpt lat="46.02052" lon="4.53919">
        <ele>629</ele>
        <time>2020-02-23T13:38:36Z</time>
      </trkpt>
      <trkpt lat="46.02044" lon="4.53926">
        <ele>629</ele>
        <time>2020-02-23T13:38:38Z</time>
      </trkpt>
      <trkpt lat="46.01942" lon="4.53863">
        <ele>632</ele>
        <time>2020-02-23T13:38:57Z</time>
      </trkpt>
      <trkpt lat="46.01923" lon="4.53861">
        <ele>633</ele>
        <time>2020-02-23T13:39:02Z</time>
      </trkpt>
      <trkpt lat="46.01907" lon="4.53864">
        <ele>633</ele>
        <time>2020-02-23T13:39:08Z</time>
      </trkpt>
      <trkpt lat="46.01948" lon="4.53865">
        <ele>632</ele>
        <time>2020-02-23T13:39:35Z</time>
      </trkpt>
      <trkpt lat="46.01955" lon="4.53869">
        <ele>632</ele>
        <time>2020-02-23T13:39:37Z</time>
      </trkpt>
      <trkpt lat="46.01964" lon="4.53864">
        <ele>632</ele>
        <time>2020-02-23T13:39:42Z</time>
      </trkpt>
      <trkpt lat="46.01941" lon="4.53842">
        <ele>630</ele>
        <time>2020-02-23T13:39:50Z</time>
      </trkpt>
      <trkpt lat="46.01924" lon="4.53835">
        <ele>628</ele>
        <time>2020-02-23T13:39:54Z</time>
      </trkpt>
      <trkpt lat="46.0187" lon="4.53841">
        <ele>623</ele>
        <time>2020-02-23T13:40:07Z</time>
      </trkpt>
      <trkpt lat="46.01878" lon="4.53846">
        <ele>622</ele>
        <time>2020-02-23T13:40:50Z</time>
      </trkpt>
      <trkpt lat="46.01889" lon="4.53845">
        <ele>623</ele>
        <time>2020-02-23T13:40:55Z</time>
      </trkpt>
      <trkpt lat="46.01902" lon="4.53839">
        <ele>624</ele>
        <time>2020-02-23T13:40:59Z</time>
      </trkpt>
      <trkpt lat="46.0191" lon="4.53838">
        <ele>624</ele>
        <time>2020-02-23T13:41:01Z</time>
      </trkpt>
      <trkpt lat="46.01937" lon="4.53841">
        <ele>627</ele>
        <time>2020-02-23T13:41:09Z</time>
      </trkpt>
      <trkpt lat="46.01965" lon="4.53865">
        <ele>630</ele>
        <time>2020-02-23T13:41:19Z</time>
      </trkpt>
      <trkpt lat="46.01954" lon="4.53863">
        <ele>632</ele>
        <time>2020-02-23T13:41:26Z</time>
      </trkpt>
      <trkpt lat="46.01919" lon="4.53861">
        <ele>632</ele>
        <time>2020-02-23T13:41:34Z</time>
      </trkpt>
      <trkpt lat="46.01881" lon="4.53887">
        <ele>633</ele>
        <time>2020-02-23T13:41:40Z</time>
      </trkpt>
      <trkpt lat="46.01818" lon="4.53956">
        <ele>636</ele>
        <time>2020-02-23T13:41:55Z</time>
      </trkpt>
      <trkpt lat="46.01801" lon="4.53994">
        <ele>636</ele>
        <time>2020-02-23T13:42:01Z</time>
      </trkpt>
      <trkpt lat="46.01798" lon="4.54011">
        <ele>637</ele>
        <time>2020-02-23T13:42:03Z</time>
      </trkpt>
      <trkpt lat="46.01861" lon="4.54221">
        <ele>635</ele>
        <time>2020-02-23T13:42:28Z</time>
      </trkpt>
      <trkpt lat="46.01863" lon="4.5425">
        <ele>635</ele>
        <time>2020-02-23T13:42:31Z</time>
      </trkpt>
      <trkpt lat="46.01854" lon="4.54351">
        <ele>634</ele>
        <time>2020-02-23T13:42:42Z</time>
      </trkpt>
      <trkpt lat="46.01849" lon="4.54364">
        <ele>633</ele>
        <time>2020-02-23T13:42:44Z</time>
      </trkpt>
      <trkpt lat="46.01797" lon="4.54416">
        <ele>632</ele>
        <time>2020-02-23T13:42:54Z</time>
      </trkpt>
      <trkpt lat="46.01764" lon="4.54502">
        <ele>632</ele>
        <time>2020-02-23T13:43:05Z</time>
      </trkpt>
      <trkpt lat="46.01749" lon="4.5452">
        <ele>631</ele>
        <time>2020-02-23T13:43:08Z</time>
      </trkpt>
      <trkpt lat="46.01715" lon="4.54532">
        <ele>630</ele>
        <time>2020-02-23T13:43:14Z</time>
      </trkpt>
      <trkpt lat="46.01701" lon="4.54531">
        <ele>629</ele>
        <time>2020-02-23T13:43:16Z</time>
      </trkpt>
      <trkpt lat="46.01687" lon="4.54527">
        <ele>629</ele>
        <time>2020-02-23T13:43:18Z</time>
      </trkpt>
      <trkpt lat="46.01669" lon="4.54512">
        <ele>629</ele>
        <time>2020-02-23T13:43:22Z</time>
      </trkpt>
      <trkpt lat="46.01618" lon="4.54434">
        <ele>629</ele>
        <time>2020-02-23T13:43:36Z</time>
      </trkpt>
      <trkpt lat="46.01596" lon="4.54377">
        <ele>629</ele>
        <time>2020-02-23T13:43:45Z</time>
      </trkpt>
      <trkpt lat="46.01594" lon="4.54363">
        <ele>629</ele>
        <time>2020-02-23T13:43:47Z</time>
      </trkpt>
      <trkpt lat="46.01584" lon="4.54339">
        <ele>628</ele>
        <time>2020-02-23T13:43:51Z</time>
      </trkpt>
      <trkpt lat="46.0151" lon="4.54252">
        <ele>627</ele>
        <time>2020-02-23T13:44:07Z</time>
      </trkpt>
      <trkpt lat="46.01486" lon="4.54241">
        <ele>626</ele>
        <time>2020-02-23T13:44:11Z</time>
      </trkpt>
      <trkpt lat="46.01472" lon="4.54241">
        <ele>625</ele>
        <time>2020-02-23T13:44:13Z</time>
      </trkpt>
      <trkpt lat="46.0144" lon="4.54254">
        <ele>625</ele>
        <time>2020-02-23T13:44:18Z</time>
      </trkpt>
      <trkpt lat="46.01427" lon="4.54265">
        <ele>625</ele>
        <time>2020-02-23T13:44:20Z</time>
      </trkpt>
      <trkpt lat="46.0135" lon="4.54368">
        <ele>623</ele>
        <time>2020-02-23T13:44:37Z</time>
      </trkpt>
      <trkpt lat="46.0134" lon="4.54362">
        <ele>622</ele>
        <time>2020-02-23T13:44:39Z</time>
      </trkpt>
      <trkpt lat="46.01329" lon="4.5435">
        <ele>623</ele>
        <time>2020-02-23T13:44:41Z</time>
      </trkpt>
      <trkpt lat="46.0133" lon="4.54335">
        <ele>623</ele>
        <time>2020-02-23T13:44:43Z</time>
      </trkpt>
      <trkpt lat="46.01327" lon="4.54318">
        <ele>623</ele>
        <time>2020-02-23T13:44:46Z</time>
      </trkpt>
      <trkpt lat="46.01317" lon="4.54294">
        <ele>622</ele>
        <time>2020-02-23T13:44:50Z</time>
      </trkpt>
      <trkpt lat="46.01305" lon="4.54263">
        <ele>622</ele>
        <time>2020-02-23T13:44:56Z</time>
      </trkpt>
      <trkpt lat="46.01298" lon="4.54244">
        <ele>623</ele>
        <time>2020-02-23T13:45:00Z</time>
      </trkpt>
      <trkpt lat="46.01295" lon="4.54226">
        <ele>623</ele>
        <time>2020-02-23T13:45:04Z</time>
      </trkpt>
      <trkpt lat="46.0127" lon="4.54178">
        <ele>623</ele>
        <time>2020-02-23T13:45:14Z</time>
      </trkpt>
      <trkpt lat="46.01265" lon="4.54157">
        <ele>624</ele>
        <time>2020-02-23T13:45:18Z</time>
      </trkpt>
      <trkpt lat="46.01261" lon="4.54148">
        <ele>624</ele>
        <time>2020-02-23T13:45:20Z</time>
      </trkpt>
      <trkpt lat="46.01248" lon="4.54141">
        <ele>624</ele>
        <time>2020-02-23T13:45:24Z</time>
      </trkpt>
      <trkpt lat="46.01138" lon="4.54188">
        <ele>628</ele>
        <time>2020-02-23T13:45:58Z</time>
      </trkpt>
      <trkpt lat="46.01109" lon="4.54201">
        <ele>629</ele>
        <time>2020-02-23T13:46:06Z</time>
      </trkpt>
      <trkpt lat="46.01087" lon="4.54202">
        <ele>630</ele>
        <time>2020-02-23T13:46:12Z</time>
      </trkpt>
      <trkpt lat="46.01051" lon="4.5419">
        <ele>630</ele>
        <time>2020-02-23T13:46:22Z</time>
      </trkpt>
      <trkpt lat="46.0103" lon="4.54174">
        <ele>632</ele>
        <time>2020-02-23T13:46:29Z</time>
      </trkpt>
      <trkpt lat="46.00979" lon="4.54161">
        <ele>633</ele>
        <time>2020-02-23T13:46:45Z</time>
      </trkpt>
      <trkpt lat="46.00969" lon="4.54156">
        <ele>634</ele>
        <time>2020-02-23T13:46:48Z</time>
      </trkpt>
      <trkpt lat="46.00962" lon="4.54147">
        <ele>634</ele>
        <time>2020-02-23T13:46:52Z</time>
      </trkpt>
      <trkpt lat="46.00961" lon="4.5413">
        <ele>635</ele>
        <time>2020-02-23T13:46:56Z</time>
      </trkpt>
      <trkpt lat="46.00964" lon="4.54117">
        <ele>635</ele>
        <time>2020-02-23T13:47:02Z</time>
      </trkpt>
      <trkpt lat="46.00979" lon="4.54107">
        <ele>636</ele>
        <time>2020-02-23T13:47:08Z</time>
      </trkpt>
      <trkpt lat="46.0099" lon="4.54095">
        <ele>637</ele>
        <time>2020-02-23T13:47:12Z</time>
      </trkpt>
      <trkpt lat="46.01002" lon="4.54088">
        <ele>637</ele>
        <time>2020-02-23T13:47:15Z</time>
      </trkpt>
      <trkpt lat="46.01065" lon="4.54012">
        <ele>641</ele>
        <time>2020-02-23T13:47:34Z</time>
      </trkpt>
      <trkpt lat="46.0107" lon="4.53994">
        <ele>642</ele>
        <time>2020-02-23T13:47:39Z</time>
      </trkpt>
      <trkpt lat="46.01072" lon="4.53983">
        <ele>642</ele>
        <time>2020-02-23T13:47:41Z</time>
      </trkpt>
      <trkpt lat="46.01068" lon="4.53903">
        <ele>644</ele>
        <time>2020-02-23T13:47:57Z</time>
      </trkpt>
      <trkpt lat="46.01065" lon="4.53889">
        <ele>644</ele>
        <time>2020-02-23T13:48:00Z</time>
      </trkpt>
      <trkpt lat="46.01066" lon="4.53858">
        <ele>644</ele>
        <time>2020-02-23T13:48:07Z</time>
      </trkpt>
      <trkpt lat="46.011" lon="4.53773">
        <ele>647</ele>
        <time>2020-02-23T13:48:24Z</time>
      </trkpt>
      <trkpt lat="46.01131" lon="4.53726">
        <ele>647</ele>
        <time>2020-02-23T13:48:32Z</time>
      </trkpt>
      <trkpt lat="46.01131" lon="4.53701">
        <ele>646</ele>
        <time>2020-02-23T13:48:36Z</time>
      </trkpt>
      <trkpt lat="46.0113" lon="4.53688">
        <ele>646</ele>
        <time>2020-02-23T13:48:38Z</time>
      </trkpt>
      <trkpt lat="46.01117" lon="4.53665">
        <ele>645</ele>
        <time>2020-02-23T13:48:42Z</time>
      </trkpt>
      <trkpt lat="46.01108" lon="4.53654">
        <ele>645</ele>
        <time>2020-02-23T13:48:44Z</time>
      </trkpt>
      <trkpt lat="46.01075" lon="4.53614">
        <ele>640</ele>
        <time>2020-02-23T13:48:54Z</time>
      </trkpt>
      <trkpt lat="46.01047" lon="4.53607">
        <ele>638</ele>
        <time>2020-02-23T13:49:00Z</time>
      </trkpt>
      <trkpt lat="46.0104" lon="4.53599">
        <ele>638</ele>
        <time>2020-02-23T13:49:02Z</time>
      </trkpt>
      <trkpt lat="46.00994" lon="4.53585">
        <ele>635</ele>
        <time>2020-02-23T13:49:09Z</time>
      </trkpt>
      <trkpt lat="46.00982" lon="4.53591">
        <ele>634</ele>
        <time>2020-02-23T13:49:11Z</time>
      </trkpt>
      <trkpt lat="46.00975" lon="4.53587">
        <ele>634</ele>
        <time>2020-02-23T13:49:12Z</time>
      </trkpt>
      <trkpt lat="46.00841" lon="4.53579">
        <ele>630</ele>
        <time>2020-02-23T13:49:33Z</time>
      </trkpt>
      <trkpt lat="46.00754" lon="4.53594">
        <ele>628</ele>
        <time>2020-02-23T13:49:49Z</time>
      </trkpt>
      <trkpt lat="46.00692" lon="4.53577">
        <ele>626</ele>
        <time>2020-02-23T13:50:00Z</time>
      </trkpt>
      <trkpt lat="46.00557" lon="4.53606">
        <ele>634</ele>
        <time>2020-02-23T13:50:39Z</time>
      </trkpt>
      <trkpt lat="46.00544" lon="4.53603">
        <ele>635</ele>
        <time>2020-02-23T13:50:43Z</time>
      </trkpt>
      <trkpt lat="46.00519" lon="4.53585">
        <ele>636</ele>
        <time>2020-02-23T13:50:53Z</time>
      </trkpt>
      <trkpt lat="46.00488" lon="4.53556">
        <ele>640</ele>
        <time>2020-02-23T13:51:07Z</time>
      </trkpt>
      <trkpt lat="46.00468" lon="4.53545">
        <ele>641</ele>
        <time>2020-02-23T13:51:15Z</time>
      </trkpt>
      <trkpt lat="46.00444" lon="4.53535">
        <ele>644</ele>
        <time>2020-02-23T13:51:27Z</time>
      </trkpt>
      <trkpt lat="46.00444" lon="4.53549">
        <ele>645</ele>
        <time>2020-02-23T13:51:33Z</time>
      </trkpt>
      <trkpt lat="46.00452" lon="4.53557">
        <ele>645</ele>
        <time>2020-02-23T13:51:37Z</time>
      </trkpt>
      <trkpt lat="46.00459" lon="4.53575">
        <ele>645</ele>
        <time>2020-02-23T13:51:43Z</time>
      </trkpt>
      <trkpt lat="46.00464" lon="4.53637">
        <ele>650</ele>
        <time>2020-02-23T13:52:00Z</time>
      </trkpt>
      <trkpt lat="46.00469" lon="4.53651">
        <ele>652</ele>
        <time>2020-02-23T13:52:07Z</time>
      </trkpt>
      <trkpt lat="46.00466" lon="4.5362">
        <ele>652</ele>
        <time>2020-02-23T13:52:35Z</time>
      </trkpt>
      <trkpt lat="46.00456" lon="4.53562">
        <ele>646</ele>
        <time>2020-02-23T13:52:45Z</time>
      </trkpt>
      <trkpt lat="46.00448" lon="4.5354">
        <ele>646</ele>
        <time>2020-02-23T13:52:52Z</time>
      </trkpt>
      <trkpt lat="46.00442" lon="4.53527">
        <ele>645</ele>
        <time>2020-02-23T13:52:56Z</time>
      </trkpt>
      <trkpt lat="46.00432" lon="4.53504">
        <ele>645</ele>
        <time>2020-02-23T13:53:04Z</time>
      </trkpt>
      <trkpt lat="46.00424" lon="4.53506">
        <ele>645</ele>
        <time>2020-02-23T13:53:10Z</time>
      </trkpt>
      <trkpt lat="46.00431" lon="4.53545">
        <ele>643</ele>
        <time>2020-02-23T13:53:22Z</time>
      </trkpt>
      <trkpt lat="46.0043" lon="4.53562">
        <ele>641</ele>
        <time>2020-02-23T13:53:24Z</time>
      </trkpt>
      <trkpt lat="46.00426" lon="4.5358">
        <ele>640</ele>
        <time>2020-02-23T13:53:26Z</time>
      </trkpt>
      <trkpt lat="46.00408" lon="4.53614">
        <ele>637</ele>
        <time>2020-02-23T13:53:30Z</time>
      </trkpt>
      <trkpt lat="46.0034" lon="4.53701">
        <ele>624</ele>
        <time>2020-02-23T13:53:42Z</time>
      </trkpt>
      <trkpt lat="46.00333" lon="4.53715">
        <ele>623</ele>
        <time>2020-02-23T13:53:44Z</time>
      </trkpt>
      <trkpt lat="46.00327" lon="4.53747">
        <ele>620</ele>
        <time>2020-02-23T13:53:48Z</time>
      </trkpt>
      <trkpt lat="46.00333" lon="4.53767">
        <ele>618</ele>
        <time>2020-02-23T13:53:51Z</time>
      </trkpt>
      <trkpt lat="46.00344" lon="4.53782">
        <ele>618</ele>
        <time>2020-02-23T13:53:53Z</time>
      </trkpt>
      <trkpt lat="46.0036" lon="4.5381">
        <ele>615</ele>
        <time>2020-02-23T13:53:56Z</time>
      </trkpt>
      <trkpt lat="46.00368" lon="4.53833">
        <ele>613</ele>
        <time>2020-02-23T13:53:58Z</time>
      </trkpt>
      <trkpt lat="46.00369" lon="4.53869">
        <ele>611</ele>
        <time>2020-02-23T13:54:01Z</time>
      </trkpt>
      <trkpt lat="46.00354" lon="4.53942">
        <ele>610</ele>
        <time>2020-02-23T13:54:08Z</time>
      </trkpt>
      <trkpt lat="46.00355" lon="4.53984">
        <ele>613</ele>
        <time>2020-02-23T13:54:17Z</time>
      </trkpt>
      <trkpt lat="46.00355" lon="4.5402">
        <ele>613</ele>
        <time>2020-02-23T13:54:26Z</time>
      </trkpt>
      <trkpt lat="46.00343" lon="4.54046">
        <ele>615</ele>
        <time>2020-02-23T13:54:36Z</time>
      </trkpt>
      <trkpt lat="46.00332" lon="4.54055">
        <ele>617</ele>
        <time>2020-02-23T13:54:42Z</time>
      </trkpt>
      <trkpt lat="46.00254" lon="4.54066">
        <ele>623</ele>
        <time>2020-02-23T13:55:11Z</time>
      </trkpt>
      <trkpt lat="46.00229" lon="4.5408">
        <ele>625</ele>
        <time>2020-02-23T13:55:21Z</time>
      </trkpt>
      <trkpt lat="46.0022" lon="4.54091">
        <ele>626</ele>
        <time>2020-02-23T13:55:26Z</time>
      </trkpt>
      <trkpt lat="46.002" lon="4.54129">
        <ele>630</ele>
        <time>2020-02-23T13:55:38Z</time>
      </trkpt>
      <trkpt lat="46.00195" lon="4.54163">
        <ele>633</ele>
        <time>2020-02-23T13:55:48Z</time>
      </trkpt>
      <trkpt lat="46.00188" lon="4.54171">
        <ele>636</ele>
        <time>2020-02-23T13:55:54Z</time>
      </trkpt>
      <trkpt lat="46.00164" lon="4.5426">
        <ele>647</ele>
        <time>2020-02-23T13:56:27Z</time>
      </trkpt>
      <trkpt lat="46.00158" lon="4.54274">
        <ele>647</ele>
        <time>2020-02-23T13:56:33Z</time>
      </trkpt>
      <trkpt lat="46.00155" lon="4.54296">
        <ele>649</ele>
        <time>2020-02-23T13:56:41Z</time>
      </trkpt>
      <trkpt lat="46.00155" lon="4.54308">
        <ele>650</ele>
        <time>2020-02-23T13:56:45Z</time>
      </trkpt>
      <trkpt lat="46.0015" lon="4.54321">
        <ele>650</ele>
        <time>2020-02-23T13:56:50Z</time>
      </trkpt>
      <trkpt lat="46.00137" lon="4.54405">
        <ele>653</ele>
        <time>2020-02-23T13:57:10Z</time>
      </trkpt>
      <trkpt lat="46.00116" lon="4.5443">
        <ele>655</ele>
        <time>2020-02-23T13:57:23Z</time>
      </trkpt>
      <trkpt lat="46.00103" lon="4.54436">
        <ele>656</ele>
        <time>2020-02-23T13:57:30Z</time>
      </trkpt>
      <trkpt lat="46.00094" lon="4.54437">
        <ele>657</ele>
        <time>2020-02-23T13:57:34Z</time>
      </trkpt>
      <trkpt lat="46.00071" lon="4.54451">
        <ele>659</ele>
        <time>2020-02-23T13:57:45Z</time>
      </trkpt>
      <trkpt lat="46.00049" lon="4.54459">
        <ele>661</ele>
        <time>2020-02-23T13:57:54Z</time>
      </trkpt>
      <trkpt lat="45.99995" lon="4.54487">
        <ele>668</ele>
        <time>2020-02-23T13:58:24Z</time>
      </trkpt>
      <trkpt lat="45.99988" lon="4.54495">
        <ele>669</ele>
        <time>2020-02-23T13:58:31Z</time>
      </trkpt>
      <trkpt lat="45.9998" lon="4.54506">
        <ele>671</ele>
        <time>2020-02-23T13:58:37Z</time>
      </trkpt>
      <trkpt lat="45.99974" lon="4.5451">
        <ele>672</ele>
        <time>2020-02-23T13:58:43Z</time>
      </trkpt>
      <trkpt lat="45.99965" lon="4.54519">
        <ele>673</ele>
        <time>2020-02-23T13:58:54Z</time>
      </trkpt>
      <trkpt lat="45.99925" lon="4.54526">
        <ele>678</ele>
        <time>2020-02-23T13:59:16Z</time>
      </trkpt>
      <trkpt lat="45.99889" lon="4.54548">
        <ele>686</ele>
        <time>2020-02-23T13:59:47Z</time>
      </trkpt>
      <trkpt lat="45.99869" lon="4.54557">
        <ele>690</ele>
        <time>2020-02-23T14:00:10Z</time>
      </trkpt>
      <trkpt lat="45.99864" lon="4.54567">
        <ele>690</ele>
        <time>2020-02-23T14:00:27Z</time>
      </trkpt>
      <trkpt lat="45.9985" lon="4.54588">
        <ele>694</ele>
        <time>2020-02-23T14:00:40Z</time>
      </trkpt>
      <trkpt lat="45.9985" lon="4.54598">
        <ele>694</ele>
        <time>2020-02-23T14:01:57Z</time>
      </trkpt>
      <trkpt lat="45.99851" lon="4.54657">
        <ele>694</ele>
        <time>2020-02-23T14:02:16Z</time>
      </trkpt>
      <trkpt lat="45.99851" lon="4.54648">
        <ele>694</ele>
        <time>2020-02-23T14:02:40Z</time>
      </trkpt>
      <trkpt lat="45.99852" lon="4.54621">
        <ele>694</ele>
        <time>2020-02-23T14:02:48Z</time>
      </trkpt>
      <trkpt lat="45.99856" lon="4.54605">
        <ele>694</ele>
        <time>2020-02-23T14:02:53Z</time>
      </trkpt>
      <trkpt lat="45.99855" lon="4.54593">
        <ele>694</ele>
        <time>2020-02-23T14:02:58Z</time>
      </trkpt>
      <trkpt lat="45.99845" lon="4.54594">
        <ele>694</ele>
        <time>2020-02-23T14:03:04Z</time>
      </trkpt>
      <trkpt lat="45.99841" lon="4.54603">
        <ele>694</ele>
        <time>2020-02-23T14:03:06Z</time>
      </trkpt>
      <trkpt lat="45.99829" lon="4.54672">
        <ele>687</ele>
        <time>2020-02-23T14:04:13Z</time>
      </trkpt>
      <trkpt lat="45.99821" lon="4.54771">
        <ele>682</ele>
        <time>2020-02-23T14:04:30Z</time>
      </trkpt>
      <trkpt lat="45.9978" lon="4.54848">
        <ele>674</ele>
        <time>2020-02-23T14:04:42Z</time>
      </trkpt>
      <trkpt lat="45.99777" lon="4.54864">
        <ele>670</ele>
        <time>2020-02-23T14:04:59Z</time>
      </trkpt>
      <trkpt lat="45.99794" lon="4.54924">
        <ele>664</ele>
        <time>2020-02-23T14:05:14Z</time>
      </trkpt>
      <trkpt lat="45.99789" lon="4.54986">
        <ele>657</ele>
        <time>2020-02-23T14:05:25Z</time>
      </trkpt>
      <trkpt lat="45.99777" lon="4.55037">
        <ele>652</ele>
        <time>2020-02-23T14:05:34Z</time>
      </trkpt>
      <trkpt lat="45.9977" lon="4.55094">
        <ele>648</ele>
        <time>2020-02-23T14:05:43Z</time>
      </trkpt>
      <trkpt lat="45.99767" lon="4.55119">
        <ele>648</ele>
        <time>2020-02-23T14:05:48Z</time>
      </trkpt>
      <trkpt lat="45.99743" lon="4.55172">
        <ele>648</ele>
        <time>2020-02-23T14:05:58Z</time>
      </trkpt>
      <trkpt lat="45.99704" lon="4.55238">
        <ele>651</ele>
        <time>2020-02-23T14:06:15Z</time>
      </trkpt>
      <trkpt lat="45.99691" lon="4.55257">
        <ele>650</ele>
        <time>2020-02-23T14:06:19Z</time>
      </trkpt>
      <trkpt lat="45.99687" lon="4.55269">
        <ele>650</ele>
        <time>2020-02-23T14:06:20Z</time>
      </trkpt>
      <trkpt lat="45.99671" lon="4.55281">
        <ele>649</ele>
        <time>2020-02-23T14:06:23Z</time>
      </trkpt>
      <trkpt lat="45.99663" lon="4.55291">
        <ele>649</ele>
        <time>2020-02-23T14:06:25Z</time>
      </trkpt>
      <trkpt lat="45.99657" lon="4.55311">
        <ele>648</ele>
        <time>2020-02-23T14:06:29Z</time>
      </trkpt>
      <trkpt lat="45.99639" lon="4.55323">
        <ele>649</ele>
        <time>2020-02-23T14:06:34Z</time>
      </trkpt>
      <trkpt lat="45.99631" lon="4.55325">
        <ele>649</ele>
        <time>2020-02-23T14:06:36Z</time>
      </trkpt>
      <trkpt lat="45.99584" lon="4.55314">
        <ele>649</ele>
        <time>2020-02-23T14:06:45Z</time>
      </trkpt>
      <trkpt lat="45.99516" lon="4.55346">
        <ele>647</ele>
        <time>2020-02-23T14:06:57Z</time>
      </trkpt>
      <trkpt lat="45.99498" lon="4.55386">
        <ele>646</ele>
        <time>2020-02-23T14:07:04Z</time>
      </trkpt>
      <trkpt lat="45.99467" lon="4.55523">
        <ele>653</ele>
        <time>2020-02-23T14:07:38Z</time>
      </trkpt>
      <trkpt lat="45.9945" lon="4.55582">
        <ele>654</ele>
        <time>2020-02-23T14:07:50Z</time>
      </trkpt>
      <trkpt lat="45.99453" lon="4.55622">
        <ele>656</ele>
        <time>2020-02-23T14:08:00Z</time>
      </trkpt>
      <trkpt lat="45.99455" lon="4.55638">
        <ele>656</ele>
        <time>2020-02-23T14:08:04Z</time>
      </trkpt>
      <trkpt lat="45.99455" lon="4.55649">
        <ele>657</ele>
        <time>2020-02-23T14:08:06Z</time>
      </trkpt>
      <trkpt lat="45.99462" lon="4.55695">
        <ele>657</ele>
        <time>2020-02-23T14:08:16Z</time>
      </trkpt>
      <trkpt lat="45.99465" lon="4.55724">
        <ele>659</ele>
        <time>2020-02-23T14:08:24Z</time>
      </trkpt>
      <trkpt lat="45.99456" lon="4.55735">
        <ele>661</ele>
        <time>2020-02-23T14:08:29Z</time>
      </trkpt>
      <trkpt lat="45.99368" lon="4.5575">
        <ele>665</ele>
        <time>2020-02-23T14:08:59Z</time>
      </trkpt>
      <trkpt lat="45.99356" lon="4.55753">
        <ele>666</ele>
        <time>2020-02-23T14:09:04Z</time>
      </trkpt>
      <trkpt lat="45.99335" lon="4.55765">
        <ele>668</ele>
        <time>2020-02-23T14:09:13Z</time>
      </trkpt>
      <trkpt lat="45.99326" lon="4.55774">
        <ele>668</ele>
        <time>2020-02-23T14:09:17Z</time>
      </trkpt>
      <trkpt lat="45.99317" lon="4.55793">
        <ele>670</ele>
        <time>2020-02-23T14:09:23Z</time>
      </trkpt>
      <trkpt lat="45.99315" lon="4.55809">
        <ele>670</ele>
        <time>2020-02-23T14:09:27Z</time>
      </trkpt>
      <trkpt lat="45.99332" lon="4.55903">
        <ele>670</ele>
        <time>2020-02-23T14:09:47Z</time>
      </trkpt>
      <trkpt lat="45.9933" lon="4.55919">
        <ele>670</ele>
        <time>2020-02-23T14:09:52Z</time>
      </trkpt>
      <trkpt lat="45.99294" lon="4.5593">
        <ele>670</ele>
        <time>2020-02-23T14:10:04Z</time>
      </trkpt>
      <trkpt lat="45.99255" lon="4.55937">
        <ele>672</ele>
        <time>2020-02-23T14:10:14Z</time>
      </trkpt>
      <trkpt lat="45.99225" lon="4.55937">
        <ele>676</ele>
        <time>2020-02-23T14:10:27Z</time>
      </trkpt>
      <trkpt lat="45.99215" lon="4.5593">
        <ele>678</ele>
        <time>2020-02-23T14:10:32Z</time>
      </trkpt>
      <trkpt lat="45.99181" lon="4.55929">
        <ele>680</ele>
        <time>2020-02-23T14:10:47Z</time>
      </trkpt>
      <trkpt lat="45.99124" lon="4.5592">
        <ele>680</ele>
        <time>2020-02-23T14:11:05Z</time>
      </trkpt>
      <trkpt lat="45.99104" lon="4.55925">
        <ele>680</ele>
        <time>2020-02-23T14:11:11Z</time>
      </trkpt>
      <trkpt lat="45.99098" lon="4.55931">
        <ele>680</ele>
        <time>2020-02-23T14:11:13Z</time>
      </trkpt>
      <trkpt lat="45.99094" lon="4.55943">
        <ele>679</ele>
        <time>2020-02-23T14:11:15Z</time>
      </trkpt>
      <trkpt lat="45.99094" lon="4.55959">
        <ele>678</ele>
        <time>2020-02-23T14:11:17Z</time>
      </trkpt>
      <trkpt lat="45.99102" lon="4.56012">
        <ele>674</ele>
        <time>2020-02-23T14:11:24Z</time>
      </trkpt>
      <trkpt lat="45.99091" lon="4.56062">
        <ele>671</ele>
        <time>2020-02-23T14:11:35Z</time>
      </trkpt>
      <trkpt lat="45.9908" lon="4.56077">
        <ele>671</ele>
        <time>2020-02-23T14:11:41Z</time>
      </trkpt>
      <trkpt lat="45.99093" lon="4.56062">
        <ele>673</ele>
        <time>2020-02-23T15:23:16Z</time>
      </trkpt>
      <trkpt lat="45.99063" lon="4.56083">
        <ele>670</ele>
        <time>2020-02-23T15:23:31Z</time>
      </trkpt>
      <trkpt lat="45.99058" lon="4.56098">
        <ele>669</ele>
        <time>2020-02-23T15:23:36Z</time>
      </trkpt>
      <trkpt lat="45.99046" lon="4.5613">
        <ele>673</ele>
        <time>2020-02-23T15:24:02Z</time>
      </trkpt>
      <trkpt lat="45.99048" lon="4.5612">
        <ele>673</ele>
        <time>2020-02-23T15:24:10Z</time>
      </trkpt>
      <trkpt lat="45.99059" lon="4.56106">
        <ele>671</ele>
        <time>2020-02-23T15:24:14Z</time>
      </trkpt>
      <trkpt lat="45.99055" lon="4.56098">
        <ele>669</ele>
        <time>2020-02-23T15:24:19Z</time>
      </trkpt>
      <trkpt lat="45.99031" lon="4.56105">
        <ele>667</ele>
        <time>2020-02-23T15:24:25Z</time>
      </trkpt>
      <trkpt lat="45.99006" lon="4.56126">
        <ele>665</ele>
        <time>2020-02-23T15:24:36Z</time>
      </trkpt>
      <trkpt lat="45.98998" lon="4.56136">
        <ele>664</ele>
        <time>2020-02-23T15:24:40Z</time>
      </trkpt>
      <trkpt lat="45.98906" lon="4.56201">
        <ele>658</ele>
        <time>2020-02-23T15:24:58Z</time>
      </trkpt>
      <trkpt lat="45.98893" lon="4.56203">
        <ele>658</ele>
        <time>2020-02-23T15:25:00Z</time>
      </trkpt>
      <trkpt lat="45.98872" lon="4.56193">
        <ele>657</ele>
        <time>2020-02-23T15:25:03Z</time>
      </trkpt>
      <trkpt lat="45.98818" lon="4.5614">
        <ele>654</ele>
        <time>2020-02-23T15:25:12Z</time>
      </trkpt>
      <trkpt lat="45.98704" lon="4.56005">
        <ele>648</ele>
        <time>2020-02-23T15:25:32Z</time>
      </trkpt>
      <trkpt lat="45.98687" lon="4.55998">
        <ele>647</ele>
        <time>2020-02-23T15:25:36Z</time>
      </trkpt>
      <trkpt lat="45.98682" lon="4.55983">
        <ele>646</ele>
        <time>2020-02-23T15:25:44Z</time>
      </trkpt>
      <trkpt lat="45.9869" lon="4.55963">
        <ele>643</ele>
        <time>2020-02-23T15:25:50Z</time>
      </trkpt>
      <trkpt lat="45.98707" lon="4.55946">
        <ele>634</ele>
        <time>2020-02-23T15:26:00Z</time>
      </trkpt>
      <trkpt lat="45.98724" lon="4.55947">
        <ele>630</ele>
        <time>2020-02-23T15:26:11Z</time>
      </trkpt>
      <trkpt lat="45.98718" lon="4.55938">
        <ele>628</ele>
        <time>2020-02-23T15:30:01Z</time>
      </trkpt>
      <trkpt lat="45.98698" lon="4.55917">
        <ele>626</ele>
        <time>2020-02-23T15:30:07Z</time>
      </trkpt>
      <trkpt lat="45.98689" lon="4.55912">
        <ele>626</ele>
        <time>2020-02-23T15:30:08Z</time>
      </trkpt>
      <trkpt lat="45.98681" lon="4.55903">
        <ele>625</ele>
        <time>2020-02-23T15:30:10Z</time>
      </trkpt>
      <trkpt lat="45.98655" lon="4.55892">
        <ele>623</ele>
        <time>2020-02-23T15:30:14Z</time>
      </trkpt>
      <trkpt lat="45.98616" lon="4.55898">
        <ele>620</ele>
        <time>2020-02-23T15:30:21Z</time>
      </trkpt>
      <trkpt lat="45.98578" lon="4.55926">
        <ele>616</ele>
        <time>2020-02-23T15:30:28Z</time>
      </trkpt>
      <trkpt lat="45.98552" lon="4.55965">
        <ele>609</ele>
        <time>2020-02-23T15:30:36Z</time>
      </trkpt>
      <trkpt lat="45.9854" lon="4.56007">
        <ele>605</ele>
        <time>2020-02-23T15:30:47Z</time>
      </trkpt>
      <trkpt lat="45.98533" lon="4.56017">
        <ele>604</ele>
        <time>2020-02-23T15:30:49Z</time>
      </trkpt>
      <trkpt lat="45.98495" lon="4.56002">
        <ele>601</ele>
        <time>2020-02-23T15:30:58Z</time>
      </trkpt>
      <trkpt lat="45.98449" lon="4.55942">
        <ele>601</ele>
        <time>2020-02-23T15:31:15Z</time>
      </trkpt>
      <trkpt lat="45.98419" lon="4.55926">
        <ele>597</ele>
        <time>2020-02-23T15:31:21Z</time>
      </trkpt>
      <trkpt lat="45.98407" lon="4.55926">
        <ele>595</ele>
        <time>2020-02-23T15:31:26Z</time>
      </trkpt>
      <trkpt lat="45.9839" lon="4.55937">
        <ele>594</ele>
        <time>2020-02-23T15:31:30Z</time>
      </trkpt>
      <trkpt lat="45.98374" lon="4.55955">
        <ele>592</ele>
        <time>2020-02-23T15:31:33Z</time>
      </trkpt>
      <trkpt lat="45.98362" lon="4.55979">
        <ele>590</ele>
        <time>2020-02-23T15:31:36Z</time>
      </trkpt>
      <trkpt lat="45.98356" lon="4.55986">
        <ele>590</ele>
        <time>2020-02-23T15:31:37Z</time>
      </trkpt>
      <trkpt lat="45.98349" lon="4.55989">
        <ele>589</ele>
        <time>2020-02-23T15:31:38Z</time>
      </trkpt>
      <trkpt lat="45.98292" lon="4.55969">
        <ele>589</ele>
        <time>2020-02-23T15:31:48Z</time>
      </trkpt>
      <trkpt lat="45.98261" lon="4.55963">
        <ele>591</ele>
        <time>2020-02-23T15:31:56Z</time>
      </trkpt>
      <trkpt lat="45.98251" lon="4.55957">
        <ele>593</ele>
        <time>2020-02-23T15:32:01Z</time>
      </trkpt>
      <trkpt lat="45.98168" lon="4.55935">
        <ele>594</ele>
        <time>2020-02-23T15:32:28Z</time>
      </trkpt>
      <trkpt lat="45.98146" lon="4.55939">
        <ele>595</ele>
        <time>2020-02-23T15:32:36Z</time>
      </trkpt>
      <trkpt lat="45.98094" lon="4.55964">
        <ele>596</ele>
        <time>2020-02-23T15:32:53Z</time>
      </trkpt>
      <trkpt lat="45.98052" lon="4.56018">
        <ele>594</ele>
        <time>2020-02-23T15:33:02Z</time>
      </trkpt>
      <trkpt lat="45.98045" lon="4.56034">
        <ele>593</ele>
        <time>2020-02-23T15:33:04Z</time>
      </trkpt>
      <trkpt lat="45.98035" lon="4.56069">
        <ele>592</ele>
        <time>2020-02-23T15:33:08Z</time>
      </trkpt>
      <trkpt lat="45.98032" lon="4.56111">
        <ele>592</ele>
        <time>2020-02-23T15:33:13Z</time>
      </trkpt>
      <trkpt lat="45.98013" lon="4.56156">
        <ele>586</ele>
        <time>2020-02-23T15:33:18Z</time>
      </trkpt>
      <trkpt lat="45.97979" lon="4.562">
        <ele>580</ele>
        <time>2020-02-23T15:33:23Z</time>
      </trkpt>
      <trkpt lat="45.9797" lon="4.56204">
        <ele>580</ele>
        <time>2020-02-23T15:33:24Z</time>
      </trkpt>
      <trkpt lat="45.97943" lon="4.56202">
        <ele>579</ele>
        <time>2020-02-23T15:33:28Z</time>
      </trkpt>
      <trkpt lat="45.97922" lon="4.56213">
        <ele>580</ele>
        <time>2020-02-23T15:33:33Z</time>
      </trkpt>
      <trkpt lat="45.97839" lon="4.56303">
        <ele>586</ele>
        <time>2020-02-23T15:34:03Z</time>
      </trkpt>
      <trkpt lat="45.97817" lon="4.56317">
        <ele>587</ele>
        <time>2020-02-23T15:34:12Z</time>
      </trkpt>
      <trkpt lat="45.9776" lon="4.56326">
        <ele>585</ele>
        <time>2020-02-23T15:34:22Z</time>
      </trkpt>
      <trkpt lat="45.9775" lon="4.56321">
        <ele>584</ele>
        <time>2020-02-23T15:34:24Z</time>
      </trkpt>
      <trkpt lat="45.97661" lon="4.56262">
        <ele>583</ele>
        <time>2020-02-23T15:34:41Z</time>
      </trkpt>
      <trkpt lat="45.97651" lon="4.5626">
        <ele>583</ele>
        <time>2020-02-23T15:34:43Z</time>
      </trkpt>
      <trkpt lat="45.97631" lon="4.56261">
        <ele>582</ele>
        <time>2020-02-23T15:34:47Z</time>
      </trkpt>
      <trkpt lat="45.97451" lon="4.5634">
        <ele>584</ele>
        <time>2020-02-23T15:35:41Z</time>
      </trkpt>
      <trkpt lat="45.97439" lon="4.56339">
        <ele>584</ele>
        <time>2020-02-23T15:35:46Z</time>
      </trkpt>
      <trkpt lat="45.97362" lon="4.5635">
        <ele>582</ele>
        <time>2020-02-23T15:36:07Z</time>
      </trkpt>
      <trkpt lat="45.97102" lon="4.56464">
        <ele>563</ele>
        <time>2020-02-23T15:36:37Z</time>
      </trkpt>
      <trkpt lat="45.97059" lon="4.56469">
        <ele>562</ele>
        <time>2020-02-23T15:36:42Z</time>
      </trkpt>
      <trkpt lat="45.97012" lon="4.5646">
        <ele>563</ele>
        <time>2020-02-23T15:36:48Z</time>
      </trkpt>
      <trkpt lat="45.96902" lon="4.56372">
        <ele>557</ele>
        <time>2020-02-23T15:37:04Z</time>
      </trkpt>
      <trkpt lat="45.96763" lon="4.56336">
        <ele>560</ele>
        <time>2020-02-23T15:37:38Z</time>
      </trkpt>
      <trkpt lat="45.96814" lon="4.56345">
        <ele>560</ele>
        <time>2020-02-23T15:37:50Z</time>
      </trkpt>
      <trkpt lat="45.96822" lon="4.56334">
        <ele>559</ele>
        <time>2020-02-23T15:37:54Z</time>
      </trkpt>
      <trkpt lat="45.96816" lon="4.5632">
        <ele>559</ele>
        <time>2020-02-23T15:37:58Z</time>
      </trkpt>
      <trkpt lat="45.96808" lon="4.56315">
        <ele>560</ele>
        <time>2020-02-23T15:38:00Z</time>
      </trkpt>
      <trkpt lat="45.96719" lon="4.56233">
        <ele>568</ele>
        <time>2020-02-23T15:38:39Z</time>
      </trkpt>
      <trkpt lat="45.96695" lon="4.5621">
        <ele>570</ele>
        <time>2020-02-23T15:38:51Z</time>
      </trkpt>
      <trkpt lat="45.96641" lon="4.56082">
        <ele>570</ele>
        <time>2020-02-23T15:39:18Z</time>
      </trkpt>
      <trkpt lat="45.96628" lon="4.56065">
        <ele>569</ele>
        <time>2020-02-23T15:39:22Z</time>
      </trkpt>
      <trkpt lat="45.96619" lon="4.56053">
        <ele>567</ele>
        <time>2020-02-23T15:39:26Z</time>
      </trkpt>
      <trkpt lat="45.96606" lon="4.56046">
        <ele>565</ele>
        <time>2020-02-23T15:39:30Z</time>
      </trkpt>
      <trkpt lat="45.96589" lon="4.56052">
        <ele>562</ele>
        <time>2020-02-23T15:39:39Z</time>
      </trkpt>
      <trkpt lat="45.96577" lon="4.56054">
        <ele>562</ele>
        <time>2020-02-23T15:39:59Z</time>
      </trkpt>
      <trkpt lat="45.9655" lon="4.56081">
        <ele>560</ele>
        <time>2020-02-23T15:40:15Z</time>
      </trkpt>
      <trkpt lat="45.96557" lon="4.56079">
        <ele>560</ele>
        <time>2020-02-23T15:40:33Z</time>
      </trkpt>
      <trkpt lat="45.96566" lon="4.56069">
        <ele>560</ele>
        <time>2020-02-23T15:40:37Z</time>
      </trkpt>
      <trkpt lat="45.96583" lon="4.56054">
        <ele>561</ele>
        <time>2020-02-23T15:40:43Z</time>
      </trkpt>
      <trkpt lat="45.96596" lon="4.56046">
        <ele>561</ele>
        <time>2020-02-23T15:40:47Z</time>
      </trkpt>
      <trkpt lat="45.966" lon="4.56028">
        <ele>561</ele>
        <time>2020-02-23T15:40:51Z</time>
      </trkpt>
      <trkpt lat="45.9659" lon="4.56019">
        <ele>561</ele>
        <time>2020-02-23T15:40:53Z</time>
      </trkpt>
      <trkpt lat="45.96538" lon="4.5592">
        <ele>551</ele>
        <time>2020-02-23T15:41:08Z</time>
      </trkpt>
      <trkpt lat="45.96535" lon="4.55896">
        <ele>549</ele>
        <time>2020-02-23T15:41:12Z</time>
      </trkpt>
      <trkpt lat="45.96528" lon="4.55878">
        <ele>547</ele>
        <time>2020-02-23T15:41:15Z</time>
      </trkpt>
      <trkpt lat="45.96506" lon="4.55848">
        <ele>542</ele>
        <time>2020-02-23T15:41:20Z</time>
      </trkpt>
      <trkpt lat="45.96501" lon="4.55802">
        <ele>533</ele>
        <time>2020-02-23T15:41:27Z</time>
      </trkpt>
      <trkpt lat="45.96493" lon="4.55789">
        <ele>530</ele>
        <time>2020-02-23T15:41:29Z</time>
      </trkpt>
      <trkpt lat="45.96434" lon="4.55712">
        <ele>514</ele>
        <time>2020-02-23T15:41:41Z</time>
      </trkpt>
      <trkpt lat="45.96384" lon="4.55608">
        <ele>500</ele>
        <time>2020-02-23T15:41:52Z</time>
      </trkpt>
      <trkpt lat="45.96376" lon="4.55573">
        <ele>495</ele>
        <time>2020-02-23T15:42:22Z</time>
      </trkpt>
      <trkpt lat="45.9636" lon="4.55581">
        <ele>494</ele>
        <time>2020-02-23T15:42:27Z</time>
      </trkpt>
      <trkpt lat="45.96345" lon="4.55617">
        <ele>493</ele>
        <time>2020-02-23T15:42:32Z</time>
      </trkpt>
      <trkpt lat="45.96321" lon="4.55736">
        <ele>490</ele>
        <time>2020-02-23T15:42:44Z</time>
      </trkpt>
      <trkpt lat="45.96325" lon="4.55766">
        <ele>489</ele>
        <time>2020-02-23T15:42:47Z</time>
      </trkpt>
      <trkpt lat="45.96319" lon="4.55787">
        <ele>489</ele>
        <time>2020-02-23T15:42:49Z</time>
      </trkpt>
      <trkpt lat="45.96309" lon="4.55803">
        <ele>488</ele>
        <time>2020-02-23T15:42:51Z</time>
      </trkpt>
      <trkpt lat="45.9624" lon="4.55816">
        <ele>491</ele>
        <time>2020-02-23T15:43:07Z</time>
      </trkpt>
      <trkpt lat="45.96231" lon="4.55825">
        <ele>492</ele>
        <time>2020-02-23T15:43:11Z</time>
      </trkpt>
      <trkpt lat="45.96219" lon="4.55828">
        <ele>493</ele>
        <time>2020-02-23T15:43:15Z</time>
      </trkpt>
      <trkpt lat="45.96191" lon="4.55849">
        <ele>496</ele>
        <time>2020-02-23T15:43:27Z</time>
      </trkpt>
      <trkpt lat="45.96166" lon="4.55875">
        <ele>497</ele>
        <time>2020-02-23T15:43:37Z</time>
      </trkpt>
      <trkpt lat="45.96104" lon="4.55979">
        <ele>499</ele>
        <time>2020-02-23T15:44:01Z</time>
      </trkpt>
      <trkpt lat="45.96092" lon="4.55992">
        <ele>499</ele>
        <time>2020-02-23T15:44:04Z</time>
      </trkpt>
      <trkpt lat="45.96026" lon="4.56018">
        <ele>493</ele>
        <time>2020-02-23T15:44:15Z</time>
      </trkpt>
      <trkpt lat="45.96021" lon="4.5605">
        <ele>491</ele>
        <time>2020-02-23T15:44:21Z</time>
      </trkpt>
      <trkpt lat="45.9602" lon="4.56079">
        <ele>490</ele>
        <time>2020-02-23T15:44:25Z</time>
      </trkpt>
      <trkpt lat="45.96026" lon="4.56101">
        <ele>489</ele>
        <time>2020-02-23T15:44:28Z</time>
      </trkpt>
      <trkpt lat="45.96077" lon="4.56152">
        <ele>486</ele>
        <time>2020-02-23T15:44:37Z</time>
      </trkpt>
      <trkpt lat="45.96092" lon="4.56168">
        <ele>482</ele>
        <time>2020-02-23T15:44:42Z</time>
      </trkpt>
      <trkpt lat="45.96102" lon="4.5619">
        <ele>480</ele>
        <time>2020-02-23T15:44:49Z</time>
      </trkpt>
      <trkpt lat="45.96114" lon="4.56202">
        <ele>480</ele>
        <time>2020-02-23T15:44:53Z</time>
      </trkpt>
      <trkpt lat="45.9612" lon="4.56207">
        <ele>481</ele>
        <time>2020-02-23T15:44:55Z</time>
      </trkpt>
      <trkpt lat="45.96135" lon="4.56231">
        <ele>482</ele>
        <time>2020-02-23T15:45:01Z</time>
      </trkpt>
      <trkpt lat="45.9616" lon="4.56325">
        <ele>486</ele>
        <time>2020-02-23T15:45:19Z</time>
      </trkpt>
      <trkpt lat="45.9616" lon="4.56349">
        <ele>487</ele>
        <time>2020-02-23T15:45:23Z</time>
      </trkpt>
      <trkpt lat="45.96158" lon="4.56359">
        <ele>487</ele>
        <time>2020-02-23T15:45:25Z</time>
      </trkpt>
      <trkpt lat="45.9615" lon="4.56377">
        <ele>488</ele>
        <time>2020-02-23T15:45:29Z</time>
      </trkpt>
      <trkpt lat="45.96089" lon="4.56429">
        <ele>493</ele>
        <time>2020-02-23T15:45:49Z</time>
      </trkpt>
      <trkpt lat="45.96048" lon="4.56454">
        <ele>495</ele>
        <time>2020-02-23T15:46:02Z</time>
      </trkpt>
      <trkpt lat="45.95968" lon="4.56623">
        <ele>502</ele>
        <time>2020-02-23T15:46:38Z</time>
      </trkpt>
      <trkpt lat="45.95942" lon="4.56645">
        <ele>503</ele>
        <time>2020-02-23T15:46:44Z</time>
      </trkpt>
      <trkpt lat="45.95913" lon="4.56689">
        <ele>500</ele>
        <time>2020-02-23T15:46:50Z</time>
      </trkpt>
      <trkpt lat="45.9591" lon="4.56699">
        <ele>499</ele>
        <time>2020-02-23T15:46:51Z</time>
      </trkpt>
      <trkpt lat="45.95912" lon="4.56717">
        <ele>498</ele>
        <time>2020-02-23T15:46:53Z</time>
      </trkpt>
      <trkpt lat="45.95918" lon="4.56732">
        <ele>497</ele>
        <time>2020-02-23T15:46:55Z</time>
      </trkpt>
      <trkpt lat="45.95932" lon="4.56745">
        <ele>497</ele>
        <time>2020-02-23T15:46:58Z</time>
      </trkpt>
      <trkpt lat="45.95924" lon="4.56766">
        <ele>497</ele>
        <time>2020-02-23T15:47:03Z</time>
      </trkpt>
      <trkpt lat="45.95916" lon="4.56774">
        <ele>496</ele>
        <time>2020-02-23T15:47:05Z</time>
      </trkpt>
      <trkpt lat="45.95906" lon="4.5678">
        <ele>494</ele>
        <time>2020-02-23T15:47:07Z</time>
      </trkpt>
      <trkpt lat="45.95895" lon="4.5678">
        <ele>492</ele>
        <time>2020-02-23T15:47:09Z</time>
      </trkpt>
      <trkpt lat="45.95884" lon="4.56786">
        <ele>489</ele>
        <time>2020-02-23T15:47:12Z</time>
      </trkpt>
      <trkpt lat="45.95877" lon="4.56812">
        <ele>485</ele>
        <time>2020-02-23T15:47:16Z</time>
      </trkpt>
      <trkpt lat="45.95864" lon="4.56822">
        <ele>482</ele>
        <time>2020-02-23T15:47:20Z</time>
      </trkpt>
      <trkpt lat="45.9584" lon="4.56817">
        <ele>475</ele>
        <time>2020-02-23T15:47:26Z</time>
      </trkpt>
      <trkpt lat="45.9581" lon="4.56836">
        <ele>469</ele>
        <time>2020-02-23T15:47:33Z</time>
      </trkpt>
      <trkpt lat="45.95775" lon="4.56843">
        <ele>458</ele>
        <time>2020-02-23T15:47:41Z</time>
      </trkpt>
      <trkpt lat="45.95762" lon="4.56842">
        <ele>454</ele>
        <time>2020-02-23T15:47:44Z</time>
      </trkpt>
      <trkpt lat="45.95702" lon="4.56812">
        <ele>438</ele>
        <time>2020-02-23T15:47:55Z</time>
      </trkpt>
      <trkpt lat="45.95695" lon="4.56802">
        <ele>437</ele>
        <time>2020-02-23T15:47:57Z</time>
      </trkpt>
      <trkpt lat="45.95688" lon="4.56795">
        <ele>434</ele>
        <time>2020-02-23T15:47:59Z</time>
      </trkpt>
      <trkpt lat="45.95667" lon="4.56794">
        <ele>429</ele>
        <time>2020-02-23T15:48:03Z</time>
      </trkpt>
      <trkpt lat="45.95637" lon="4.56804">
        <ele>421</ele>
        <time>2020-02-23T15:48:09Z</time>
      </trkpt>
      <trkpt lat="45.9563" lon="4.56809">
        <ele>419</ele>
        <time>2020-02-23T15:48:11Z</time>
      </trkpt>
      <trkpt lat="45.9557" lon="4.56809">
        <ele>406</ele>
        <time>2020-02-23T15:48:22Z</time>
      </trkpt>
      <trkpt lat="45.95553" lon="4.56801">
        <ele>404</ele>
        <time>2020-02-23T15:48:25Z</time>
      </trkpt>
      <trkpt lat="45.95531" lon="4.56801">
        <ele>399</ele>
        <time>2020-02-23T15:48:29Z</time>
      </trkpt>
      <trkpt lat="45.9551" lon="4.56807">
        <ele>394</ele>
        <time>2020-02-23T15:48:33Z</time>
      </trkpt>
      <trkpt lat="45.95392" lon="4.56792">
        <ele>377</ele>
        <time>2020-02-23T15:48:57Z</time>
      </trkpt>
      <trkpt lat="45.95372" lon="4.56771">
        <ele>373</ele>
        <time>2020-02-23T15:49:03Z</time>
      </trkpt>
      <trkpt lat="45.95342" lon="4.56764">
        <ele>365</ele>
        <time>2020-02-23T15:49:10Z</time>
      </trkpt>
      <trkpt lat="45.9533" lon="4.56766">
        <ele>361</ele>
        <time>2020-02-23T15:49:14Z</time>
      </trkpt>
      <trkpt lat="45.95333" lon="4.5678">
        <ele>359</ele>
        <time>2020-02-23T15:49:22Z</time>
      </trkpt>
      <trkpt lat="45.95339" lon="4.56796">
        <ele>360</ele>
        <time>2020-02-23T15:49:27Z</time>
      </trkpt>
      <trkpt lat="45.95367" lon="4.56853">
        <ele>360</ele>
        <time>2020-02-23T15:49:37Z</time>
      </trkpt>
      <trkpt lat="45.95372" lon="4.5688">
        <ele>360</ele>
        <time>2020-02-23T15:49:41Z</time>
      </trkpt>
      <trkpt lat="45.95418" lon="4.56994">
        <ele>361</ele>
        <time>2020-02-23T15:50:02Z</time>
      </trkpt>
      <trkpt lat="45.95441" lon="4.57055">
        <ele>366</ele>
        <time>2020-02-23T15:50:18Z</time>
      </trkpt>
      <trkpt lat="45.95456" lon="4.57083">
        <ele>366</ele>
        <time>2020-02-23T15:50:24Z</time>
      </trkpt>
      <trkpt lat="45.95532" lon="4.57192">
        <ele>367</ele>
        <time>2020-02-23T15:50:51Z</time>
      </trkpt>
      <trkpt lat="45.95561" lon="4.57257">
        <ele>366</ele>
        <time>2020-02-23T15:51:04Z</time>
      </trkpt>
      <trkpt lat="45.95562" lon="4.57283">
        <ele>365</ele>
        <time>2020-02-23T15:51:07Z</time>
      </trkpt>
      <trkpt lat="45.95557" lon="4.57314">
        <ele>364</ele>
        <time>2020-02-23T15:51:12Z</time>
      </trkpt>
      <trkpt lat="45.95554" lon="4.5733">
        <ele>367</ele>
        <time>2020-02-23T15:51:19Z</time>
      </trkpt>
      <trkpt lat="45.95504" lon="4.57449">
        <ele>384</ele>
        <time>2020-02-23T15:52:10Z</time>
      </trkpt>
      <trkpt lat="45.95478" lon="4.57493">
        <ele>393</ele>
        <time>2020-02-23T15:52:34Z</time>
      </trkpt>
      <trkpt lat="45.95461" lon="4.57511">
        <ele>396</ele>
        <time>2020-02-23T15:52:44Z</time>
      </trkpt>
      <trkpt lat="45.95454" lon="4.57525">
        <ele>398</ele>
        <time>2020-02-23T15:52:51Z</time>
      </trkpt>
      <trkpt lat="45.9545" lon="4.57537">
        <ele>400</ele>
        <time>2020-02-23T15:52:57Z</time>
      </trkpt>
      <trkpt lat="45.9544" lon="4.57551">
        <ele>402</ele>
        <time>2020-02-23T15:53:04Z</time>
      </trkpt>
      <trkpt lat="45.95438" lon="4.57571">
        <ele>405</ele>
        <time>2020-02-23T15:53:13Z</time>
      </trkpt>
      <trkpt lat="45.95432" lon="4.57587">
        <ele>407</ele>
        <time>2020-02-23T15:53:22Z</time>
      </trkpt>
      <trkpt lat="45.95424" lon="4.57585">
        <ele>409</ele>
        <time>2020-02-23T15:53:27Z</time>
      </trkpt>
      <trkpt lat="45.95417" lon="4.57576">
        <ele>410</ele>
        <time>2020-02-23T15:53:31Z</time>
      </trkpt>
      <trkpt lat="45.95334" lon="4.57561">
        <ele>407</ele>
        <time>2020-02-23T15:53:53Z</time>
      </trkpt>
      <trkpt lat="45.95322" lon="4.57545">
        <ele>406</ele>
        <time>2020-02-23T15:53:57Z</time>
      </trkpt>
      <trkpt lat="45.9535" lon="4.57468">
        <ele>405</ele>
        <time>2020-02-23T15:54:36Z</time>
      </trkpt>
      <trkpt lat="45.95338" lon="4.57481">
        <ele>405</ele>
        <time>2020-02-23T15:54:47Z</time>
      </trkpt>
      <trkpt lat="45.95311" lon="4.57536">
        <ele>407</ele>
        <time>2020-02-23T15:55:01Z</time>
      </trkpt>
      <trkpt lat="45.95298" lon="4.57551">
        <ele>408</ele>
        <time>2020-02-23T15:55:08Z</time>
      </trkpt>
      <trkpt lat="45.95284" lon="4.57557">
        <ele>412</ele>
        <time>2020-02-23T15:55:15Z</time>
      </trkpt>
      <trkpt lat="45.95267" lon="4.57548">
        <ele>417</ele>
        <time>2020-02-23T15:55:26Z</time>
      </trkpt>
      <trkpt lat="45.95247" lon="4.57557">
        <ele>422</ele>
        <time>2020-02-23T15:55:44Z</time>
      </trkpt>
      <trkpt lat="45.95241" lon="4.57563">
        <ele>424</ele>
        <time>2020-02-23T15:55:49Z</time>
      </trkpt>
      <trkpt lat="45.95245" lon="4.57561">
        <ele>425</ele>
        <time>2020-02-23T15:56:18Z</time>
      </trkpt>
      <trkpt lat="45.9526" lon="4.57542">
        <ele>423</ele>
        <time>2020-02-23T15:56:26Z</time>
      </trkpt>
      <trkpt lat="45.95262" lon="4.57525">
        <ele>424</ele>
        <time>2020-02-23T15:56:33Z</time>
      </trkpt>
      <trkpt lat="45.95247" lon="4.57555">
        <ele>424</ele>
        <time>2020-02-23T15:56:57Z</time>
      </trkpt>
      <trkpt lat="45.95234" lon="4.5757">
        <ele>424</ele>
        <time>2020-02-23T15:57:03Z</time>
      </trkpt>
      <trkpt lat="45.95214" lon="4.57601">
        <ele>428</ele>
        <time>2020-02-23T15:57:15Z</time>
      </trkpt>
      <trkpt lat="45.95143" lon="4.57654">
        <ele>440</ele>
        <time>2020-02-23T15:57:51Z</time>
      </trkpt>
      <trkpt lat="45.95118" lon="4.57691">
        <ele>445</ele>
        <time>2020-02-23T15:58:10Z</time>
      </trkpt>
      <trkpt lat="45.95073" lon="4.57733">
        <ele>449</ele>
        <time>2020-02-23T15:58:30Z</time>
      </trkpt>
      <trkpt lat="45.95001" lon="4.57774">
        <ele>457</ele>
        <time>2020-02-23T15:58:59Z</time>
      </trkpt>
      <trkpt lat="45.94935" lon="4.57795">
        <ele>463</ele>
        <time>2020-02-23T15:59:25Z</time>
      </trkpt>
      <trkpt lat="45.94835" lon="4.57818">
        <ele>470</ele>
        <time>2020-02-23T16:00:00Z</time>
      </trkpt>
      <trkpt lat="45.94752" lon="4.57837">
        <ele>479</ele>
        <time>2020-02-23T16:00:31Z</time>
      </trkpt>
      <trkpt lat="45.94733" lon="4.57839">
        <ele>482</ele>
        <time>2020-02-23T16:00:41Z</time>
      </trkpt>
      <trkpt lat="45.9472" lon="4.57855">
        <ele>484</ele>
        <time>2020-02-23T16:00:49Z</time>
      </trkpt>
      <trkpt lat="45.94715" lon="4.57885">
        <ele>486</ele>
        <time>2020-02-23T16:00:57Z</time>
      </trkpt>
      <trkpt lat="45.94701" lon="4.57921">
        <ele>488</ele>
        <time>2020-02-23T16:01:07Z</time>
      </trkpt>
      <trkpt lat="45.9469" lon="4.57938">
        <ele>488</ele>
        <time>2020-02-23T16:01:11Z</time>
      </trkpt>
      <trkpt lat="45.94685" lon="4.58053">
        <ele>498</ele>
        <time>2020-02-23T16:01:41Z</time>
      </trkpt>
      <trkpt lat="45.94689" lon="4.58067">
        <ele>499</ele>
        <time>2020-02-23T16:01:46Z</time>
      </trkpt>
      <trkpt lat="45.94694" lon="4.58078">
        <ele>501</ele>
        <time>2020-02-23T16:01:51Z</time>
      </trkpt>
      <trkpt lat="45.94724" lon="4.58092">
        <ele>508</ele>
        <time>2020-02-23T16:02:08Z</time>
      </trkpt>
      <trkpt lat="45.94766" lon="4.58097">
        <ele>511</ele>
        <time>2020-02-23T16:02:23Z</time>
      </trkpt>
      <trkpt lat="45.94822" lon="4.58129">
        <ele>518</ele>
        <time>2020-02-23T16:02:47Z</time>
      </trkpt>
      <trkpt lat="45.94865" lon="4.58181">
        <ele>522</ele>
        <time>2020-02-23T16:03:05Z</time>
      </trkpt>
      <trkpt lat="45.94872" lon="4.58195">
        <ele>523</ele>
        <time>2020-02-23T16:03:09Z</time>
      </trkpt>
      <trkpt lat="45.94887" lon="4.58289">
        <ele>525</ele>
        <time>2020-02-23T16:03:29Z</time>
      </trkpt>
      <trkpt lat="45.94882" lon="4.58301">
        <ele>526</ele>
        <time>2020-02-23T16:03:37Z</time>
      </trkpt>
      <trkpt lat="45.94858" lon="4.58297">
        <ele>527</ele>
        <time>2020-02-23T16:03:48Z</time>
      </trkpt>
      <trkpt lat="45.94854" lon="4.58288">
        <ele>528</ele>
        <time>2020-02-23T16:03:51Z</time>
      </trkpt>
      <trkpt lat="45.94805" lon="4.58254">
        <ele>536</ele>
        <time>2020-02-23T16:04:40Z</time>
      </trkpt>
      <trkpt lat="45.94784" lon="4.5826">
        <ele>536</ele>
        <time>2020-02-23T16:04:46Z</time>
      </trkpt>
      <trkpt lat="45.94779" lon="4.58273">
        <ele>534</ele>
        <time>2020-02-23T16:04:51Z</time>
      </trkpt>
      <trkpt lat="45.9477" lon="4.58314">
        <ele>528</ele>
        <time>2020-02-23T16:05:02Z</time>
      </trkpt>
      <trkpt lat="45.94763" lon="4.58326">
        <ele>526</ele>
        <time>2020-02-23T16:05:10Z</time>
      </trkpt>
      <trkpt lat="45.94756" lon="4.58322">
        <ele>525</ele>
        <time>2020-02-23T16:05:12Z</time>
      </trkpt>
      <trkpt lat="45.94746" lon="4.5831">
        <ele>525</ele>
        <time>2020-02-23T16:05:14Z</time>
      </trkpt>
      <trkpt lat="45.94688" lon="4.58283">
        <ele>527</ele>
        <time>2020-02-23T16:05:28Z</time>
      </trkpt>
      <trkpt lat="45.94681" lon="4.58286">
        <ele>528</ele>
        <time>2020-02-23T16:05:30Z</time>
      </trkpt>
      <trkpt lat="45.94676" lon="4.58303">
        <ele>529</ele>
        <time>2020-02-23T16:05:34Z</time>
      </trkpt>
      <trkpt lat="45.94669" lon="4.58313">
        <ele>529</ele>
        <time>2020-02-23T16:05:36Z</time>
      </trkpt>
      <trkpt lat="45.94664" lon="4.58413">
        <ele>512</ele>
        <time>2020-02-23T16:05:50Z</time>
      </trkpt>
      <trkpt lat="45.94631" lon="4.58474">
        <ele>504</ele>
        <time>2020-02-23T16:05:57Z</time>
      </trkpt>
      <trkpt lat="45.94588" lon="4.5851">
        <ele>497</ele>
        <time>2020-02-23T16:06:03Z</time>
      </trkpt>
      <trkpt lat="45.94542" lon="4.58566">
        <ele>488</ele>
        <time>2020-02-23T16:06:11Z</time>
      </trkpt>
      <trkpt lat="45.94426" lon="4.58665">
        <ele>464</ele>
        <time>2020-02-23T16:06:29Z</time>
      </trkpt>
      <trkpt lat="45.94401" lon="4.5873">
        <ele>456</ele>
        <time>2020-02-23T16:06:36Z</time>
      </trkpt>
      <trkpt lat="45.94374" lon="4.58767">
        <ele>453</ele>
        <time>2020-02-23T16:06:41Z</time>
      </trkpt>
      <trkpt lat="45.94202" lon="4.58931">
        <ele>432</ele>
        <time>2020-02-23T16:07:09Z</time>
      </trkpt>
      <trkpt lat="45.94177" lon="4.58943">
        <ele>430</ele>
        <time>2020-02-23T16:07:13Z</time>
      </trkpt>
      <trkpt lat="45.9415" lon="4.58953">
        <ele>430</ele>
        <time>2020-02-23T16:07:20Z</time>
      </trkpt>
      <trkpt lat="45.94077" lon="4.58906">
        <ele>442</ele>
        <time>2020-02-23T16:07:52Z</time>
      </trkpt>
      <trkpt lat="45.94061" lon="4.58904">
        <ele>443</ele>
        <time>2020-02-23T16:07:58Z</time>
      </trkpt>
      <trkpt lat="45.94002" lon="4.58912">
        <ele>442</ele>
        <time>2020-02-23T16:08:12Z</time>
      </trkpt>
      <trkpt lat="45.93987" lon="4.58907">
        <ele>442</ele>
        <time>2020-02-23T16:08:16Z</time>
      </trkpt>
      <trkpt lat="45.93976" lon="4.58898">
        <ele>443</ele>
        <time>2020-02-23T16:08:20Z</time>
      </trkpt>
      <trkpt lat="45.93959" lon="4.58857">
        <ele>450</ele>
        <time>2020-02-23T16:08:34Z</time>
      </trkpt>
      <trkpt lat="45.93919" lon="4.58803">
        <ele>458</ele>
        <time>2020-02-23T16:08:55Z</time>
      </trkpt>
      <trkpt lat="45.93902" lon="4.5878">
        <ele>457</ele>
        <time>2020-02-23T16:09:01Z</time>
      </trkpt>
      <trkpt lat="45.93899" lon="4.5877">
        <ele>458</ele>
        <time>2020-02-23T16:09:03Z</time>
      </trkpt>
      <trkpt lat="45.93898" lon="4.58759">
        <ele>458</ele>
        <time>2020-02-23T16:09:05Z</time>
      </trkpt>
      <trkpt lat="45.9391" lon="4.58696">
        <ele>462</ele>
        <time>2020-02-23T16:09:19Z</time>
      </trkpt>
      <trkpt lat="45.93905" lon="4.58681">
        <ele>463</ele>
        <time>2020-02-23T16:09:23Z</time>
      </trkpt>
      <trkpt lat="45.93899" lon="4.58674">
        <ele>463</ele>
        <time>2020-02-23T16:09:25Z</time>
      </trkpt>
      <trkpt lat="45.93866" lon="4.58667">
        <ele>462</ele>
        <time>2020-02-23T16:09:30Z</time>
      </trkpt>
      <trkpt lat="45.93813" lon="4.58669">
        <ele>455</ele>
        <time>2020-02-23T16:09:36Z</time>
      </trkpt>
      <trkpt lat="45.93794" lon="4.58676">
        <ele>453</ele>
        <time>2020-02-23T16:09:38Z</time>
      </trkpt>
      <trkpt lat="45.93765" lon="4.58703">
        <ele>448</ele>
        <time>2020-02-23T16:09:42Z</time>
      </trkpt>
      <trkpt lat="45.93758" lon="4.58709">
        <ele>448</ele>
        <time>2020-02-23T16:09:43Z</time>
      </trkpt>
      <trkpt lat="45.93577" lon="4.58831">
        <ele>430</ele>
        <time>2020-02-23T16:10:10Z</time>
      </trkpt>
      <trkpt lat="45.93497" lon="4.5886">
        <ele>418</ele>
        <time>2020-02-23T16:10:19Z</time>
      </trkpt>
      <trkpt lat="45.93479" lon="4.58894">
        <ele>414</ele>
        <time>2020-02-23T16:10:23Z</time>
      </trkpt>
      <trkpt lat="45.9337" lon="4.58997">
        <ele>401</ele>
        <time>2020-02-23T16:10:36Z</time>
      </trkpt>
      <trkpt lat="45.93353" lon="4.59042">
        <ele>398</ele>
        <time>2020-02-23T16:10:40Z</time>
      </trkpt>
      <trkpt lat="45.93343" lon="4.59057">
        <ele>396</ele>
        <time>2020-02-23T16:10:42Z</time>
      </trkpt>
      <trkpt lat="45.93301" lon="4.59095">
        <ele>389</ele>
        <time>2020-02-23T16:10:49Z</time>
      </trkpt>
      <trkpt lat="45.9323" lon="4.59123">
        <ele>380</ele>
        <time>2020-02-23T16:11:00Z</time>
      </trkpt>
      <trkpt lat="45.9319" lon="4.59169">
        <ele>372</ele>
        <time>2020-02-23T16:11:08Z</time>
      </trkpt>
      <trkpt lat="45.93126" lon="4.59211">
        <ele>356</ele>
        <time>2020-02-23T16:11:20Z</time>
      </trkpt>
      <trkpt lat="45.93078" lon="4.59217">
        <ele>352</ele>
        <time>2020-02-23T16:11:27Z</time>
      </trkpt>
      <trkpt lat="45.92942" lon="4.59237">
        <ele>354</ele>
        <time>2020-02-23T16:11:57Z</time>
      </trkpt>
      <trkpt lat="45.92935" lon="4.59234">
        <ele>354</ele>
        <time>2020-02-23T16:11:59Z</time>
      </trkpt>
      <trkpt lat="45.92911" lon="4.59235">
        <ele>357</ele>
        <time>2020-02-23T16:12:07Z</time>
      </trkpt>
      <trkpt lat="45.92877" lon="4.59233">
        <ele>357</ele>
        <time>2020-02-23T16:12:15Z</time>
      </trkpt>
      <trkpt lat="45.92799" lon="4.59198">
        <ele>353</ele>
        <time>2020-02-23T16:12:29Z</time>
      </trkpt>
      <trkpt lat="45.92692" lon="4.59163">
        <ele>357</ele>
        <time>2020-02-23T16:13:00Z</time>
      </trkpt>
      <trkpt lat="45.92656" lon="4.59149">
        <ele>363</ele>
        <time>2020-02-23T16:13:15Z</time>
      </trkpt>
      <trkpt lat="45.92638" lon="4.5919">
        <ele>353</ele>
        <time>2020-02-23T16:13:43Z</time>
      </trkpt>
      <trkpt lat="45.92646" lon="4.59202">
        <ele>351</ele>
        <time>2020-02-23T16:14:52Z</time>
      </trkpt>
      <trkpt lat="45.92649" lon="4.59212">
        <ele>349</ele>
        <time>2020-02-23T16:14:54Z</time>
      </trkpt>
      <trkpt lat="45.92642" lon="4.59224">
        <ele>346</ele>
        <time>2020-02-23T16:14:58Z</time>
      </trkpt>
      <trkpt lat="45.92649" lon="4.59224">
        <ele>345</ele>
        <time>2020-02-23T16:15:02Z</time>
      </trkpt>
      <trkpt lat="45.9272" lon="4.59191">
        <ele>345</ele>
        <time>2020-02-23T16:15:20Z</time>
      </trkpt>
      <trkpt lat="45.92743" lon="4.592">
        <ele>345</ele>
        <time>2020-02-23T16:15:26Z</time>
      </trkpt>
      <trkpt lat="45.92768" lon="4.59225">
        <ele>345</ele>
        <time>2020-02-23T16:15:32Z</time>
      </trkpt>
      <trkpt lat="45.92783" lon="4.59263">
        <ele>345</ele>
        <time>2020-02-23T16:15:39Z</time>
      </trkpt>
      <trkpt lat="45.92782" lon="4.59292">
        <ele>346</ele>
        <time>2020-02-23T16:15:44Z</time>
      </trkpt>
      <trkpt lat="45.92775" lon="4.59318">
        <ele>346</ele>
        <time>2020-02-23T16:15:50Z</time>
      </trkpt>
      <trkpt lat="45.92766" lon="4.59336">
        <ele>347</ele>
        <time>2020-02-23T16:15:58Z</time>
      </trkpt>
      <trkpt lat="45.92747" lon="4.59358">
        <ele>349</ele>
        <time>2020-02-23T16:16:08Z</time>
      </trkpt>
      <trkpt lat="45.92698" lon="4.59385">
        <ele>350</ele>
        <time>2020-02-23T16:16:22Z</time>
      </trkpt>
      <trkpt lat="45.92684" lon="4.594">
        <ele>351</ele>
        <time>2020-02-23T16:16:28Z</time>
      </trkpt>
      <trkpt lat="45.92668" lon="4.5943">
        <ele>352</ele>
        <time>2020-02-23T16:16:36Z</time>
      </trkpt>
      <trkpt lat="45.92652" lon="4.5945">
        <ele>353</ele>
        <time>2020-02-23T16:16:42Z</time>
      </trkpt>
      <trkpt lat="45.92617" lon="4.59477">
        <ele>353</ele>
        <time>2020-02-23T16:17:21Z</time>
      </trkpt>
      <trkpt lat="45.92606" lon="4.5948">
        <ele>354</ele>
        <time>2020-02-23T16:17:25Z</time>
      </trkpt>
      <trkpt lat="45.92591" lon="4.59478">
        <ele>354</ele>
        <time>2020-02-23T16:17:29Z</time>
      </trkpt>
      <trkpt lat="45.92534" lon="4.59454">
        <ele>357</ele>
        <time>2020-02-23T16:17:45Z</time>
      </trkpt>
      <trkpt lat="45.92483" lon="4.59453">
        <ele>359</ele>
        <time>2020-02-23T16:17:58Z</time>
      </trkpt>
      <trkpt lat="45.92462" lon="4.59445">
        <ele>360</ele>
        <time>2020-02-23T16:18:04Z</time>
      </trkpt>
      <trkpt lat="45.92449" lon="4.59443">
        <ele>360</ele>
        <time>2020-02-23T16:18:07Z</time>
      </trkpt>
      <trkpt lat="45.924" lon="4.5942">
        <ele>362</ele>
        <time>2020-02-23T16:18:22Z</time>
      </trkpt>
      <trkpt lat="45.92323" lon="4.59419">
        <ele>364</ele>
        <time>2020-02-23T16:18:39Z</time>
      </trkpt>
      <trkpt lat="45.92192" lon="4.59439">
        <ele>368</ele>
        <time>2020-02-23T16:19:11Z</time>
      </trkpt>
      <trkpt lat="45.92166" lon="4.59443">
        <ele>369</ele>
        <time>2020-02-23T16:19:18Z</time>
      </trkpt>
      <trkpt lat="45.92152" lon="4.59452">
        <ele>370</ele>
        <time>2020-02-23T16:19:22Z</time>
      </trkpt>
      <trkpt lat="45.92129" lon="4.59482">
        <ele>371</ele>
        <time>2020-02-23T16:19:30Z</time>
      </trkpt>
      <trkpt lat="45.92118" lon="4.59526">
        <ele>372</ele>
        <time>2020-02-23T16:19:38Z</time>
      </trkpt>
      <trkpt lat="45.92106" lon="4.59648">
        <ele>375</ele>
        <time>2020-02-23T16:20:02Z</time>
      </trkpt>
      <trkpt lat="45.92099" lon="4.59671">
        <ele>378</ele>
        <time>2020-02-23T16:20:11Z</time>
      </trkpt>
      <trkpt lat="45.92104" lon="4.5972">
        <ele>383</ele>
        <time>2020-02-23T16:20:31Z</time>
      </trkpt>
      <trkpt lat="45.92109" lon="4.59732">
        <ele>385</ele>
        <time>2020-02-23T16:20:37Z</time>
      </trkpt>
      <trkpt lat="45.92126" lon="4.59733">
        <ele>388</ele>
        <time>2020-02-23T16:20:47Z</time>
      </trkpt>
      <trkpt lat="45.92178" lon="4.5975">
        <ele>391</ele>
        <time>2020-02-23T16:21:09Z</time>
      </trkpt>
      <trkpt lat="45.92256" lon="4.59829">
        <ele>396</ele>
        <time>2020-02-23T16:21:41Z</time>
      </trkpt>
      <trkpt lat="45.92351" lon="4.59909">
        <ele>400</ele>
        <time>2020-02-23T16:22:13Z</time>
      </trkpt>
      <trkpt lat="45.92446" lon="4.59998">
        <ele>408</ele>
        <time>2020-02-23T16:22:45Z</time>
      </trkpt>
      <trkpt lat="45.92525" lon="4.60092">
        <ele>417</ele>
        <time>2020-02-23T16:23:23Z</time>
      </trkpt>
      <trkpt lat="45.92532" lon="4.60096">
        <ele>419</ele>
        <time>2020-02-23T16:23:27Z</time>
      </trkpt>
      <trkpt lat="45.92542" lon="4.601">
        <ele>420</ele>
        <time>2020-02-23T16:23:32Z</time>
      </trkpt>
      <trkpt lat="45.92553" lon="4.6011">
        <ele>421</ele>
        <time>2020-02-23T16:23:38Z</time>
      </trkpt>
      <trkpt lat="45.92565" lon="4.60098">
        <ele>422</ele>
        <time>2020-02-23T16:23:45Z</time>
      </trkpt>
      <trkpt lat="45.9257" lon="4.60083">
        <ele>423</ele>
        <time>2020-02-23T16:23:50Z</time>
      </trkpt>
      <trkpt lat="45.92584" lon="4.60068">
        <ele>424</ele>
        <time>2020-02-23T16:23:58Z</time>
      </trkpt>
      <trkpt lat="45.92591" lon="4.60056">
        <ele>425</ele>
        <time>2020-02-23T16:24:02Z</time>
      </trkpt>
      <trkpt lat="45.92599" lon="4.60047">
        <ele>425</ele>
        <time>2020-02-23T16:24:08Z</time>
      </trkpt>
      <trkpt lat="45.92623" lon="4.59983">
        <ele>421</ele>
        <time>2020-02-23T16:24:28Z</time>
      </trkpt>
      <trkpt lat="45.92617" lon="4.59991">
        <ele>420</ele>
        <time>2020-02-23T16:24:34Z</time>
      </trkpt>
      <trkpt lat="45.92601" lon="4.60042">
        <ele>424</ele>
        <time>2020-02-23T16:24:49Z</time>
      </trkpt>
      <trkpt lat="45.92618" lon="4.60048">
        <ele>426</ele>
        <time>2020-02-23T16:24:57Z</time>
      </trkpt>
      <trkpt lat="45.92663" lon="4.60052">
        <ele>432</ele>
        <time>2020-02-23T16:25:19Z</time>
      </trkpt>
      <trkpt lat="45.92671" lon="4.60062">
        <ele>434</ele>
        <time>2020-02-23T16:25:25Z</time>
      </trkpt>
      <trkpt lat="45.9269" lon="4.60063">
        <ele>437</ele>
        <time>2020-02-23T16:25:55Z</time>
      </trkpt>
      <trkpt lat="45.92731" lon="4.60126">
        <ele>446</ele>
        <time>2020-02-23T16:26:28Z</time>
      </trkpt>
      <trkpt lat="45.92759" lon="4.60144">
        <ele>453</ele>
        <time>2020-02-23T16:26:47Z</time>
      </trkpt>
      <trkpt lat="45.92756" lon="4.60155">
        <ele>454</ele>
        <time>2020-02-23T16:32:05Z</time>
      </trkpt>
      <trkpt lat="45.92764" lon="4.60181">
        <ele>454</ele>
        <time>2020-02-23T16:32:13Z</time>
      </trkpt>
      <trkpt lat="45.92771" lon="4.60244">
        <ele>455</ele>
        <time>2020-02-23T16:32:27Z</time>
      </trkpt>
      <trkpt lat="45.92765" lon="4.60329">
        <ele>457</ele>
        <time>2020-02-23T16:32:45Z</time>
      </trkpt>
      <trkpt lat="45.92772" lon="4.60341">
        <ele>457</ele>
        <time>2020-02-23T16:32:49Z</time>
      </trkpt>
      <trkpt lat="45.9278" lon="4.60345">
        <ele>458</ele>
        <time>2020-02-23T16:32:51Z</time>
      </trkpt>
      <trkpt lat="45.92823" lon="4.60331">
        <ele>461</ele>
        <time>2020-02-23T16:33:08Z</time>
      </trkpt>
      <trkpt lat="45.92834" lon="4.60335">
        <ele>461</ele>
        <time>2020-02-23T16:33:12Z</time>
      </trkpt>
      <trkpt lat="45.92861" lon="4.60366">
        <ele>463</ele>
        <time>2020-02-23T16:33:24Z</time>
      </trkpt>
      <trkpt lat="45.92934" lon="4.60427">
        <ele>471</ele>
        <time>2020-02-23T16:33:56Z</time>
      </trkpt>
      <trkpt lat="45.93003" lon="4.6048">
        <ele>484</ele>
        <time>2020-02-23T16:34:26Z</time>
      </trkpt>
      <trkpt lat="45.93063" lon="4.60524">
        <ele>500</ele>
        <time>2020-02-23T16:34:58Z</time>
      </trkpt>
      <trkpt lat="45.9308" lon="4.60544">
        <ele>505</ele>
        <time>2020-02-23T16:35:06Z</time>
      </trkpt>
      <trkpt lat="45.93096" lon="4.60572">
        <ele>508</ele>
        <time>2020-02-23T16:35:16Z</time>
      </trkpt>
      <trkpt lat="45.93105" lon="4.60587">
        <ele>507</ele>
        <time>2020-02-23T16:35:21Z</time>
      </trkpt>
      <trkpt lat="45.93117" lon="4.60595">
        <ele>507</ele>
        <time>2020-02-23T16:35:25Z</time>
      </trkpt>
      <trkpt lat="45.93127" lon="4.60608">
        <ele>508</ele>
        <time>2020-02-23T16:35:29Z</time>
      </trkpt>
      <trkpt lat="45.93142" lon="4.60611">
        <ele>507</ele>
        <time>2020-02-23T16:35:33Z</time>
      </trkpt>
      <trkpt lat="45.93153" lon="4.60608">
        <ele>507</ele>
        <time>2020-02-23T16:35:35Z</time>
      </trkpt>
      <trkpt lat="45.93163" lon="4.60613">
        <ele>506</ele>
        <time>2020-02-23T16:35:37Z</time>
      </trkpt>
      <trkpt lat="45.93189" lon="4.60612">
        <ele>502</ele>
        <time>2020-02-23T16:35:42Z</time>
      </trkpt>
      <trkpt lat="45.93202" lon="4.606">
        <ele>499</ele>
        <time>2020-02-23T16:35:45Z</time>
      </trkpt>
      <trkpt lat="45.93209" lon="4.60589">
        <ele>497</ele>
        <time>2020-02-23T16:35:47Z</time>
      </trkpt>
      <trkpt lat="45.93219" lon="4.60587">
        <ele>496</ele>
        <time>2020-02-23T16:35:49Z</time>
      </trkpt>
      <trkpt lat="45.93232" lon="4.60591">
        <ele>496</ele>
        <time>2020-02-23T16:35:51Z</time>
      </trkpt>
      <trkpt lat="45.93269" lon="4.6062">
        <ele>489</ele>
        <time>2020-02-23T16:35:58Z</time>
      </trkpt>
      <trkpt lat="45.93277" lon="4.60617">
        <ele>487</ele>
        <time>2020-02-23T16:36:00Z</time>
      </trkpt>
      <trkpt lat="45.93291" lon="4.60593">
        <ele>484</ele>
        <time>2020-02-23T16:36:05Z</time>
      </trkpt>
      <trkpt lat="45.93308" lon="4.60571">
        <ele>484</ele>
        <time>2020-02-23T16:36:11Z</time>
      </trkpt>
      <trkpt lat="45.93328" lon="4.60566">
        <ele>485</ele>
        <time>2020-02-23T16:36:16Z</time>
      </trkpt>
      <trkpt lat="45.93401" lon="4.60591">
        <ele>477</ele>
        <time>2020-02-23T16:36:27Z</time>
      </trkpt>
      <trkpt lat="45.93583" lon="4.60624">
        <ele>454</ele>
        <time>2020-02-23T16:36:48Z</time>
      </trkpt>
      <trkpt lat="45.936" lon="4.60615">
        <ele>452</ele>
        <time>2020-02-23T16:36:51Z</time>
      </trkpt>
      <trkpt lat="45.93609" lon="4.60603">
        <ele>452</ele>
        <time>2020-02-23T16:36:54Z</time>
      </trkpt>
      <trkpt lat="45.93688" lon="4.6051">
        <ele>463</ele>
        <time>2020-02-23T16:37:30Z</time>
      </trkpt>
      <trkpt lat="45.93716" lon="4.60498">
        <ele>468</ele>
        <time>2020-02-23T16:37:41Z</time>
      </trkpt>
      <trkpt lat="45.9378" lon="4.60428">
        <ele>477</ele>
        <time>2020-02-23T16:38:11Z</time>
      </trkpt>
      <trkpt lat="45.938" lon="4.60412">
        <ele>480</ele>
        <time>2020-02-23T16:38:19Z</time>
      </trkpt>
      <trkpt lat="45.93859" lon="4.60319">
        <ele>489</ele>
        <time>2020-02-23T16:38:53Z</time>
      </trkpt>
      <trkpt lat="45.93888" lon="4.60274">
        <ele>495</ele>
        <time>2020-02-23T16:39:12Z</time>
      </trkpt>
      <trkpt lat="45.9399" lon="4.60169">
        <ele>504</ele>
        <time>2020-02-23T16:39:52Z</time>
      </trkpt>
      <trkpt lat="45.94006" lon="4.60149">
        <ele>504</ele>
        <time>2020-02-23T16:39:58Z</time>
      </trkpt>
      <trkpt lat="45.94019" lon="4.60151">
        <ele>505</ele>
        <time>2020-02-23T16:40:26Z</time>
      </trkpt>
      <trkpt lat="45.94024" lon="4.60163">
        <ele>505</ele>
        <time>2020-02-23T16:40:28Z</time>
      </trkpt>
      <trkpt lat="45.94047" lon="4.60233">
        <ele>501</ele>
        <time>2020-02-23T16:40:37Z</time>
      </trkpt>
      <trkpt lat="45.94055" lon="4.60246">
        <ele>499</ele>
        <time>2020-02-23T16:40:39Z</time>
      </trkpt>
      <trkpt lat="45.94075" lon="4.60315">
        <ele>489</ele>
        <time>2020-02-23T16:40:50Z</time>
      </trkpt>
      <trkpt lat="45.94092" lon="4.60331">
        <ele>485</ele>
        <time>2020-02-23T16:40:54Z</time>
      </trkpt>
      <trkpt lat="45.94103" lon="4.60338">
        <ele>482</ele>
        <time>2020-02-23T16:40:57Z</time>
      </trkpt>
      <trkpt lat="45.94122" lon="4.60382">
        <ele>474</ele>
        <time>2020-02-23T16:41:05Z</time>
      </trkpt>
      <trkpt lat="45.94124" lon="4.60393">
        <ele>471</ele>
        <time>2020-02-23T16:41:07Z</time>
      </trkpt>
      <trkpt lat="45.9412" lon="4.60401">
        <ele>469</ele>
        <time>2020-02-23T16:41:09Z</time>
      </trkpt>
      <trkpt lat="45.94081" lon="4.60426">
        <ele>463</ele>
        <time>2020-02-23T16:41:15Z</time>
      </trkpt>
      <trkpt lat="45.94067" lon="4.60461">
        <ele>457</ele>
        <time>2020-02-23T16:41:20Z</time>
      </trkpt>
      <trkpt lat="45.9406" lon="4.60468">
        <ele>457</ele>
        <time>2020-02-23T16:41:21Z</time>
      </trkpt>
      <trkpt lat="45.94038" lon="4.60478">
        <ele>454</ele>
        <time>2020-02-23T16:41:24Z</time>
      </trkpt>
      <trkpt lat="45.93987" lon="4.60483">
        <ele>449</ele>
        <time>2020-02-23T16:41:31Z</time>
      </trkpt>
      <trkpt lat="45.93969" lon="4.60479">
        <ele>447</ele>
        <time>2020-02-23T16:41:35Z</time>
      </trkpt>
      <trkpt lat="45.93883" lon="4.60465">
        <ele>453</ele>
        <time>2020-02-23T16:42:00Z</time>
      </trkpt>
      <trkpt lat="45.93775" lon="4.60493">
        <ele>463</ele>
        <time>2020-02-23T16:42:31Z</time>
      </trkpt>
      <trkpt lat="45.93752" lon="4.60496">
        <ele>465</ele>
        <time>2020-02-23T16:42:39Z</time>
      </trkpt>
      <trkpt lat="45.9374" lon="4.60491">
        <ele>468</ele>
        <time>2020-02-23T16:42:46Z</time>
      </trkpt>
      <trkpt lat="45.93738" lon="4.6048">
        <ele>471</ele>
        <time>2020-02-23T16:42:53Z</time>
      </trkpt>
      <trkpt lat="45.9375" lon="4.60472">
        <ele>472</ele>
        <time>2020-02-23T16:42:57Z</time>
      </trkpt>
      <trkpt lat="45.93763" lon="4.60445">
        <ele>474</ele>
        <time>2020-02-23T16:43:05Z</time>
      </trkpt>
      <trkpt lat="45.93809" lon="4.60398">
        <ele>480</ele>
        <time>2020-02-23T16:43:23Z</time>
      </trkpt>
      <trkpt lat="45.93882" lon="4.60278">
        <ele>494</ele>
        <time>2020-02-23T16:44:05Z</time>
      </trkpt>
      <trkpt lat="45.93995" lon="4.60162">
        <ele>504</ele>
        <time>2020-02-23T16:44:49Z</time>
      </trkpt>
      <trkpt lat="45.94005" lon="4.60152">
        <ele>505</ele>
        <time>2020-02-23T16:44:53Z</time>
      </trkpt>
      <trkpt lat="45.94016" lon="4.60149">
        <ele>505</ele>
        <time>2020-02-23T16:44:57Z</time>
      </trkpt>
      <trkpt lat="45.94023" lon="4.60163">
        <ele>505</ele>
        <time>2020-02-23T16:45:00Z</time>
      </trkpt>
      <trkpt lat="45.94028" lon="4.60186">
        <ele>504</ele>
        <time>2020-02-23T16:45:03Z</time>
      </trkpt>
      <trkpt lat="45.94042" lon="4.60224">
        <ele>502</ele>
        <time>2020-02-23T16:45:09Z</time>
      </trkpt>
      <trkpt lat="45.94055" lon="4.60246">
        <ele>499</ele>
        <time>2020-02-23T16:45:14Z</time>
      </trkpt>
      <trkpt lat="45.94075" lon="4.60314">
        <ele>489</ele>
        <time>2020-02-23T16:45:27Z</time>
      </trkpt>
      <trkpt lat="45.9408" lon="4.60323">
        <ele>488</ele>
        <time>2020-02-23T16:45:28Z</time>
      </trkpt>
      <trkpt lat="45.94099" lon="4.6034">
        <ele>483</ele>
        <time>2020-02-23T16:45:32Z</time>
      </trkpt>
      <trkpt lat="45.94121" lon="4.60388">
        <ele>473</ele>
        <time>2020-02-23T16:45:42Z</time>
      </trkpt>
      <trkpt lat="45.9411" lon="4.60409">
        <ele>467</ele>
        <time>2020-02-23T16:45:47Z</time>
      </trkpt>
      <trkpt lat="45.94103" lon="4.60411">
        <ele>467</ele>
        <time>2020-02-23T16:45:48Z</time>
      </trkpt>
      <trkpt lat="45.94082" lon="4.60424">
        <ele>464</ele>
        <time>2020-02-23T16:45:51Z</time>
      </trkpt>
      <trkpt lat="45.94064" lon="4.60467">
        <ele>459</ele>
        <time>2020-02-23T16:45:57Z</time>
      </trkpt>
      <trkpt lat="45.9405" lon="4.60477">
        <ele>456</ele>
        <time>2020-02-23T16:45:59Z</time>
      </trkpt>
      <trkpt lat="45.94035" lon="4.60483">
        <ele>454</ele>
        <time>2020-02-23T16:46:01Z</time>
      </trkpt>
      <trkpt lat="45.93976" lon="4.60485">
        <ele>449</ele>
        <time>2020-02-23T16:46:09Z</time>
      </trkpt>
      <trkpt lat="45.93959" lon="4.60478">
        <ele>448</ele>
        <time>2020-02-23T16:46:13Z</time>
      </trkpt>
      <trkpt lat="45.93881" lon="4.60465">
        <ele>455</ele>
        <time>2020-02-23T16:46:37Z</time>
      </trkpt>
      <trkpt lat="45.93774" lon="4.60495">
        <ele>464</ele>
        <time>2020-02-23T16:47:11Z</time>
      </trkpt>
      <trkpt lat="45.93761" lon="4.60497">
        <ele>465</ele>
        <time>2020-02-23T16:47:15Z</time>
      </trkpt>
      <trkpt lat="45.93741" lon="4.60492">
        <ele>469</ele>
        <time>2020-02-23T16:47:26Z</time>
      </trkpt>
      <trkpt lat="45.93737" lon="4.6048">
        <ele>471</ele>
        <time>2020-02-23T16:47:32Z</time>
      </trkpt>
      <trkpt lat="45.93798" lon="4.60408">
        <ele>480</ele>
        <time>2020-02-23T16:47:58Z</time>
      </trkpt>
      <trkpt lat="45.93805" lon="4.604">
        <ele>480</ele>
        <time>2020-02-23T16:48:02Z</time>
      </trkpt>
      <trkpt lat="45.93814" lon="4.60392">
        <ele>481</ele>
        <time>2020-02-23T16:48:06Z</time>
      </trkpt>
      <trkpt lat="45.93871" lon="4.60298">
        <ele>491</ele>
        <time>2020-02-23T16:48:36Z</time>
      </trkpt>
      <trkpt lat="45.93878" lon="4.60288">
        <ele>492</ele>
        <time>2020-02-23T16:48:40Z</time>
      </trkpt>
      <trkpt lat="45.93946" lon="4.60217">
        <ele>502</ele>
        <time>2020-02-23T16:49:11Z</time>
      </trkpt>
      <trkpt lat="45.93954" lon="4.60207">
        <ele>502</ele>
        <time>2020-02-23T16:49:15Z</time>
      </trkpt>
      <trkpt lat="45.93962" lon="4.60199">
        <ele>503</ele>
        <time>2020-02-23T16:49:19Z</time>
      </trkpt>
      <trkpt lat="45.94003" lon="4.60152">
        <ele>504</ele>
        <time>2020-02-23T16:49:34Z</time>
      </trkpt>
      <trkpt lat="45.94014" lon="4.60149">
        <ele>504</ele>
        <time>2020-02-23T16:49:38Z</time>
      </trkpt>
      <trkpt lat="45.9402" lon="4.60156">
        <ele>504</ele>
        <time>2020-02-23T16:49:40Z</time>
      </trkpt>
      <trkpt lat="45.94027" lon="4.60181">
        <ele>503</ele>
        <time>2020-02-23T16:49:44Z</time>
      </trkpt>
      <trkpt lat="45.94032" lon="4.60192">
        <ele>503</ele>
        <time>2020-02-23T16:49:46Z</time>
      </trkpt>
      <trkpt lat="45.94043" lon="4.60227">
        <ele>501</ele>
        <time>2020-02-23T16:49:52Z</time>
      </trkpt>
      <trkpt lat="45.94061" lon="4.60254">
        <ele>498</ele>
        <time>2020-02-23T16:49:58Z</time>
      </trkpt>
      <trkpt lat="45.94059" lon="4.60266">
        <ele>497</ele>
        <time>2020-02-23T16:50:00Z</time>
      </trkpt>
      <trkpt lat="45.94073" lon="4.60316">
        <ele>488</ele>
        <time>2020-02-23T16:50:08Z</time>
      </trkpt>
      <trkpt lat="45.94097" lon="4.60339">
        <ele>482</ele>
        <time>2020-02-23T16:50:13Z</time>
      </trkpt>
      <trkpt lat="45.94107" lon="4.60344">
        <ele>480</ele>
        <time>2020-02-23T16:50:15Z</time>
      </trkpt>
      <trkpt lat="45.94124" lon="4.60388">
        <ele>473</ele>
        <time>2020-02-23T16:50:22Z</time>
      </trkpt>
      <trkpt lat="45.94076" lon="4.60425">
        <ele>462</ele>
        <time>2020-02-23T16:50:32Z</time>
      </trkpt>
      <trkpt lat="45.94068" lon="4.60459">
        <ele>458</ele>
        <time>2020-02-23T16:50:36Z</time>
      </trkpt>
      <trkpt lat="45.94063" lon="4.60466">
        <ele>457</ele>
        <time>2020-02-23T16:50:37Z</time>
      </trkpt>
      <trkpt lat="45.9405" lon="4.60476">
        <ele>455</ele>
        <time>2020-02-23T16:50:39Z</time>
      </trkpt>
      <trkpt lat="45.94036" lon="4.60479">
        <ele>453</ele>
        <time>2020-02-23T16:50:41Z</time>
      </trkpt>
      <trkpt lat="45.94028" lon="4.60479">
        <ele>453</ele>
        <time>2020-02-23T16:50:42Z</time>
      </trkpt>
      <trkpt lat="45.94003" lon="4.60481">
        <ele>451</ele>
        <time>2020-02-23T16:50:45Z</time>
      </trkpt>
      <trkpt lat="45.9399" lon="4.60487">
        <ele>450</ele>
        <time>2020-02-23T16:50:47Z</time>
      </trkpt>
      <trkpt lat="45.93958" lon="4.60478">
        <ele>448</ele>
        <time>2020-02-23T16:50:53Z</time>
      </trkpt>
      <trkpt lat="45.93869" lon="4.60467">
        <ele>456</ele>
        <time>2020-02-23T16:51:28Z</time>
      </trkpt>
      <trkpt lat="45.93782" lon="4.60493">
        <ele>463</ele>
        <time>2020-02-23T16:52:09Z</time>
      </trkpt>
      <trkpt lat="45.93769" lon="4.60495">
        <ele>465</ele>
        <time>2020-02-23T16:52:15Z</time>
      </trkpt>
      <trkpt lat="45.93742" lon="4.60492">
        <ele>468</ele>
        <time>2020-02-23T16:52:31Z</time>
      </trkpt>
      <trkpt lat="45.93741" lon="4.6048">
        <ele>471</ele>
        <time>2020-02-23T16:52:38Z</time>
      </trkpt>
      <trkpt lat="45.93747" lon="4.60474">
        <ele>471</ele>
        <time>2020-02-23T16:52:42Z</time>
      </trkpt>
      <trkpt lat="45.93795" lon="4.60415">
        <ele>479</ele>
        <time>2020-02-23T16:53:14Z</time>
      </trkpt>
      <trkpt lat="45.93846" lon="4.60338">
        <ele>487</ele>
        <time>2020-02-23T16:53:45Z</time>
      </trkpt>
      <trkpt lat="45.93892" lon="4.60269">
        <ele>495</ele>
        <time>2020-02-23T16:54:19Z</time>
      </trkpt>
      <trkpt lat="45.93957" lon="4.60203">
        <ele>502</ele>
        <time>2020-02-23T16:54:51Z</time>
      </trkpt>
      <trkpt lat="45.94011" lon="4.60144">
        <ele>504</ele>
        <time>2020-02-23T16:55:09Z</time>
      </trkpt>
      <trkpt lat="45.94009" lon="4.60128">
        <ele>505</ele>
        <time>2020-02-23T16:55:13Z</time>
      </trkpt>
      <trkpt lat="45.9395" lon="4.60153">
        <ele>509</ele>
        <time>2020-02-23T16:55:29Z</time>
      </trkpt>
      <trkpt lat="45.93883" lon="4.60188">
        <ele>510</ele>
        <time>2020-02-23T16:55:47Z</time>
      </trkpt>
      <trkpt lat="45.93748" lon="4.60235">
        <ele>513</ele>
        <time>2020-02-23T16:56:19Z</time>
      </trkpt>
      <trkpt lat="45.93689" lon="4.60252">
        <ele>516</ele>
        <time>2020-02-23T16:56:37Z</time>
      </trkpt>
      <trkpt lat="45.93551" lon="4.60261">
        <ele>519</ele>
        <time>2020-02-23T16:57:07Z</time>
      </trkpt>
      <trkpt lat="45.93454" lon="4.60276">
        <ele>518</ele>
        <time>2020-02-23T16:57:25Z</time>
      </trkpt>
      <trkpt lat="45.93298" lon="4.60326">
        <ele>518</ele>
        <time>2020-02-23T16:57:57Z</time>
      </trkpt>
      <trkpt lat="45.93242" lon="4.60346">
        <ele>523</ele>
        <time>2020-02-23T16:58:24Z</time>
      </trkpt>
      <trkpt lat="45.93212" lon="4.60374">
        <ele>525</ele>
        <time>2020-02-23T16:58:37Z</time>
      </trkpt>
      <trkpt lat="45.93168" lon="4.60416">
        <ele>522</ele>
        <time>2020-02-23T16:58:45Z</time>
      </trkpt>
      <trkpt lat="45.93103" lon="4.60566">
        <ele>511</ele>
        <time>2020-02-23T16:59:03Z</time>
      </trkpt>
      <trkpt lat="45.93092" lon="4.60567">
        <ele>509</ele>
        <time>2020-02-23T16:59:06Z</time>
      </trkpt>
      <trkpt lat="45.93075" lon="4.60543">
        <ele>507</ele>
        <time>2020-02-23T16:59:14Z</time>
      </trkpt>
      <trkpt lat="45.92988" lon="4.6047">
        <ele>487</ele>
        <time>2020-02-23T16:59:40Z</time>
      </trkpt>
      <trkpt lat="45.92986" lon="4.60456">
        <ele>484</ele>
        <time>2020-02-23T16:59:44Z</time>
      </trkpt>
      <trkpt lat="45.92993" lon="4.60407">
        <ele>488</ele>
        <time>2020-02-23T16:59:58Z</time>
      </trkpt>
      <trkpt lat="45.93025" lon="4.60331">
        <ele>496</ele>
        <time>2020-02-23T17:00:19Z</time>
      </trkpt>
      <trkpt lat="45.93036" lon="4.60315">
        <ele>498</ele>
        <time>2020-02-23T17:00:25Z</time>
      </trkpt>
      <trkpt lat="45.93034" lon="4.60317">
        <ele>500</ele>
        <time>2020-02-23T17:00:50Z</time>
      </trkpt>
      <trkpt lat="45.93015" lon="4.60345">
        <ele>498</ele>
        <time>2020-02-23T17:00:55Z</time>
      </trkpt>
      <trkpt lat="45.92993" lon="4.60413">
        <ele>492</ele>
        <time>2020-02-23T17:01:07Z</time>
      </trkpt>
      <trkpt lat="45.92989" lon="4.60454">
        <ele>487</ele>
        <time>2020-02-23T17:01:14Z</time>
      </trkpt>
      <trkpt lat="45.9299" lon="4.60467">
        <ele>485</ele>
        <time>2020-02-23T17:01:18Z</time>
      </trkpt>
      <trkpt lat="45.92996" lon="4.60474">
        <ele>484</ele>
        <time>2020-02-23T17:01:22Z</time>
      </trkpt>
      <trkpt lat="45.93044" lon="4.60512">
        <ele>497</ele>
        <time>2020-02-23T17:01:52Z</time>
      </trkpt>
      <trkpt lat="45.93075" lon="4.60542">
        <ele>505</ele>
        <time>2020-02-23T17:02:14Z</time>
      </trkpt>
      <trkpt lat="45.93081" lon="4.60553">
        <ele>507</ele>
        <time>2020-02-23T17:02:20Z</time>
      </trkpt>
      <trkpt lat="45.93095" lon="4.6057">
        <ele>508</ele>
        <time>2020-02-23T17:02:28Z</time>
      </trkpt>
      <trkpt lat="45.93098" lon="4.60584">
        <ele>508</ele>
        <time>2020-02-23T17:02:32Z</time>
      </trkpt>
      <trkpt lat="45.9303" lon="4.60765">
        <ele>504</ele>
        <time>2020-02-23T17:03:09Z</time>
      </trkpt>
      <trkpt lat="45.92976" lon="4.60889">
        <ele>488</ele>
        <time>2020-02-23T17:03:23Z</time>
      </trkpt>
      <trkpt lat="45.92933" lon="4.60939">
        <ele>478</ele>
        <time>2020-02-23T17:03:30Z</time>
      </trkpt>
      <trkpt lat="45.92916" lon="4.60973">
        <ele>474</ele>
        <time>2020-02-23T17:03:33Z</time>
      </trkpt>
      <trkpt lat="45.92911" lon="4.60985">
        <ele>474</ele>
        <time>2020-02-23T17:03:34Z</time>
      </trkpt>
      <trkpt lat="45.92895" lon="4.61021">
        <ele>469</ele>
        <time>2020-02-23T17:03:37Z</time>
      </trkpt>
      <trkpt lat="45.92849" lon="4.61092">
        <ele>459</ele>
        <time>2020-02-23T17:03:44Z</time>
      </trkpt>
      <trkpt lat="45.92841" lon="4.611">
        <ele>458</ele>
        <time>2020-02-23T17:03:45Z</time>
      </trkpt>
      <trkpt lat="45.92792" lon="4.61108">
        <ele>449</ele>
        <time>2020-02-23T17:03:50Z</time>
      </trkpt>
      <trkpt lat="45.92775" lon="4.61109">
        <ele>448</ele>
        <time>2020-02-23T17:03:51Z</time>
      </trkpt>
      <trkpt lat="45.92747" lon="4.61113">
        <ele>442</ele>
        <time>2020-02-23T17:03:57Z</time>
      </trkpt>
      <trkpt lat="45.92756" lon="4.61112">
        <ele>440</ele>
        <time>2020-02-23T17:04:06Z</time>
      </trkpt>
      <trkpt lat="45.92766" lon="4.61107">
        <ele>442</ele>
        <time>2020-02-23T17:04:14Z</time>
      </trkpt>
      <trkpt lat="45.92839" lon="4.61094">
        <ele>452</ele>
        <time>2020-02-23T17:04:43Z</time>
      </trkpt>
      <trkpt lat="45.9286" lon="4.61073">
        <ele>455</ele>
        <time>2020-02-23T17:04:53Z</time>
      </trkpt>
      <trkpt lat="45.92864" lon="4.61062">
        <ele>457</ele>
        <time>2020-02-23T17:04:57Z</time>
      </trkpt>
      <trkpt lat="45.92891" lon="4.61026">
        <ele>462</ele>
        <time>2020-02-23T17:05:12Z</time>
      </trkpt>
      <trkpt lat="45.92932" lon="4.60931">
        <ele>473</ele>
        <time>2020-02-23T17:05:47Z</time>
      </trkpt>
      <trkpt lat="45.92959" lon="4.60911">
        <ele>477</ele>
        <time>2020-02-23T17:06:02Z</time>
      </trkpt>
      <trkpt lat="45.92966" lon="4.609">
        <ele>479</ele>
        <time>2020-02-23T17:06:08Z</time>
      </trkpt>
      <trkpt lat="45.93004" lon="4.60831">
        <ele>490</ele>
        <time>2020-02-23T17:06:37Z</time>
      </trkpt>
      <trkpt lat="45.93021" lon="4.6078">
        <ele>497</ele>
        <time>2020-02-23T17:06:56Z</time>
      </trkpt>
      <trkpt lat="45.9303" lon="4.60769">
        <ele>498</ele>
        <time>2020-02-23T17:07:01Z</time>
      </trkpt>
      <trkpt lat="45.93048" lon="4.6071">
        <ele>504</ele>
        <time>2020-02-23T17:07:21Z</time>
      </trkpt>
      <trkpt lat="45.93077" lon="4.60642">
        <ele>507</ele>
        <time>2020-02-23T17:07:41Z</time>
      </trkpt>
      <trkpt lat="45.93108" lon="4.6055">
        <ele>507</ele>
        <time>2020-02-23T17:07:57Z</time>
      </trkpt>
      <trkpt lat="45.93164" lon="4.60422">
        <ele>518</ele>
        <time>2020-02-23T17:08:27Z</time>
      </trkpt>
      <trkpt lat="45.93226" lon="4.60349">
        <ele>524</ele>
        <time>2020-02-23T17:08:55Z</time>
      </trkpt>
      <trkpt lat="45.93434" lon="4.60282">
        <ele>516</ele>
        <time>2020-02-23T17:09:29Z</time>
      </trkpt>
      <trkpt lat="45.93462" lon="4.60274">
        <ele>517</ele>
        <time>2020-02-23T17:09:36Z</time>
      </trkpt>
      <trkpt lat="45.93454" lon="4.60272">
        <ele>518</ele>
        <time>2020-02-23T17:09:43Z</time>
      </trkpt>
      <trkpt lat="45.93297" lon="4.60328">
        <ele>518</ele>
        <time>2020-02-23T17:10:18Z</time>
      </trkpt>
      <trkpt lat="45.93277" lon="4.60338">
        <ele>519</ele>
        <time>2020-02-23T17:10:24Z</time>
      </trkpt>
      <trkpt lat="45.93237" lon="4.60349">
        <ele>524</ele>
        <time>2020-02-23T17:10:43Z</time>
      </trkpt>
      <trkpt lat="45.93165" lon="4.60422">
        <ele>522</ele>
        <time>2020-02-23T17:11:01Z</time>
      </trkpt>
      <trkpt lat="45.93102" lon="4.60567">
        <ele>511</ele>
        <time>2020-02-23T17:11:17Z</time>
      </trkpt>
      <trkpt lat="45.93091" lon="4.60567">
        <ele>509</ele>
        <time>2020-02-23T17:11:21Z</time>
      </trkpt>
      <trkpt lat="45.93076" lon="4.60544">
        <ele>508</ele>
        <time>2020-02-23T17:11:28Z</time>
      </trkpt>
      <trkpt lat="45.92986" lon="4.60471">
        <ele>486</ele>
        <time>2020-02-23T17:11:54Z</time>
      </trkpt>
      <trkpt lat="45.92985" lon="4.60454">
        <ele>484</ele>
        <time>2020-02-23T17:11:58Z</time>
      </trkpt>
      <trkpt lat="45.92989" lon="4.60426">
        <ele>487</ele>
        <time>2020-02-23T17:12:09Z</time>
      </trkpt>
      <trkpt lat="45.93016" lon="4.60353">
        <ele>495</ele>
        <time>2020-02-23T17:12:37Z</time>
      </trkpt>
      <trkpt lat="45.93001" lon="4.60395">
        <ele>494</ele>
        <time>2020-02-23T17:12:57Z</time>
      </trkpt>
      <trkpt lat="45.92994" lon="4.60412">
        <ele>492</ele>
        <time>2020-02-23T17:13:00Z</time>
      </trkpt>
      <trkpt lat="45.92988" lon="4.60463">
        <ele>486</ele>
        <time>2020-02-23T17:13:09Z</time>
      </trkpt>
      <trkpt lat="45.92995" lon="4.60473">
        <ele>484</ele>
        <time>2020-02-23T17:13:13Z</time>
      </trkpt>
      <trkpt lat="45.93077" lon="4.60543">
        <ele>505</ele>
        <time>2020-02-23T17:14:11Z</time>
      </trkpt>
      <trkpt lat="45.93092" lon="4.60564">
        <ele>508</ele>
        <time>2020-02-23T17:14:23Z</time>
      </trkpt>
      <trkpt lat="45.93098" lon="4.60574">
        <ele>508</ele>
        <time>2020-02-23T17:14:28Z</time>
      </trkpt>
      <trkpt lat="45.93066" lon="4.60672">
        <ele>508</ele>
        <time>2020-02-23T17:15:00Z</time>
      </trkpt>
      <trkpt lat="45.92978" lon="4.60892">
        <ele>487</ele>
        <time>2020-02-23T17:15:28Z</time>
      </trkpt>
      <trkpt lat="45.92961" lon="4.60914">
        <ele>483</ele>
        <time>2020-02-23T17:15:31Z</time>
      </trkpt>
      <trkpt lat="45.92936" lon="4.60928">
        <ele>477</ele>
        <time>2020-02-23T17:15:36Z</time>
      </trkpt>
      <trkpt lat="45.9293" lon="4.60939">
        <ele>476</ele>
        <time>2020-02-23T17:15:38Z</time>
      </trkpt>
      <trkpt lat="45.92924" lon="4.60946">
        <ele>475</ele>
        <time>2020-02-23T17:15:40Z</time>
      </trkpt>
      <trkpt lat="45.92916" lon="4.60941">
        <ele>473</ele>
        <time>2020-02-23T17:15:42Z</time>
      </trkpt>
      <trkpt lat="45.92901" lon="4.60925">
        <ele>471</ele>
        <time>2020-02-23T17:15:46Z</time>
      </trkpt>
      <trkpt lat="45.92879" lon="4.60913">
        <ele>467</ele>
        <time>2020-02-23T17:15:52Z</time>
      </trkpt>
      <trkpt lat="45.92872" lon="4.60898">
        <ele>465</ele>
        <time>2020-02-23T17:15:55Z</time>
      </trkpt>
      <trkpt lat="45.92859" lon="4.60843">
        <ele>461</ele>
        <time>2020-02-23T17:16:04Z</time>
      </trkpt>
      <trkpt lat="45.92849" lon="4.60829">
        <ele>459</ele>
        <time>2020-02-23T17:16:08Z</time>
      </trkpt>
      <trkpt lat="45.92842" lon="4.60812">
        <ele>452</ele>
        <time>2020-02-23T17:16:12Z</time>
      </trkpt>
      <trkpt lat="45.92841" lon="4.60802">
        <ele>452</ele>
        <time>2020-02-23T17:16:14Z</time>
      </trkpt>
      <trkpt lat="45.92845" lon="4.60786">
        <ele>451</ele>
        <time>2020-02-23T17:16:19Z</time>
      </trkpt>
      <trkpt lat="45.92868" lon="4.60696">
        <ele>456</ele>
        <time>2020-02-23T17:16:44Z</time>
      </trkpt>
      <trkpt lat="45.92868" lon="4.6068">
        <ele>458</ele>
        <time>2020-02-23T17:16:49Z</time>
      </trkpt>
      <trkpt lat="45.92861" lon="4.60669">
        <ele>458</ele>
        <time>2020-02-23T17:16:52Z</time>
      </trkpt>
      <trkpt lat="45.9282" lon="4.60626">
        <ele>451</ele>
        <time>2020-02-23T17:17:02Z</time>
      </trkpt>
      <trkpt lat="45.92812" lon="4.60614">
        <ele>449</ele>
        <time>2020-02-23T17:17:04Z</time>
      </trkpt>
      <trkpt lat="45.92751" lon="4.60542">
        <ele>443</ele>
        <time>2020-02-23T17:17:17Z</time>
      </trkpt>
      <trkpt lat="45.92728" lon="4.605">
        <ele>446</ele>
        <time>2020-02-23T17:17:29Z</time>
      </trkpt>
      <trkpt lat="45.92691" lon="4.60467">
        <ele>448</ele>
        <time>2020-02-23T17:17:42Z</time>
      </trkpt>
      <trkpt lat="45.92683" lon="4.60466">
        <ele>449</ele>
        <time>2020-02-23T17:17:44Z</time>
      </trkpt>
      <trkpt lat="45.92671" lon="4.60461">
        <ele>449</ele>
        <time>2020-02-23T17:17:49Z</time>
      </trkpt>
      <trkpt lat="45.92725" lon="4.60402">
        <ele>453</ele>
        <time>2020-02-23T17:18:10Z</time>
      </trkpt>
      <trkpt lat="45.92725" lon="4.60387">
        <ele>454</ele>
        <time>2020-02-23T17:18:15Z</time>
      </trkpt>
      <trkpt lat="45.92715" lon="4.60386">
        <ele>455</ele>
        <time>2020-02-23T17:18:17Z</time>
      </trkpt>
      <trkpt lat="45.92656" lon="4.60386">
        <ele>452</ele>
        <time>2020-02-23T17:18:26Z</time>
      </trkpt>
      <trkpt lat="45.92646" lon="4.60393">
        <ele>450</ele>
        <time>2020-02-23T17:18:29Z</time>
      </trkpt>
      <trkpt lat="45.92649" lon="4.60417">
        <ele>449</ele>
        <time>2020-02-23T17:18:32Z</time>
      </trkpt>
      <trkpt lat="45.9266" lon="4.60456">
        <ele>449</ele>
        <time>2020-02-23T17:18:38Z</time>
      </trkpt>
      <trkpt lat="45.92659" lon="4.60467">
        <ele>448</ele>
        <time>2020-02-23T17:18:40Z</time>
      </trkpt>
      <trkpt lat="45.92649" lon="4.60483">
        <ele>447</ele>
        <time>2020-02-23T17:18:43Z</time>
      </trkpt>
      <trkpt lat="45.92637" lon="4.60484">
        <ele>446</ele>
        <time>2020-02-23T17:18:46Z</time>
      </trkpt>
    </trkseg>
  </trk>
</gpx>